     2              OBSERVATION DATA    GPS                 RINEX VERSION / TYPE
ASHTORIN MIT 05 - JUN - 97 16:22                            PGM / RUN BY / DATE
                                                            COMMENT
China Lake 97 #1 Ashtech Z12                                COMMENT
Original Marker Name: GS11                                  COMMENT
Campaign Name: China Lake May 1997                          COMMENT
4-Character Station Name: GS11                              COMMENT
6-Character Antenna Code: ASHGD3                            COMMENT
Vertical Measurement Point: TGP                             COMMENT
Vertical Offset to Rinex Ref. Point: 0.0640                 COMMENT
Radial Measurement Point: RRP                               COMMENT
Radial Offset to Rinex Ref. Point: 0.0000                   COMMENT
Antenna Height from Field Measurement: 0.2020 m             COMMENT
Additional Antenna Identification Info.:                    COMMENT
The Whopper (700718AB)                                      COMMENT
Original XYZ: -2409663.0700 -4612270.0000 3677373.7400      COMMENT
New XYZ position is based on association with SCEC monument COMMENT
E1F4A7N1+0011. Position of that monument is believed to be  COMMENT
valid to within 1 m horizontally; vertical accuracy         COMMENT
should be no worse than 3-times this value.                 COMMENT
                                                            COMMENT
Revised Rinex header created by UCSD GPS archive for        COMMENT
GSAC on 01-Aug-2000 (2000:214) 00:45:04 GMT                 COMMENT
For assistance contact dagnew@ucsd.edu                      COMMENT
or anderson@python.ucsd.edu                                 COMMENT
                                                            COMMENT
GO11                                                        MARKER NAME
gs11                                                        MARKER NUMBER
KEN US DEFENSE MAPPING AGENCY                               OBSERVER / AGENCY
448 ASHTECH Z-XII3 1G001C7                                  REC # / TYPE / VERS
812 ASHTECH GEODETIC III                                    ANT # / TYPE
 -2409680.1917 -4612263.8383  3677303.4527                  APPROX POSITION XYZ
        0.1380        0.0000        0.0000                  ANTENNA: DELTA H/E/N
     1     1     0                                          WAVELENGTH FACT L1/2
     7    L1    L2    C1    P1    P2    D1    D2            # / TYPES OF OBSERV
    30                                                      INTERVAL
  1997     4    22    15    23    0.000000                  TIME OF FIRST OBS
  1997     4    22    21    30    0.000000                  TIME OF LAST OBS
                                                            END OF HEADER
 97  4 22 15 23  0.0000000  0  3 19 31 10                           -0.001850938
      8110.65819      1203.39552  20179654.843           0.0005          0.0005
      -828.106        -645.277
      1932.20319         0.000 1  21404561.444           0.000           0.000
     -1503.760       -1171.761
      8844.77619      1212.26452  23259252.933           0.0005          0.0005
      -839.161        -653.892
 97  4 22 15 23 30.0000000  0  7 19 31 27  7 10  2 18               -0.001980787
     33146.501 9     20711.77558  20184419.720    20184421.3195   20184427.8515
      -840.527        -654.956
     47403.596 9     24048.18358  21413205.864           0.0005   21413213.8265
     -1527.193       -1190.021
    -44702.62219    -17050.55458  20243247.109           0.0005   20243254.4735
      1527.011        1189.879
   -118930.37918    -74087.35854  24193369.412           0.0005          0.0005
      3612.598        2815.011
     34318.656 9     21062.41356  23264096.968           0.0004   23264112.0855
      -858.463        -668.932
    -57492.44519    -35115.18358  21478688.111           0.0005   21478696.7505
      1706.715        1329.908
    100307.22319     48075.83758  21304007.014           0.0005   21304015.2975
     -3041.334       -2369.871
 97  4 22 15 24 30.0000000  0  7 19 31 27  7 10  2 18                0.000020045
     84526.764 9     60748.31958  20793781.402    20793783.6015   20793790.1465
      -873.075        -680.318
    140593.570 9     96663.73648  22030522.687    22030525.9315   22030532.2184
     -1580.693       -1231.709
   -135487.691 9    -87792.16148  20825555.888    20825557.0145   20825563.6284
      1498.252        1167.469
   -335366.350 9   -242738.69356  24751768.581           0.0005   24751776.9655
      3600.725        2805.760
     87142.476 9     62223.68656  23873740.355    23873739.5125   23873748.4615
      -903.767        -704.234
   -158992.176 9   -114205.85348  22058958.737    22058959.5285   22058966.9274
      1675.453        1305.548
    283779.280 9    191040.98648  21938506.393    21938506.5385   21938513.8474
     -3076.053       -2396.924
 97  4 22 15 25  0.0000000  0  8 19 31 27  7 10  3  2 18             0.000019736
    110973.442 9     81356.10948  20798813.547    20798816.2764   20798822.8324
      -889.505        -693.121
    188435.443 9    133943.11458  22039631.928    22039629.9765   22039636.2195
     -1608.295       -1253.217
   -180203.215 9   -122635.42458  20817048.250    20817047.9345   20817054.5705
      1483.431        1155.920
   -443274.573 9   -326823.03256  24731230.498    24731232.0445   24731242.9815
      3593.759        2800.332
    114601.481 9     83620.27146  23878965.106    23878965.0034   23878973.5814
      -926.355        -721.835
    196747.17718    143723.51654  24962062.122           0.0005          0.0005
     -2978.132       -2320.622
   -209003.701 9   -153175.85658  22049442.399    22049442.6495   22049450.0565
      1659.028        1292.749
    376334.617 9    263161.98358  21956116.293    21956119.2515   21956126.5695
     -3093.913       -2410.841
 97  4 22 15 25 30.0000000  0  8 19 31 27  7 10  3  2 18             0.000019561
    137898.020 9    102336.28848  20803937.912    20803939.8634   20803946.4434
      -905.174        -705.330
    237094.304 9    171859.10448  22048890.437    22048889.4774   22048895.7124
     -1635.338       -1274.289
   -224498.761 9   -157151.43248  20808618.294    20808618.7754   20808625.4554
      1469.819        1145.313
   -550987.664 8   -410755.32946  24710733.978    24710735.5775   24710746.1294
      3587.310        2795.306
    142720.369 9    105531.02646  23884315.831    23884315.8624   23884324.4274
      -947.893        -738.618
    286351.896 8       651.08352  24979113.989           0.0005          0.0005
     -2994.985       -2333.755
   -258526.960 9   -191765.39148  22040018.393    22040018.6784   22040026.0994
      1642.862        1280.152
    469419.718 9    335695.77948  21973830.855    21973832.7514   21973840.1024
     -3111.462       -2424.516
 97  4 22 15 26  0.0000000  0  8 19 31 27  7 10  3  2 18             0.000019518
    165265.879 9    123661.88048  20809145.999    20809147.7854   20809154.4084
      -918.890        -716.018
    286522.178 9    210374.32148  22058295.776    22058295.3264   22058301.5614
     -1659.444       -1293.073
   -268410.044 9   -191368.01448  20800262.002    20800262.7354   20800269.4344
      1458.049        1136.142
   -658530.350 9   -494554.83146  24690269.917    24690270.9354   24690281.5684
      3582.694        2791.710
    171458.619 9    127924.42046  23889784.735    23889784.6244   23889793.1634
      -967.803        -754.132
    376416.424 8     70830.92245  24996264.841           0.0004          0.0004
     -3008.901       -2344.598
   -307591.416 9   -229997.41648  22030681.433    22030682.0234   22030689.4464
      1628.367        1268.857
    563010.564 9    408623.66648  21991640.864    21991642.5304   21991649.9104
     -3127.595       -2437.087
 97  4 22 15 26 30.0000000  0  8 19 31 27  7 10  3  2 18             0.000019580
    193032.570 9    145298.25448  20814430.024    20814431.6024   20814438.2474
      -931.961        -726.203
    336663.447 9    249445.43548  22067837.088    22067836.9294   22067843.1974
     -1683.210       -1311.592
   -311983.949 9   -225321.70048  20791970.118    20791970.8944   20791977.6194
      1447.019        1127.547
   -765954.417 9   -578261.89746  24669827.680    24669828.8594   24669839.5534
      3579.098        2788.908
    200785.543 9    150776.51446  23895365.438    23895365.3784   23895373.9264
      -987.010        -769.099
    466886.109 8    141326.75255  25013474.801           0.0004          0.0005
     -3022.225       -2354.981
   -356224.727 9   -267893.48248  22021426.785    22021427.4304   22021434.8504
      1614.099        1257.739
    657073.515 9    481919.42548  22009540.802    22009542.1534   22009549.5234
     -3142.802       -2448.937
 97  4 22 15 27  0.0000000  0  8 19 31 27  7 10  3  2 18             0.000019728
    221170.696 9    167224.05448  20819784.619    20819786.1214   20819792.7844
      -944.061        -735.632
    387485.458 9    289046.99648  22077507.959    22077508.0534   22077514.3344
     -1704.955       -1328.536
   -355250.404 9   -259035.81548  20783736.835    20783737.5604   20783744.3174
      1437.321        1119.990
   -873296.062 8   -661904.73746  24649401.335    24649402.4714   24649413.1104
      3576.882        2787.181
    230667.943 9    174061.44446  23901051.878    23901051.8044   23901060.4814
     -1005.309        -783.358
    557740.478 9    212122.38456  25030761.140           0.0005   25030767.5575
     -3034.870       -2364.834
   -404456.568 9   -305476.72048  22012248.569    22012249.2174   22012256.6264
      1601.353        1247.808
    751563.432 9    555547.88048  22027521.924    22027523.0534   22027530.4314
     -3156.718       -2459.780
 97  4 22 15 27 30.0000000  0  8 19 31 27  7 10  3  2 18             0.000019951
    249674.839 9    189435.06548  20825208.729    20825210.2774   20825216.9684
      -956.484        -745.312
    438949.686 9    329148.98648  22087301.197    22087301.4034   22087307.7094
     -1726.088       -1345.004
   -398233.452 9   -292529.09448  20775557.429    20775558.1784   20775564.9484
      1427.989        1112.719
   -980573.563 9   -745497.59546  24628987.375    24628988.1124   24628998.7734
      3574.653        2785.444
    261105.402 9    197778.88046  23906844.043    23906843.8464   23906852.6634
     -1023.884        -797.832
    648966.534 8    283207.61545  25048120.310    25048116.2775   25048126.8464
     -3046.923       -2374.226
   -452309.171 9   -342764.44348  22003142.504    22003143.1814   22003150.5764
      1588.873        1238.083
    846479.298 9    629508.24948  22045583.943    22045585.0134   22045592.3924
     -3171.015       -2470.921
 97  4 22 15 28  0.0000000  0  8 19 31 27  7 10  3  2 18             0.000020225
    278549.055 9    211934.44248  20830703.294    20830704.8714   20830711.5684
      -968.769        -754.885
    491028.550 9    369729.91048  22097211.309    22097211.6994   22097217.9934
     -1746.330       -1360.777
   -440941.612 9   -325808.17848  20767430.329    20767431.1104   20767437.8844
      1418.893        1105.631
  -1087796.136 8   -829047.64246  24608583.316    24608584.2654   24608595.0814
      3573.156        2784.277
    292080.606 9    221915.34146  23912738.212    23912738.3354   23912747.1554
     -1041.259        -811.371
    740541.792 8    354564.95055  25065545.684    25065544.1975   25065551.7775
     -3058.758       -2383.448
   -499806.725 9   -379775.50848  21994104.031    21994104.6944   21994112.0864
      1577.328        1229.087
    941809.842 9    703791.74248  22063724.826    22063725.8834   22063733.2274
     -3184.649       -2481.545
 97  4 22 15 28 30.0000000  0  8 19 31 27  7 10  3  2 18             0.000020542
    307794.398 9    234723.00748  20836268.632    20836270.1034   20836276.8174
      -980.882        -764.324
    543726.128 9    410792.94648  22107239.233    22107239.7334   22107246.0294
     -1766.953       -1376.846
   -483368.736 9   -358868.27148  20759356.651    20759357.5174   20759364.2944
      1409.467        1098.286
  -1194960.199 8   -912552.10246  24588190.183    24588191.6474   24588202.4534
      3570.951        2782.559
    323568.912 9    246451.63946  23918730.564    23918730.4774   23918739.1834
     -1057.982        -824.402
    832485.986 8    426209.74745  25083041.568    25083041.2154   25083048.5134
     -3070.949       -2392.947
   -546961.495 9   -416519.46848  21985130.688    21985131.4184   21985138.8594
      1566.373        1220.550
   1037547.515 9    778392.47648  22081943.226    22081944.2354   22081951.5374
     -3197.877       -2491.852
 97  4 22 15 29  0.0000000  0  8 19 31 27  7 10  3  2 18             0.000020899
    337409.175 9    257799.44548  20841904.283    20841905.6394   20841912.3574
      -993.669        -774.288
    597047.468 9    452342.03548  22117385.948    22117386.4504   22117392.7464
     -1788.174       -1393.382
   -525498.820 9   -391696.90048  20751339.515    20751340.4284   20751347.2294
      1399.031        1090.154
  -1302041.488 8   -995992.05346  24567812.865    24567814.7534   24567825.5724
      3567.631        2779.972
    355564.731 9    271383.36846  23924818.863    23924819.0824   23924827.9324
     -1075.337        -837.925
    924803.741 8    498145.57545  25100608.875    25100608.5884   25100616.1284
     -3083.704       -2402.886
   -593786.887 9   -453006.76448  21976220.238    21976220.8684   21976228.2944
      1555.065        1211.739
   1133697.446 9    853314.45348  22100240.248    22100241.0084   22100248.3224
     -3212.359       -2503.137
 97  4 22 15 29 30.0000000  0  8 19 31 27  7 10  3  2 18             0.000021299
    367390.165 9    281161.24348  20847609.651    20847610.8964   20847617.5814
     -1005.227        -783.294
    650996.095 9    494379.91348  22127651.865    22127652.5564   22127658.8314
     -1808.667       -1409.351
   -567334.234 9   -424295.92048  20743378.557    20743379.4554   20743386.2474
      1389.784        1082.948
  -1409032.160 9  -1079361.38146  24547453.459    24547455.0904   24547465.9154
      3564.923        2777.862
    388055.676 9    296700.92146  23931001.740    23931001.9644   23931010.8304
     -1090.853        -850.015
   1017476.005 8    570357.78845  25118243.416    25118243.7534   25118250.8104
     -3094.626       -2411.397
   -640292.734 9   -489245.07348  21967370.457    21967371.1384   21967378.5524
      1545.183        1204.039
   1230256.146 9    928554.94348  22118614.747    22118615.5644   22118622.8814
     -3224.826       -2512.851
 97  4 22 15 30  0.0000000  0  8 19 31 27  7 10  3  2 18             0.000021733
    397730.921 9    304803.37448  20853383.482    20853384.5844   20853391.2454
     -1017.200        -792.623
    705573.469 9    536907.73048  22138037.648    22138038.3184   22138044.5744
     -1829.753       -1425.782
   -608873.321 9   -456664.03948  20735474.003    20735474.8474   20735481.6044
      1379.591        1075.006
  -1515926.075 8  -1162655.31046  24527112.234    24527113.8254   24527124.6364
      3561.536        2775.223
    421021.906 9    322388.82346  23937275.478    23937275.3514   23937284.0814
     -1106.812        -862.451
   1110491.509 8    642837.40446  25135943.624    25135943.9734   25135951.3964
     -3106.250       -2420.455
   -686494.375 9   -525246.33648  21958578.584    21958579.3004   21958586.6544
      1535.009        1196.111
   1327192.495 9   1004089.70948  22137061.099    22137061.9974   22137069.3494
     -3237.538       -2522.757
 97  4 22 15 30 30.0000000  0  8 19 31 27  7 10  3  2 18             0.000022164
    428422.578 9    328718.93848  20859223.843    20859225.0224   20859231.6904
     -1028.796        -801.659
    760780.231 9    579925.97148  22148542.954    22148543.8374   22148550.0874
     -1850.502       -1441.950
   -650115.402 9   -488800.72248  20727625.898    20727626.7644   20727633.4734
      1370.014        1067.543
  -1622720.330 9  -1245871.59046  24506790.285    24506791.6784   24506802.3754
      3558.417        2772.792
    454481.689 9    348461.33046  23943642.803    23943642.5674   23943651.3474
     -1123.789        -875.680
   1203844.480 9    715579.79246  25153707.767    25153708.3134   25153716.1414
     -3117.101       -2428.910
   -732390.780 9   -561009.75548  21949844.944    21949845.5364   21949852.8474
      1524.857        1188.200
   1424504.664 9   1079917.31647  22155579.060    22155579.9854   22155587.3154
     -3249.737       -2532.263
 97  4 22 15 31  0.0000000  0  8 19 31 27  7 10  3  2 18             0.000022707
    459456.760 9    352901.40548  20865129.462    20865130.6434   20865137.3024
     -1040.162        -810.516
    816590.297 9    623414.32048  22159163.336    22159164.1984   22159170.4434
     -1870.138       -1457.250
   -691086.276 9   -520726.07348  20719829.498    20719830.2764   20719836.9914
      1361.506        1060.914
  -1729439.197 8  -1329029.11246  24486482.746    24486483.7604   24486494.3474
      3556.311        2771.151
    488443.069 9    374924.66746  23950105.170    23950105.2094   23950114.0414
     -1140.116        -888.402
   1297505.672 8    788562.65945  25171531.137    25171531.7034   25171538.9474
     -3126.926       -2436.566
   -777987.600 9   -596539.73548  21941168.088    21941168.7724   21941176.0074
      1514.933        1180.467
   1522166.683 9   1156017.53647  22174163.529    22174164.5044   22174171.8614
     -3261.012       -2541.048
 97  4 22 15 31 30.0000000  0  7 19 31 27  7 10  2 18                0.000023288
    490844.682 9    377359.51348  20871102.446    20871103.5694   20871110.2244
     -1052.258        -819.941
    872987.802 9    667360.41448  22169895.614    22169896.2814   22169902.5614
     -1889.649       -1472.454
   -731793.811 9   -552446.22848  20712083.206    20712083.9054   20712090.6004
      1352.254        1053.704
  -1836094.186 8  -1412136.85646  24466186.799    24466188.0744   24466198.5474
      3554.086        2769.418
    522897.459 9    401772.18546  23956661.828    23956661.7714   23956670.5044
     -1156.839        -901.433
   -823271.518 9   -631825.89048  21932550.901    21932551.5464   21932558.7694
      1503.940        1171.901
   1620167.670 9   1232381.88347  22192812.745    22192813.5124   22192820.8524
     -3272.463       -2549.971
 97  4 22 15 32  0.0000000  0  7 19 31 27  7 10  2 18                0.000023878
    522566.888 9    402078.10148  20877138.915    20877140.1114   20877146.7424
     -1062.326        -827.786
    929934.506 9    711734.45148  22180732.189    22180732.8804   22180739.1774
     -1906.960       -1485.943
   -772244.133 9   -583965.95648  20704385.711    20704386.4914   20704393.1854
      1344.550        1047.701
  -1942716.506 8  -1495219.13746  24445896.834    24445898.5044   24445908.9634
      3554.230        2769.530
    557830.329 9    428992.52946  23963309.510    23963309.3074   23963317.9914
     -1172.023        -913.265
   -868245.980 9   -666870.91748  21923992.548    21923993.2154   21924000.4214
      1494.455        1164.510
   1718496.005 9   1309001.30847  22211523.947    22211524.8164   22211532.1974
     -3282.810       -2558.034
 97  4 22 15 32 30.0000000  0  7 19 31 27  7 10  2 18                0.000024468
    554586.645 9    427028.55048  20883232.069    20883233.3084   20883239.9334
     -1071.946        -835.283
    987411.692 9    756521.85648  22191669.759    22191670.4504   22191676.7524
     -1924.459       -1499.578
   -812462.120 9   -615304.64248  20696732.519    20696733.2824   20696739.9794
      1336.956        1041.784
  -2049342.869 8  -1578304.56746  24425607.337    24425608.2444   24425618.6964
      3554.629        2769.841
    593226.417 9    456573.83846  23970045.247    23970044.9644   23970053.6684
     -1187.178        -925.074
   -912922.318 9   -701683.63548  21915490.905    21915491.5614   21915498.7484
      1484.432        1156.700
   1817141.186 9   1385867.62347  22230295.578    22230296.4414   22230303.8394
     -3292.991       -2565.967
 97  4 22 15 33  0.0000000  0  7 19 31 27  7 10  2 18                0.000025045
    586892.892 9    452202.24048  20889379.808    20889380.9904   20889387.6104
     -1081.488        -842.718
   1045416.614 9    801720.48048  22202707.753    22202708.4284   22202714.7274
     -1942.506       -1513.641
   -852444.855 9   -646460.01648  20689124.024    20689124.8184   20689131.5224
      1328.683        1035.337
  -2155986.195 8  -1661403.22246  24405314.165    24405314.7004   24405325.0984
      3554.962        2770.100
    629060.796 9    484496.67546  23976863.999    23976864.1404   23976872.8844
     -1201.476        -936.215
   -957298.820 9   -736262.71648  21907046.302    21907046.9474   21907054.1434
      1474.241        1148.759
   1916091.336 9   1462971.57647  22249125.371    22249126.0814   22249133.4734
     -3303.589       -2574.225
 97  4 22 15 33 30.0000000  0  7 19 31 27  7 10  2 18                0.000025604
    619449.978 9    477571.38848  20895575.136    20895576.4044   20895583.0054
     -1089.355        -848.848
   1103948.526 9    847329.74748  22213846.129    22213846.7604   22213853.0154
     -1960.256       -1527.472
   -892191.539 9   -677431.44948  20681560.494    20681561.3104   20681567.9754
      1320.576        1029.020
  -2262657.453 8  -1744523.63446  24385015.068    24385015.8864   24385026.1494
      3555.932        2770.856
    665299.541 9    512734.60146  23983760.256    23983760.2354   23983768.8964
     -1214.987        -946.743
  -1001395.414 9   -770623.68348  21898654.923    21898655.6584   21898662.8474
      1465.211        1141.723
   2015336.642 9   1540305.52447  22268011.120    22268011.8914   22268019.2654
     -3313.222       -2581.731
 97  4 22 15 34  0.0000000  0  7 19 31 27  7 10  2 18                0.000026164
    652245.949 9    503126.67648  20901816.005    20901817.2784   20901823.8814
     -1097.471        -855.172
   1163027.010 9    893364.91148  22225088.419    22225089.0854   22225095.2864
     -1978.905       -1542.004
   -931693.867 9   -708212.48448  20674043.512    20674044.2574   20674050.9294
      1312.544        1022.762
  -2369353.462 8  -1827663.33146  24364711.583    24364712.2674   24364722.5074
      3556.549        2771.337
    701952.091 9    541294.96546  23990735.182    23990735.1144   23990743.7424
     -1228.948        -957.622
  -1045223.727 9   -804775.60648  21890314.728    21890315.4114   21890322.6104
      1456.441        1134.889
   2114874.179 9   1617867.17947  22286952.545    22286953.3264   22286960.6594
     -3322.833       -2589.220
 97  4 22 15 34 30.0000000  0  7 19 31 27  7 10  2 18                0.000026733
    685276.887 9    528865.05748  20908101.635    20908102.8924   20908109.4834
     -1104.951        -861.001
   1222653.929 9    939827.42948  22236435.108    22236435.7674   22236441.9304
     -1996.376       -1555.618
   -970967.224 9   -738815.09548  20666570.016    20666570.8014   20666577.4704
      1305.338        1017.146
  -2476062.867 8  -1910813.47846  24344405.540    24344406.1974   24344416.3294
      3557.186        2771.833
    739003.723 9    570166.30146  23997786.082    23997785.9334   23997794.4814
     -1241.241        -967.201
  -1088803.340 9   -838733.73348  21882021.912    21882022.4844   21882029.7014
      1448.736        1128.885
   2214670.869 9   1695630.77747  22305943.287    22305944.0654   22305951.4114
     -3330.318       -2595.053
 97  4 22 15 35  0.0000000  0  7 19 31 27  7 10  2 18                0.000027308
    718568.358 9    554806.45148  20914436.770    20914438.0714   20914444.6694
     -1114.185        -868.196
   1282837.123 9    986723.40648  22247887.582    22247888.2904   22247894.4014
     -2015.396       -1570.438
  -1009991.365 9   -769223.51048  20659144.078    20659144.8074   20659151.4274
      1296.624        1010.356
  -2582760.234 8  -1993954.23846  24324101.234    24324102.4544   24324112.4984
      3556.135        2771.014
    776446.569 9    599342.48046  24004911.156    24004911.0704   24004919.6544
     -1254.702        -977.690
  -1132133.345 9   -872497.35548  21873776.489    21873777.0764   21873784.2814
      1440.163        1122.205
   2314718.709 9   1773590.07347  22324981.983    22324982.6114   22324989.9644
     -3339.268       -2602.027
 97  4 22 15 35 30.0000000  0  7 19 31 27  7 10  2 18                0.000027888
    752123.018 9    580952.92548  20920822.093    20920823.3744   20920829.9384
     -1123.324        -875.317
   1343556.234 9   1034036.97648  22259442.033    22259442.8004   22259448.8794
     -2032.749       -1583.960
  -1048775.467 9   -799444.88748  20651763.742    20651764.4554   20651771.0604
      1288.762        1004.230
  -2689430.317 8  -2077073.73846  24303802.828    24303803.7824   24303813.8904
      3554.888        2770.043
    814279.702 9    628822.77946  24012110.433    24012110.5164   24012119.0554
     -1267.919        -987.989
  -1175223.002 9   -906073.70148  21865576.799    21865577.3914   21865584.6004
      1432.266        1116.051
   2415011.382 9   1851740.14647  22344067.198    22344067.7644   22344075.0594
     -3347.264       -2608.258
 97  4 22 15 36  0.0000000  0  7 19 31 27  7 10  2 18                0.000028468
    785967.633 9    607325.34348  20927262.615    20927263.8344   20927270.3684
     -1132.996        -882.854
   1404787.996 9   1081750.02648  22271094.155    22271094.8524   22271100.8944
     -2049.451       -1596.975
  -1087335.455 9   -829491.62548  20644426.012    20644426.7554   20644433.3314
      1281.885         998.871
  -2796054.638 8  -2160157.58146  24283512.966    24283513.8434   24283523.8714
      3553.248        2768.765
    852508.831 9    658611.64046  24019385.306    24019385.3754   24019393.9014
     -1280.683        -997.935
  -1218072.034 9   -939462.53848  21857422.920    21857423.4904   21857430.6604
      1424.315        1109.856
   2515545.414 9   1930078.29447  22363198.210    22363198.8214   22363206.1194
     -3355.053       -2614.327
 97  4 22 15 36 30.0000000  0  7 19 31 27  7 10  2 18                0.000029044
    820108.410 9    633928.52748  20933759.427    20933760.6604   20933767.2024
     -1142.986        -890.638
   1466526.562 9   1129857.97748  22282842.651    22282843.3544   22282849.3894
     -2066.312       -1610.113
  -1125679.552 9   -859370.14248  20637129.313    20637130.1294   20637136.6824
      1274.426         993.059
  -2902617.704 8  -2243193.68946  24263234.306    24263235.6014   24263245.5424
      3551.449        2767.363
    891125.211 9    688702.28446  24026733.900    24026733.8854   24026742.4534
     -1293.622       -1008.017
  -1260675.393 9   -972659.95148  21849315.777    21849316.3644   21849323.5104
      1415.967        1103.351
   2616321.749 9   2008605.24847  22382375.382    22382375.9734   22382383.2734
     -3363.543       -2620.943
 97  4 22 15 37  0.0000000  0  7 19 31 27  7 10  2 18                0.000029609
    854544.348 9    660761.71648  20940312.391    20940313.6284   20940320.1754
     -1152.933        -898.389
   1528762.497 9   1178353.49448  22294685.699    22294686.4744   22294692.5124
     -2082.992       -1623.111
  -1163808.109 9   -889080.69948  20629873.637    20629874.5274   20629881.0754
      1267.155         987.394
  -3009135.302 8  -2326194.37746  24242964.827    24242965.9264   24242975.8274
      3549.605        2765.926
    930128.535 9    719094.40746  24034155.960    24034155.9594   24034164.6544
     -1306.958       -1018.409
  -1303028.274 9  -1005662.18148  21841256.365    21841256.9284   21841264.0454
      1407.170        1096.496
   2717366.398 9   2087341.27947  22401603.685    22401604.2044   22401611.4714
     -3373.130       -2628.413
 97  4 22 15 37 30.0000000  0  7 19 31 27  7 10  2 18                0.000030176
    889286.933 9    687833.84848  20946923.772    20946924.9264   20946931.5034
     -1163.282        -906.454
   1591504.127 9   1227243.05948  22306625.079    22306625.8574   22306631.8614
     -2100.036       -1636.392
  -1201713.900 9   -918617.67548  20622660.378    20622661.2904   20622667.8454
      1259.695         981.581
  -3115599.016 8  -2409153.07046  24222705.035    24222706.5694   24222716.3494
      3548.101        2764.754
    969545.435 9    749808.81946  24041656.649    24041656.8674   24041665.4424
     -1320.895       -1029.269
  -1345105.126 9  -1038449.32648  21833249.409    21833250.0054   21833257.1024
      1397.983        1089.337
   2818704.652 9   2166306.10147  22420887.764    22420888.3124   22420895.5944
     -3382.719       -2635.885
 97  4 22 15 38  0.0000000  0  7 19 31 27  7 10  2 18                0.000030751
    924333.980 9    715143.22548  20953592.954    20953594.2104   20953600.7734
     -1173.317        -914.273
   1654770.802 9   1276541.74248  22318664.246    22318665.1054   22318671.1284
     -2118.098       -1650.466
  -1239394.597 9   -947979.25448  20615489.913    20615490.8914   20615497.4774
      1251.797         975.426
  -3222031.975 9  -2492087.80845  24202450.941    24202452.9674   24202462.8214
      3547.294        2764.125
   1009377.786 9    780846.96346  24049236.295    24049236.7894   24049245.3954
     -1334.822       -1040.121
  -1386905.643 9  -1071021.14048  21825294.961    21825295.6534   21825302.7374
      1388.529        1081.971
   2920327.764 9   2245492.88047  22440225.877    22440226.6144   22440233.9074
     -3392.304       -2643.354
 97  4 22 15 38 30.0000000  0  7 19 31 27  7 10  2 18                0.000031343
    959679.868 9    742685.46348  20960319.119    20960320.3374   20960326.8934
     -1183.029        -921.841
   1718582.950 9   1326265.48448  22330807.433    22330808.1654   22330814.1794
     -2135.907       -1664.343
  -1276823.996 9   -977145.01548  20608367.311    20608368.3004   20608374.9074
      1243.514         968.972
  -3328444.887 9  -2575006.90846  24182201.032    24182203.2164   24182213.0864
      3547.086        2763.963
   1049625.418 9    812208.68646  24056895.416    24056895.7094   24056904.3944
     -1348.260       -1050.592
  -1428424.405 9  -1103373.40648  21817394.238    21817394.9054   21817401.9984
      1379.428        1074.879
   3022238.988 9   2324904.16347  22459618.874    22459619.7644   22459627.0764
     -3401.820       -2650.769
 97  4 22 15 39  0.0000000  0  7 19 31 27  7 10  2 18                0.000031949
    995338.179 9    770471.14548  20967104.753    20967105.9204   20967112.4854
     -1193.707        -930.161
   1782945.052 9   1376417.75248  22343055.038    22343055.8914   22343061.9134
     -2154.560       -1678.878
  -1313986.864 9  -1006103.09648  20601295.561    20601296.4574   20601303.0584
      1234.326         961.812
  -3434836.547 9  -2657909.44746  24161955.598    24161957.5394   24161967.3534
      3545.878        2763.022
   1090293.097 9    843897.70346  24064634.237    24064634.5894   24064643.3384
     -1362.542       -1061.721
  -1469651.158 9  -1135498.13148  21809549.013    21809549.7014   21809556.8144
      1369.506        1067.148
   3124452.117 9   2404550.69847  22479069.683    22479070.3354   22479077.6624
     -3411.705       -2658.471
 97  4 22 15 39 30.0000000  0  7 19 31 27  7 10  2 18                0.000032575
   1031301.189 9    798494.25748  20973948.285    20973949.4674   20973956.0504
     -1203.967        -938.156
   1847855.454 9   1426997.27048  22355407.276    22355407.9474   22355414.0244
     -2172.914       -1693.180
  -1350884.183 9  -1034854.24948  20594274.394    20594275.1984   20594281.7594
      1225.320         954.795
  -3541202.217 9  -2740791.73846  24141715.477    24141716.7404   24141726.6354
      3544.894        2762.255
   1131375.378 9    875909.80446  24072452.032    24072452.3704   24072461.0604
     -1376.384       -1072.507
  -1510606.657 9  -1167411.49248  21801755.507    21801756.1174   21801763.2584
      1360.840        1060.395
   3226932.215 9   2484405.26047  22498570.930    22498571.6974   22498579.0544
     -3420.389       -2665.238
 97  4 22 15 40  0.0000000  0  7 19 31 27  7 10  2 18                0.000033229
   1067584.954 9    826767.30948  20980852.834    20980854.0624   20980860.6714
     -1214.315        -946.219
   1913320.757 9   1478009.17948  22367864.955    22367865.5934   22367871.7044
     -2190.742       -1707.072
  -1387498.780 9  -1063385.10248  20587306.949    20587307.7144   20587314.2614
      1216.283         947.753
  -3647511.293 9  -2823629.93346  24121485.488    24121486.7654   24121496.6864
      3542.843        2760.657
   1172881.079 9    908251.84146  24080350.298    24080350.7384   24080359.3904
     -1390.021       -1083.133
  -1551291.749 9  -1199114.14148  21794013.362    21794013.9864   21794021.1574
      1352.107        1053.590
   3329690.192 9   2564476.34847  22518125.072    22518125.9674   22518133.3254
     -3429.534       -2672.364
 97  4 22 15 40 30.0000000  0  7 19 31 27  7 10  2 18                0.000033897
   1104177.711 9    855281.13348  20987816.211    20987817.4624   20987824.0684
     -1224.949        -954.506
   1979300.213 9   1529421.73448  22380420.494    22380421.0844   22380427.2324
     -2207.636       -1720.236
  -1423853.558 9  -1091713.49948  20580388.842    20580389.6564   20580396.1864
      1207.705         941.069
  -3753759.442 9  -2906420.62946  24101267.511    24101268.4074   24101278.3604
      3540.511        2758.840
   1214792.751 9    940910.22046  24088326.024    24088326.2784   24088334.9954
     -1403.871       -1093.925
  -1591727.856 9  -1230622.77748  21786318.625    21786319.2534   21786326.4374
      1343.755        1047.082
   3432715.882 9   2644756.04947  22537730.257    22537731.1484   22537738.5234
     -3438.602       -2679.430
 97  4 22 15 41  0.0000000  0  7 19 31 27  7 10  2 18                0.000034577
   1141077.236 9    884033.99848  20994837.969    20994839.2434   20994845.8514
     -1234.961        -962.307
   2045776.036 9   1581221.05948  22393070.319    22393071.0294   22393077.1954
     -2224.164       -1733.115
  -1459960.853 9  -1119849.05148  20573517.796    20573518.6824   20573525.2034
      1199.395         934.594
  -3859939.630 9  -2989158.36846  24081062.083    24081062.9774   24081072.9794
      3538.026        2756.903
   1257116.828 9    973889.95046  24096380.151    24096380.3404   24096389.1534
     -1417.714       -1104.712
  -1631922.444 9  -1261943.22048  21778669.861    21778670.4664   21778677.6574
      1335.832        1040.908
   3535997.746 9   2725235.36247  22557384.260    22557385.0964   22557392.4804
     -3446.715       -2685.752
 97  4 22 15 41 30.0000000  0  7 19 31 27  7 10  2 18                0.000035279
   1178280.264 9    913023.36048  21001917.376    21001918.7524   21001925.3974
     -1245.129        -970.230
   2112748.854 9   1633407.66448  22405814.867    22405815.5024   22405821.6984
     -2240.451       -1745.806
  -1495816.956 9  -1147788.86848  20566694.567    20566695.4714   20566702.0354
      1191.175         928.188
  -3966032.001 9  -3071827.67146  24060873.555    24060874.2144   24060884.1514
      3534.927        2754.488
   1299859.282 9   1007195.70246  24104513.833    24104514.0264   24104522.8624
     -1431.515       -1115.466
  -1671874.521 9  -1293074.69048  21771067.150    21771067.8264   21771075.0434
      1327.694        1034.567
   3639530.601 9   2805910.25147  22577085.931    22577086.8104   22577094.2204
     -3455.439       -2692.550
 97  4 22 15 42  0.0000000  0  7 19 31 27  7 10  2 18                0.000035995
   1215790.235 9    942251.89548  21009055.293    21009056.6824   21009063.3324
     -1256.129        -978.802
   2180211.379 9   1685975.85747  22418652.470    22418653.1984   22418659.4194
     -2257.924       -1759.421
  -1531419.755 9  -1175531.30648  20559919.647    20559920.4774   20559927.0444
      1181.691         920.798
  -4072023.087 9  -3154418.04946  24040704.008    24040704.7434   24040714.5904
      3530.530        2751.062
   1343010.177 9   1040819.70046  24112725.401    24112725.4864   24112734.3104
     -1445.697       -1126.517
  -1711567.302 9  -1324004.11348  21763513.757    21763514.5424   21763521.7844
      1317.867        1026.909
   3743332.612 9   2886794.88047  22596838.831    22596839.7014   22596847.1504
     -3465.312       -2700.243
 97  4 22 15 42 30.0000000  0  7 19 31 27  7 10  2 18                0.000036730
   1253608.415 9    971720.59548  21016251.860    21016253.2674   21016259.9514
     -1265.586        -986.171
   2248185.588 9   1738942.75547  22431587.469    22431588.3164   22431594.4984
     -2274.540       -1772.369
  -1566748.480 9  -1203060.18248  20553196.751    20553197.6374   20553204.2154
      1172.956         913.992
  -4177908.817 9  -3236926.33146  24020554.604    24020555.3084   24020565.1094
      3527.844        2748.969
   1386560.090 9   1074754.62946  24121012.668    24121012.7894   24121021.7314
     -1458.139       -1136.212
  -1750984.651 9  -1354718.91148  21756012.807    21756013.6694   21756020.8924
      1309.268        1020.209
   3847412.305 9   2967895.86847  22616644.536    22616645.4734   22616652.9374
     -3473.868       -2706.910
 97  4 22 15 43  0.0000000  0  7 19 31 27  7 10  2 18                0.000037482
   1291720.616 9   1001418.40448  21023504.370    21023505.7694   21023512.4714
     -1275.352        -993.781
   2316684.572 9   1792318.57647  22444622.476    22444623.2724   22444629.4524
     -2292.278       -1786.191
  -1601793.282 9  -1230367.81748  20546527.889    20546528.8374   20546535.4174
      1163.120         906.327
  -4283694.771 9  -3319356.86346  24000423.844    24000424.9684   24000434.6804
      3524.334        2746.234
   1430491.475 9   1108986.81246  24129372.484    24129372.7524   24129381.6294
     -1470.804       -1146.081
  -1790119.322 9  -1385213.44548  21748565.776    21748566.5934   21748573.8064
      1299.523        1012.615
   3951762.614 9   3049207.73547  22636501.745    22636502.7404   22636510.2324
     -3483.025       -2714.045
 97  4 22 15 43 30.0000000  0  7 19 31 27  7 10  2 18                0.000038250
   1330125.997 9   1031344.66248  21030812.699    21030814.0984   21030820.7884
     -1285.202       -1001.456
   2385716.274 9   1846109.50347  22457758.845    22457759.5934   22457765.7774
     -2310.053       -1800.041
  -1636535.239 9  -1257439.46848  20539916.683    20539917.6614   20539924.2614
      1152.783         898.272
  -4389374.575 9  -3401704.68446  23980312.971    23980314.6754   23980324.4404
      3520.922        2743.575
   1474795.270 9   1143509.16846  24137803.470    24137803.5064   24137812.3904
     -1483.040       -1155.616
  -1828957.937 9  -1415477.28648  21741175.074    21741175.8564   21741183.0504
      1289.542        1004.838
   4056395.569 9   3130739.84247  22656412.697    22656413.7864   22656421.2984
     -3492.591       -2721.499
 97  4 22 15 44  0.0000000  0  7 19 31 27  7 10  2 18                0.000039028
   1368825.303 9   1061499.95248  21038176.949    21038178.3594   21038185.0584
     -1294.749       -1008.895
   2455283.773 9   1900317.93747  22470997.056    22470997.8584   22471004.0414
     -2327.963       -1813.997
  -1670963.455 9  -1284266.65448  20533365.223    20533366.2264   20533372.8144
      1142.565         890.310
  -4494962.465 9  -3483980.88146  23960220.686    23960221.9784   23960231.7584
      3518.467        2741.662
   1519465.299 9   1178316.90046  24146303.598    24146303.8944   24146312.8694
     -1494.997       -1164.933
  -1867493.473 9  -1445504.96048  21733842.003    21733842.7554   21733849.9364
      1279.644         997.125
   4161310.037 9   3212491.31647  22676377.570    22676378.4064   22676385.9084
     -3501.497       -2728.439
 97  4 22 15 44 30.0000000  0  7 19 31 27  7 10  2 18                0.000039824
   1407817.673 9   1091883.61048  21045596.987    21045598.3984   21045605.0694
     -1304.698       -1016.648
   2525395.650 9   1954950.55847  22484338.919    22484339.7614   22484345.9014
     -2346.041       -1828.084
  -1705085.344 9  -1310855.13348  20526872.041    20526873.0424   20526879.6274
      1132.439         882.420
  -4600483.408 9  -3566204.91746  23940141.017    23940141.9384   23940151.7604
      3516.256        2739.940
   1564508.663 9   1213415.57446  24154875.049    24154875.3634   24154884.4784
     -1507.957       -1175.031
  -1905726.728 9  -1475297.08948  21726566.399    21726567.2264   21726574.3654
      1269.356         989.109
   4266491.938 9   3294451.17147  22696393.180    22696393.9134   22696401.3884
     -3510.364       -2735.349
 97  4 22 15 45  0.0000000  0  7 19 31 27  7 10  2 18                0.000040647
   1447122.756 9   1122510.93648  21053076.604    21053077.9644   21053084.6214
     -1315.185       -1024.819
   2596048.547 9   2010004.74847  22497783.737    22497784.6174   22497790.7304
     -2363.615       -1841.778
  -1738899.141 9  -1337203.54948  20520437.502    20520438.5104   20520445.0804
      1122.237         874.470
  -4705925.334 9  -3648367.38246  23920076.179    23920076.9674   23920086.8164
      3513.699        2737.947
   1609957.880 9   1248830.46046  24163523.995    24163524.1374   24163533.2284
     -1521.485       -1185.573
  -1943643.251 9  -1504842.42148  21719351.017    21719351.9514   21719359.0554
      1259.189         981.186
   4371940.239 9   3376618.61047  22716459.417    22716460.1354   22716467.6164
     -3519.013       -2742.088
 97  4 22 15 45 30.0000000  0  7 19 31 27  7 10  2 18                0.000041499
   1486754.948 9   1153393.15248  21060618.347    21060619.7684   21060626.4044
     -1326.771       -1033.848
   2667236.155 9   2065475.60347  22511330.346    22511331.2174   22511337.3004
     -2381.866       -1855.999
  -1772398.513 9  -1363306.95148  20514062.851    20514063.7904   20514070.3704
      1111.501         866.105
  -4811281.571 9  -3730463.07346  23900026.712    23900028.2944   23900038.0704
      3510.382        2735.363
   1655822.559 9   1284569.10346  24172251.639    24172252.0014   24172261.1484
     -1535.973       -1196.862
  -1981259.265 9  -1534153.58648  21712192.898    21712193.8714   21712200.9764
      1248.871         973.146
   4477659.203 9   3458996.96647  22736577.101    22736577.8574   22736585.3234
     -3528.568       -2749.534
 97  4 22 15 46  0.0000000  0  7 19 31 27  7 10  2 18                0.000042389
   1526729.927 9   1184542.47548  21068225.434    21068226.7894   21068233.4044
     -1338.670       -1043.119
   2738955.663 9   2121360.92547  22524978.200    22524979.0214   22524985.1224
     -2399.838       -1870.004
  -1805599.991 9  -1389178.22848  20507744.769    20507745.7594   20507752.3444
      1101.475         858.292
  -4916550.413 9  -3812490.66646  23879994.398    23879996.2254   23880006.0764
      3507.046        2732.763
   1702111.670 9   1320638.46246  24181060.039    24181060.5624   24181069.7934
     -1550.405       -1208.108
  -2018578.979 9  -1563233.86748  21705091.210    21705092.1664   21705099.2564
      1238.753         965.262
   4583646.310 9   3541584.26247  22756745.919    22756746.5914   22756754.0734
     -3537.649       -2756.610
 97  4 22 15 46 30.0000000  0  8 19 31 27  7 10  2 18 26             0.000043322
   1567069.177 9   1215975.64448  21075901.671    21075903.1024   21075909.7184
     -1350.721       -1052.510
   2811202.854 9   2177657.42447  22538726.431    22538727.2244   22538733.3254
     -2416.696       -1883.140
  -1838494.573 9  -1414810.37348  20501485.106    20501486.1354   20501492.7224
      1091.223         850.304
  -5021708.219 9  -3894431.74346  23859983.406    23859985.2194   23859995.0614
      3503.006        2729.615
   1748843.638 9   1357052.91646  24189953.022    24189953.3694   24189962.5784
     -1565.037       -1219.509
  -2055597.520 9  -1592079.47448  21698046.783    21698047.7824   21698054.8564
      1229.057         957.707
   4689908.579 9   3624385.96047  22776967.002    22776967.6704   22776975.2094
     -3546.601       -2763.585
  -2540518.39319  -1723111.50556  25328267.549    25328270.0445   25328276.3165
      3205.507        2497.798
 97  4 22 15 47  0.0000000  0  8 19 31 27  7 10  2 18 26             0.000044285
   1607768.160 9   1247689.12848  21083646.455    21083647.8834   21083654.4834
     -1362.760       -1061.891
   2883949.911 9   2234343.42547  22552569.662    22552570.5564   22552576.6264
     -2433.413       -1896.166
  -1871076.115 9  -1440198.58648  20495285.045    20495286.0894   20495292.6884
      1080.499         841.947
  -5126731.175 9  -3976267.74146  23839998.363    23839999.9874   23840009.8034
      3498.208        2725.876
   1796002.048 9   1393799.66846  24198926.973    24198927.4024   24198936.6574
     -1579.013       -1230.400
  -2092332.249 9  -1620703.92148  21691056.476    21691057.3894   21691064.4524
      1219.683         950.402
   4796440.764 9   3707397.99247  22797239.202    22797240.0914   22797247.6774
     -3555.895       -2770.827
  -2636562.587 8  -1797951.01645  25309991.670    25309993.4334   25310000.0034
      3197.193        2491.319
 97  4 22 15 47 30.0000000  0  8 19 31 27  7 10  2 18 26             0.000045279
   1648828.118 9   1279683.88748  21091459.946    21091461.3514   21091467.9484
     -1374.638       -1071.146
   2957204.101 9   2291424.60747  22566509.399    22566510.3724   22566516.4474
     -2450.309       -1909.332
  -1903332.232 9  -1465333.22348  20489146.947    20489147.9634   20489154.5654
      1070.005         833.770
  -5231601.071 9  -4057984.47646  23820042.799    23820043.9254   23820053.7404
      3493.068        2721.871
   1843572.534 9   1430867.50546  24207979.229    24207979.8324   24207989.0984
     -1592.527       -1240.930
  -2128775.814 9  -1649101.48848  21684121.425    21684122.4014   21684129.4704
      1209.597         942.543
   4903255.888 9   3790630.48947  22817565.471    22817566.3574   22817573.9794
     -3565.066       -2777.974
  -2732356.769 9  -1872595.93946  25291762.248    25291764.5674   25291770.9414
      3189.320        2485.184
 97  4 22 15 48  0.0000000  0  8 19 31 27  7 10  2 18 26             0.000046306
   1690247.198 9   1311958.48548  21099341.854    21099343.1844   21099349.7454
     -1386.304       -1080.237
   3030963.968 9   2348899.81747  22580545.427    22580546.4314   22580552.4754
     -2467.038       -1922.367
  -1935274.578 9  -1490223.36348  20483068.495    20483069.5374   20483076.1444
      1059.502         825.586
  -5336308.539 9  -4139574.64146  23800117.494    23800118.5754   23800128.5164
      3487.521        2717.549
   1891556.477 9   1468257.50146  24217110.681    24217110.9904   24217120.1864
     -1606.137       -1251.535
  -2164902.933 9  -1677252.47448  21677246.674    21677247.6454   21677254.7164
      1199.074         934.343
   5010337.499 9   3874070.64547  22837942.509    22837943.3324   22837951.0224
     -3573.574       -2784.603
  -2827914.657 8  -1947056.69345  25273578.012    25273580.5584   25273586.8304
      3181.546        2479.127
 97  4 22 15 48 30.0000000  0  8 19 31 27  7 10  2 18 26             0.000047365
   1732010.651 9   1344501.42448  21107289.109    21107290.5224   21107297.0994
     -1397.734       -1089.143
   3105232.131 9   2406771.09647  22594678.221    22594679.2294   22594685.2684
     -2484.347       -1935.855
  -1966889.445 9  -1514858.32648  20477052.536    20477053.4554   20477060.0374
      1048.263         816.828
  -5440842.495 9  -4221029.61846  23780225.384    23780226.3794   23780236.2844
      3481.506        2712.862
   1939946.359 9   1505963.81046  24226318.813    24226319.2754   24226328.5884
     -1619.781       -1262.167
  -2200709.891 9  -1705153.98848  21670432.860    21670433.8054   21670440.8634
      1188.169         925.846
   5117682.283 9   3957715.85747  22858369.543    22858370.4134   22858378.1344
     -3582.696       -2791.711
  -2923243.796 9  -2021339.05346  25255437.758    25255439.9694   25255446.6564
      3173.982        2473.233
 97  4 22 15 49  0.0000000  0  8 19 31 27  7 10  2 18 26             0.000048471
   1774105.722 9   1377302.76948  21115299.628    21115300.9464   21115307.5534
     -1408.692       -1097.682
   3180028.688 9   2465054.12147  22608911.692    22608912.5424   22608918.5924
     -2502.196       -1949.763
  -1998173.665 9  -1539235.63748  20471099.285    20471100.2904   20471106.8444
      1037.375         808.344
  -5545199.799 9  -4302346.92346  23760366.936    23760367.8514   23760377.6434
      3475.746        2708.374
   1988738.923 9   1543983.91846  24235604.107    24235604.3344   24235613.4914
     -1633.234       -1272.650
  -2236188.646 9  -1732799.75548  21663681.494    21663682.3844   21663689.4544
      1177.075         917.201
   5225299.405 9   4041573.29747  22878848.502    22878849.2714   22878857.0994
     -3591.803       -2798.808
  -3018359.067 8  -2095454.99045  25237338.746    25237340.2874   25237346.6184
      3167.297        2468.024
 97  4 22 15 49 30.0000000  0  8 19 31 27  7 10  2 18 26             0.000049629
   1816534.161 9   1410363.87448  21123373.471    21123374.8464   21123381.4784
     -1419.303       -1105.950
   3255359.171 9   2523753.17747  22623246.749    22623247.4844   22623253.5184
     -2519.332       -1963.116
  -2029133.126 9  -1563359.89648  20465207.849    20465208.9094   20465215.4584
      1027.238         800.445
  -5649392.048 9  -4383535.63046  23740539.337    23740540.6664   23740550.4124
      3471.032        2704.700
   2037942.907 9   1582324.61246  24244967.498    24244967.5844   24244976.7234
     -1646.548       -1283.024
  -2271331.537 9  -1760183.81348  21656994.105    21656994.9034   21657001.9484
      1166.438         908.913
   5333184.724 9   4125639.70847  22899378.084    22899379.1964   22899387.0974
     -3599.975       -2805.175
  -3113284.664 8  -2169422.94546  25219275.207    25219276.4814   25219283.0234
      3161.615        2463.596
 97  4 22 15 50  0.0000000  0  8 19 31 27  7 10  2 18 26             0.000050832
   1859291.488 9   1443681.26148  21131509.939    21131511.3244   21131517.9414
     -1431.007       -1115.070
   3331207.297 9   2582855.60447  22637680.198    22637680.9304   22637686.9224
     -2537.235       -1977.066
  -2059776.295 9  -1587237.68748  20459376.753    20459377.7344   20459384.2444
      1015.571         791.354
  -5753438.150 9  -4464610.44846  23720740.083    23720741.2514   23720751.0154
      3465.511        2700.398
   2087553.522 9   1620982.15046  24254408.044    24254408.2624   24254417.4224
     -1660.551       -1293.936
  -2306156.543 9  -1787320.17048  21650367.291    21650367.9604   21650374.9904
      1155.413         900.322
   5441331.050 9   4209909.49847  22919957.841    22919958.8224   22919966.7284
     -3609.832       -2812.856
  -3208027.836 8  -2243248.80545  25201246.639    25201247.3894   25201254.1914
      3154.811        2458.294
 97  4 22 15 50 30.0000000  0  8 19 31 27  7 10  2 18 26             0.000052080
   1902391.836 9   1477265.93048  21139711.751    21139713.0814   21139719.6864
     -1442.542       -1124.059
   3407585.314 9   2642370.93647  22652214.420    22652215.1564   22652221.1834
     -2554.689       -1990.667
  -2090069.000 9  -1610842.39048  20453612.317    20453613.2294   20453619.7314
      1003.997         782.335
  -5857336.666 9  -4545570.26046  23700968.723    23700970.0364   23700979.8114
      3460.975        2696.864
   2137563.829 9   1659951.15846  24263924.883    24263925.0074   24263934.2094
     -1673.530       -1304.049
  -2340666.704 9  -1814211.19148  21643800.273    21643800.9374   21643807.9504
      1145.287         892.431
   5549770.974 9   4294408.07547  22940593.326    22940594.3014   22940602.2834
     -3619.364       -2820.284
  -3302575.458 8  -2316922.31445  25183254.531    25183255.7184   25183262.2094
      3148.436        2453.327
 97  4 22 15 51  0.0000000  0  8 19 31 27  7 10  2 18 26             0.000053361
   1945853.965 9   1511132.51248  21147982.266    21147983.6644   21147990.2494
     -1455.113       -1133.854
   3484480.732 9   2702289.43347  22666847.039    22666847.8364   22666853.9114
     -2571.591       -2003.837
  -2120017.573 9  -1634178.94048  20447913.308    20447914.2224   20447920.6934
       992.495         773.373
  -5961091.570 9  -4626418.17246  23681224.852    23681226.0774   23681235.8884
      3455.975        2692.968
   2187960.880 9   1699221.50846  24273515.072    24273515.3774   24273524.5334
     -1686.377       -1314.060
  -2374871.226 9  -1840864.05748  21637291.285    21637292.0584   21637299.0504
      1135.040         884.447
   5658491.217 9   4379125.07447  22961282.351    22961283.1404   22961291.1554
     -3628.580       -2827.465
  -3396929.149 8  -2390444.61346  25165299.069    25165300.7214   25165307.4694
      3141.924        2448.252
 97  4 22 15 51 30.0000000  0  8 19 31 27  7 10  2 18 26             0.000054663
   1989701.674 9   1545299.54248  21156326.251    21156327.6264   21156334.2254
     -1467.350       -1143.390
   3561877.130 9   2762598.30247  22681575.137    22681575.9044   22681581.9874
     -2587.724       -2016.408
  -2149613.976 9  -1657241.06748  20442281.256    20442282.2434   20442288.6854
       981.154         764.536
  -6064703.941 9  -4707155.02146  23661508.131    23661509.2194   23661518.9914
      3452.029        2689.893
   2238737.248 9   1738787.45546  24283177.495    24283177.8364   24283186.9834
     -1698.060       -1323.164
  -2408771.839 9  -1867280.11048  21630840.235    21630840.9874   21630847.9834
      1125.522         877.030
   5767478.122 9   4464049.86747  22982022.027    22982022.7174   22982030.7784
     -3636.677       -2833.774
  -3491080.742 8  -2463809.47145  25147382.761    25147384.3094   25147391.2734
      3135.396        2443.166
 97  4 22 15 52  0.0000000  0  8 19 31 27  7 10  2 18 26             0.000055976
   2033926.367 9   1579760.32848  21164741.942    21164743.3434   21164749.9344
     -1480.524       -1153.655
   3639768.762 9   2823293.06947  22696397.422    22696398.2094   22696404.2974
     -2604.910       -2029.800
  -2178862.240 9  -1680031.91948  20436715.615    20436716.5044   20436722.9264
       969.065         755.115
  -6168188.400 9  -4787792.18946  23641816.189    23641816.7244   23641826.4584
      3447.291        2686.201
   2289871.313 9   1778632.07246  24292908.129    24292908.3784   24292917.7034
     -1710.413       -1332.789
  -2442378.584 9  -1893467.16848  21624445.183    21624445.8484   21624452.8484
      1115.299         869.064
   5876714.851 9   4549169.32247  23002809.137    23002809.8384   23002817.9084
     -3645.300       -2840.494
  -3585030.490 8  -2537017.14645  25129504.514    25129506.2894   25129513.0534
      3128.294        2437.632
 97  4 22 15 52 30.0000000  0  8 19 31 27  7 10  2 18 26             0.000057308
   2078534.019 9   1614519.52248  21173230.516    21173231.9144   21173238.5134
     -1493.321       -1163.627
   3718166.811 9   2884382.44547  22711315.962    22711316.8934   22711323.0044
     -2621.609       -2042.812
  -2207761.558 9  -1702550.86548  20431216.281    20431217.1814   20431223.5604
       957.676         746.241
  -6271543.547 9  -4868328.59946  23622147.985    23622148.8484   23622158.5494
      3442.846        2682.737
   2341366.129 9   1818757.83246  24302707.381    24302707.6174   24302716.9534
     -1722.712       -1342.373
  -2475692.766 9  -1919426.26048  21618105.676    21618106.3724   21618113.3664
      1105.663         861.556
   5986182.855 9   4634468.98647  23023640.217    23023640.9164   23023649.0594
     -3652.500       -2846.104
  -3678780.701 8  -2610069.17846  25111664.401    25111666.0194   25111673.1514
      3121.501        2432.338
 97  4 22 15 53  0.0000000  0  8 19 31 27  7 10  2 18 26             0.000058668
   2123521.302 9   1649574.53048  21181791.334    21181792.7234   21181799.3344
     -1505.483       -1173.104
   3797059.398 9   2945857.16947  22726328.782    22726329.6844   22726335.8574
     -2637.813       -2055.439
  -2236332.613 9  -1724814.02048  20425779.334    20425780.3124   20425786.6574
       947.093         737.995
  -6374761.288 9  -4948757.93346  23602506.439    23602507.1164   23602516.8424
      3438.585        2679.417
   2393240.822 9   1859179.58146  24312578.383    24312579.0524   24312588.3684
     -1735.286       -1352.171
  -2508717.451 9  -1945159.77148  21611821.191    21611821.9524   21611828.9774
      1096.233         854.208
   6095859.611 9   4719931.31547  23044511.053    23044511.7664   23044519.9304
     -3659.325       -2851.422
  -3772314.400 8  -2682952.62645  25093865.105    25093867.3264   25093874.3694
      3114.198        2426.648
 97  4 22 15 53 30.0000000  0  8 19 31 27  7 10  2 18 26             0.000060065
   2168859.258 9   1684902.79648  21190418.860    21190420.2544   21190426.8784
     -1517.080       -1182.140
   3876448.121 9   3007718.50947  22741435.979    22741436.9184   22741443.0774
     -2655.122       -2068.926
  -2264577.339 9  -1746822.89848  20420404.574    20420405.5284   20420411.8814
       935.753         729.158
  -6477845.437 9  -5029083.17346  23582890.119    23582890.8034   23582900.5204
      3433.409        2675.384
   2445495.581 9   1899897.48246  24322521.996    24322522.9524   24322532.3254
     -1748.382       -1362.376
  -2541460.924 9  -1970674.15348  21605590.250    21605591.0634   21605598.1174
      1086.455         846.588
   6205747.797 9   4805558.38847  23065422.225    23065422.8664   23065431.0304
     -3666.842       -2857.279
  -3865619.828 8  -2755658.14645  25076109.128    25076111.9324   25076118.7744
      3105.987        2420.250
 97  4 22 15 54  0.0000000  0  8 19 31 27  7 10  2 18 26             0.000061512
   2214517.191 9   1720480.39148  21199107.258    21199108.6874   21199115.3054
     -1526.992       -1189.864
   3956340.814 9   3069972.52947  22756639.043    22756639.9944   22756646.1784
     -2671.349       -2081.571
  -2292510.445 9  -1768588.95148  20415089.038    20415090.0584   20415096.3904
       926.129         721.659
  -6580785.283 9  -5109295.97146  23563301.082    23563301.9614   23563311.6744
      3428.808        2671.798
   2498122.251 9   1940905.20146  24332536.321    24332537.4844   24332546.8484
     -1760.241       -1371.616
  -2573940.038 9  -1995982.54348  21599409.630    21599410.4784   21599417.5614
      1078.564         840.439
   6315843.033 9   4891346.80947  23086372.800    23086373.3754   23086381.5044
     -3673.015       -2862.090
  -3958708.345 8  -2828194.67446  25058396.094    25058397.8874   25058404.7424
      3099.548        2415.232
 97  4 22 15 54 30.0000000  0  8 19 31 27  7 10  2 18 26             0.000063015
   2260476.561 9   1756292.87348  21207853.061    21207854.4694   21207861.0994
     -1536.949       -1197.622
   4036730.038 9   3132613.48247  22771936.755    22771937.5474   22771943.7794
     -2687.822       -2094.407
  -2320138.977 9  -1790117.67648  20409831.568    20409832.5504   20409838.8664
       915.824         713.629
  -6683561.313 9  -5189381.10646  23543743.328    23543744.2884   23543753.9714
      3422.895        2667.191
   2551115.706 9   1982198.72546  24342620.851    24342621.8864   24342631.2624
     -1772.602       -1381.248
  -2606166.513 9  -2021094.07348  21593277.179    21593277.9574   21593285.0544
      1069.733         833.558
   6426132.572 9   4977286.62847  23107360.092    23107360.8304   23107368.9384
     -3679.727       -2867.320
  -4051578.737 8  -2900561.18345  25040721.840    25040725.0114   25040732.0724
      3091.766        2409.168
 97  4 22 15 55  0.0000000  0  8 19 31 27  7 10  2 18 26             0.000064570
   2306729.291 9   1792333.94148  21216654.653    21216656.0804   21216662.7214
     -1546.579       -1205.126
   4117607.882 9   3195635.15847  22787327.165    22787328.0694   22787334.3924
     -2704.228       -2107.191
  -2347466.348 9  -1811411.72848  20404631.407    20404632.3544   20404638.6464
       905.611         705.671
  -6786157.603 9  -5269326.18646  23524219.662    23524220.7234   23524230.4864
      3416.720        2662.379
   2604469.892 9   2023773.34946  24352773.982    24352774.8544   24352784.3624
     -1784.411       -1390.450
  -2638122.913 9  -2045995.15648  21587196.068    21587196.8564   21587203.9754
      1060.534         826.390
   6536624.303 9   5063383.99247  23128385.829    23128386.7404   23128394.9274
     -3686.692       -2872.747
  -4144221.524 8  -2972750.44646  25023092.534    25023095.9084   25023102.8364
      3084.411        2403.437
 97  4 22 15 55 30.0000000  0  8 19 31 27  7 10  2 18 26             0.000066177
   2353267.322 9   1828597.32348  21225510.629    21225511.9894   21225518.6424
     -1556.268       -1212.676
   4198980.143 9   3259042.09947  22802811.690    22802812.6764   22802819.0014
     -2720.707       -2120.031
  -2374474.661 9  -1832457.16248  20399491.905    20399492.8604   20399499.1494
       894.755         697.212
  -6888568.305 9  -5349126.64246  23504730.779    23504732.5764   23504742.2774
      3410.581        2657.595
   2658178.762 9   2065624.32246  24362994.620    24362995.3664   24363004.9144
     -1796.300       -1399.714
  -2669798.421 9  -2070677.35648  21581168.496    21581169.2514   21581176.3304
      1050.958         818.928
   6647326.391 9   5149645.27347  23149451.760    23149452.7474   23149460.9134
     -3693.586       -2878.119
  -4236652.001 9  -3044774.10345  25005503.156    25005506.6384   25005513.8224
      3077.652        2398.170
 97  4 22 15 56  0.0000000  0  8 19 31 27  7 10  2 18 26             0.000067824
   2400106.874 9   1865095.66348  21234423.822    21234425.2924   21234431.9224
     -1566.556       -1220.693
   4280833.815 9   3322824.16847  22818387.844    22818388.9394   22818395.2584
     -2736.293       -2132.176
  -2401159.010 9  -1853250.15748  20394414.056    20394415.0194   20394421.2994
       884.038         688.861
  -6990805.705 9  -5428792.06146  23485275.902    23485277.4074   23485287.0874
      3405.203        2653.405
   2712237.615 9   2107748.01446  24373281.887    24373282.4764   24373291.9874
     -1807.734       -1408.624
  -2701184.108 9  -2095133.72248  21575196.000    21575196.7694   21575203.7954
      1041.233         811.350
   6758235.343 9   5236067.75247  23170557.330    23170558.1114   23170566.2634
     -3700.387       -2883.418
  -4328883.596 8  -3116643.01345  24987952.471    24987955.8614   24987962.9384
      3070.915        2392.921
 97  4 22 15 56 30.0000000  0  8 19 31 27  7 10  2 18 26             0.000069494
   2447274.351 9   1901849.52348  21243399.543    21243401.0024   21243407.6254
     -1578.006       -1229.615
   4363152.064 9   3386968.22747  22834052.526    22834053.5974   22834059.9204
     -2751.520       -2144.042
  -2427510.448 9  -1873783.74548  20389399.501    20389400.5034   20389406.7524
       872.633         679.974
  -7092882.668 9  -5508332.45346  23465851.240    23465852.7524   23465862.4104
      3399.901        2649.274
   2766641.968 9   2150140.93046  24383634.832    24383635.4704   24383644.8414
     -1819.287       -1417.626
  -2732259.837 9  -2119348.56748  21569282.453    21569283.2314   21569290.2324
      1030.512         802.996
   6869363.656 9   5322661.15647  23191704.241    23191705.2254   23191713.3624
     -3708.304       -2889.588
  -4420896.720 8  -3188341.45246  24970442.594    24970446.0494   24970453.4174
      3063.258        2386.954
 97  4 22 15 57  0.0000000  0  8 19 31 27  7 10  2 18 26             0.000071172
   2494780.470 9   1938867.26148  21252439.667    21252441.1284   21252447.7684
     -1589.136       -1238.288
   4445913.709 9   3451457.80747  22849801.648    22849802.6464   22849808.9294
     -2766.059       -2155.371
  -2453519.822 9  -1894050.78748  20384450.013    20384451.0824   20384457.3054
       861.081         670.972
  -7194810.033 9  -5587756.27946  23446454.767    23446456.5254   23446466.1494
      3395.075        2645.513
   2821380.584 9   2192794.33146  24394051.650    24394051.8514   24394061.3404
     -1829.947       -1425.933
  -2763029.640 9  -2143325.02548  21563427.200    21563427.9604   21563434.9374
      1020.812         795.438
   6980725.286 9   5409436.36247  23212895.783    23212896.7104   23212904.8204
     -3715.920       -2895.522
  -4512696.307 8  -3259873.67445  24952973.951    24952977.4004   24952984.6514
      3056.570        2381.743
 97  4 22 15 57 30.0000000  0  8 19 31 27  7 10  2 18 26             0.000072844
   2542626.217 9   1976149.64948  21261544.447    21261545.8834   21261552.5524
     -1600.820       -1247.392
   4529104.094 9   3516281.46047  22865632.170    22865633.2964   22865639.5564
     -2780.073       -2166.291
  -2479180.258 9  -1914045.92548  20379567.042    20379568.0604   20379574.2894
       849.557         661.992
  -7296595.953 9  -5667069.88146  23427085.577    23427087.2334   23427096.8844
      3390.388        2641.861
   2876432.018 9   2235691.48546  24404528.184    24404527.8874   24404537.4174
     -1840.147       -1433.881
  -2793518.080 9  -2167082.23548  21557625.358    21557626.2094   21557633.1764
      1011.731         788.362
   7092314.570 9   5496388.96447  23234130.594    23234131.5024   23234139.5424
     -3723.469       -2901.404
  -4604288.430 9  -3331244.12946  24935544.798    24935547.9374   24935555.2294
      3049.479        2376.217
 97  4 22 15 58  0.0000000  0  8 19 31 27  7 10  2 18 26             0.000074504
   2590829.326 9   2013710.49548  21270717.152    21270718.6364   21270725.3354
     -1612.541       -1256.525
   4612712.030 9   3581430.49347  22881542.277    22881543.3614   22881549.6104
     -2793.816       -2176.999
  -2504500.067 9  -1933775.64648  20374748.841    20374749.8794   20374756.1074
       838.518         653.391
  -7398231.616 9  -5746266.39546  23407745.275    23407746.5594   23407756.2034
      3385.119        2637.755
   2931777.032 9   2278817.37946  24415059.778    24415059.6444   24415069.3464
     -1849.642       -1441.279
  -2823743.053 9  -2190634.14948  21551873.784    21551874.6064   21551881.5454
      1003.348         781.830
   7204129.312 9   5583517.24747  23255408.653    23255409.2444   23255417.3024
     -3730.689       -2907.030
  -4695653.439 8  -3402437.65745  24918158.564    24918161.7484   24918169.0574
      3041.612        2370.087
 97  4 22 15 58 30.0000000  0  8 19 31 27  7 10  2 18 26             0.000076161
   2639378.523 9   2051541.01848  21279955.735    21279957.2544   21279963.9564
     -1623.879       -1265.360
   4696734.965 9   3646902.89047  22897531.333    22897532.4384   22897538.6814
     -2807.863       -2187.945
  -2529485.442 9  -1953244.76548  20369994.211    20369995.3504   20370001.5474
       827.109         644.500
  -7499692.082 9  -5825326.39746  23388438.349    23388439.1934   23388448.7844
      3378.881        2632.894
   2987418.372 9   2322174.16346  24425647.790    24425647.9024   24425657.7104
     -1859.888       -1449.263
  -2853717.214 9  -2213990.62648  21546169.937    21546170.7244   21546177.6444
       994.997         775.322
   7316158.765 9   5670812.83447  23276727.153    23276727.8384   23276735.9034
     -3737.870       -2912.626
  -4786777.588 9  -3473443.53846  24900819.788    24900821.4524   24900828.6964
      3033.430        2363.712
 97  4 22 15 59  0.0000000  0  8 19 31 27  7 10  2 18 26             0.000077824
   2688240.308 9   2089615.12348  21289253.787    21289255.3744   21289262.0624
     -1634.157       -1273.369
   4781173.388 9   3712699.05747  22913599.364    22913600.5344   22913606.7634
     -2822.142       -2199.072
  -2554138.636 9  -1972455.04648  20365302.942    20365304.0204   20365310.1924
       815.958         635.811
  -7600971.326 9  -5904245.18646  23369165.648    23369166.3714   23369175.9454
      3372.684        2628.065
   3043358.198 9   2365763.55546  24436292.954    24436293.0284   24436302.6814
     -1870.067       -1457.195
  -2883456.293 9  -2237163.91948  21540510.855    21540511.5604   21540518.4774
       987.009         769.098
   7428380.056 9   5758257.91247  23298082.161    23298082.9044   23298090.9964
     -3744.011       -2917.411
  -4877673.843 8  -3544271.71745  24883523.726    24883524.3824   24883531.8104
      3025.848        2357.804
 97  4 22 15 59 30.0000000  0  8 19 31 27  7 10  2 18 26             0.000079502
   2737409.464 9   2127928.73548  21298610.419    21298611.9724   21298618.6544
     -1644.145       -1281.152
   4866039.023 9   3778828.09347  22929748.838    22929749.9704   22929756.1884
     -2835.906       -2209.797
  -2578467.596 9  -1991412.67448  20360673.388    20360674.3854   20360680.5514
       805.721         627.835
  -7702081.644 9  -5983032.34747  23349924.685    23349925.6984   23349935.1884
      3367.765        2624.232
   3099606.137 8   2409593.02446  24446996.494    24446996.6644   24447006.3124
     -1880.155       -1465.056
  -2912954.615 9  -2260149.61148  21534897.485    21534898.2364   21534905.1244
       979.175         762.994
   7540773.624 9   5845837.23447  23319470.121    23319470.7544   23319478.8394
     -3749.158       -2921.422
  -4968344.446 9  -3614924.25746  24866269.886    24866270.3934   24866277.5134
      3018.605        2352.160
 97  4 22 16  0  0.0000000  0  8 19 31 27  7 10  2 18 26             0.000081231
   2786885.519 9   2166481.49248  21308025.337    21308026.9934   21308033.6744
     -1654.450       -1289.182
   4951335.776 9   3845293.09047  22945980.199    22945981.4054   22945987.6514
     -2850.853       -2221.444
  -2602474.739 9  -2010119.53948  20356104.960    20356105.9864   20356112.1594
       794.454         619.055
  -7803029.798 9  -6061693.15647  23330714.875    23330715.8634   23330725.3584
      3361.901        2619.663
   3156178.616 9   2453675.39246  24457761.824    24457762.1374   24457771.8444
     -1891.651       -1474.014
  -2942193.462 9  -2282933.11548  21529333.549    21529334.2544   21529341.1284
       969.673         755.589
   7653329.709 9   5933543.18047  23340888.612    23340889.5634   23340897.7074
     -3754.827       -2925.839
  -5058789.821 9  -3685401.06845  24849057.821    24849059.0984   24849066.4364
      3010.785        2346.066
 97  4 22 16  0 30.0000000  0  8 19 31 27  7 10  2 18 26             0.000082999
   2836692.169 9   2205291.85448  21317503.326    21317504.9074   21317511.5834
     -1665.127       -1297.502
   5037107.650 9   3912128.30047  22962301.950    22962303.2914   22962309.4724
     -2866.461       -2233.606
  -2626120.805 9  -2028545.04648  20351605.371    20351606.2974   20351612.4834
       782.736         609.924
  -7903788.045 9  -6140205.98647  23311541.327    23311542.2094   23311551.6184
      3356.313        2615.309
   3213122.584 9   2498047.21746  24468597.950    24468598.2454   24468608.0604
     -1903.498       -1483.245
  -2971116.667 9  -2305470.66448  21523829.629    21523830.3584   21523837.2174
       959.404         747.588
   7766082.304 9   6021402.25947  23362345.111    23362345.8004   23362353.9004
     -3761.008       -2930.656
  -5148990.486 8  -3755687.41445  24831893.522    24831894.6214   24831901.6874
      3003.349        2340.272
 97  4 22 16  1  0.0000000  0  8 19 31 27  7 10  2 18 26             0.000084781
   2886808.466 9   2244343.50448  21327040.141    21327041.7664   21327048.4394
     -1676.137       -1306.081
   5123325.947 9   3979311.34847  22978708.781    22978710.1384   22978716.2904
     -2881.366       -2245.220
  -2649432.055 9  -2046709.65348  20347169.341    20347170.3104   20347176.4964
       771.562         601.217
  -8004402.713 9  -6218606.93247  23292394.812    23292395.8544   23292405.1934
      3351.453        2611.522
   3270395.197 9   2542675.16646  24479496.662    24479496.9454   24479506.6444
     -1914.397       -1491.738
  -2999750.263 9  -2327782.54548  21518380.821    21518381.5464   21518388.4104
       949.683         740.013
   7878999.580 9   6109389.65347  23383832.569    23383833.3754   23383841.4384
     -3766.731       -2935.115
  -5238991.488 9  -3825817.99046  24814766.760    24814767.8094   24814775.0794
      2996.794        2335.164
 97  4 22 16  1 30.0000000  0  8 19 31 27  7 10  2 18 26             0.000086575
   2937269.873 9   2283664.06248  21336642.692    21336644.3054   21336650.9724
     -1687.965       -1315.297
   5209982.059 9   4046835.59047  22995199.044    22995200.2884   22995206.4674
     -2895.837       -2256.496
  -2672416.317 9  -2064619.46848  20342795.533    20342796.5554   20342802.7254
       760.628         592.697
  -8104874.515 9  -6296896.54947  23273275.062    23273276.6374   23273285.9334
      3346.321        2607.523
   3327983.468 9   2587549.07246  24490455.250    24490455.6954   24490465.4374
     -1924.913       -1499.932
  -3028097.439 9  -2349871.23648  21512986.478    21512987.2704   21512994.1294
       940.104         732.548
   7992095.271 9   6197516.07347  23405353.978    23405354.9024   23405362.9004
     -3773.108       -2940.084
  -5328792.054 8  -3895792.50245  24797677.951    24797679.4624   24797686.7464
      2989.718        2329.650
 97  4 22 16  2  0.0000000  0  8 19 31 27  7 10  2 18 26             0.000088386
   2988068.490 9   2323247.38448  21346309.498    21346311.0454   21346317.6794
     -1698.728       -1323.684
   5297064.512 9   4114692.04447  23011770.463    23011771.5074   23011777.7194
     -2909.859       -2267.423
  -2695085.704 9  -2082283.92848  20338481.693    20338482.7144   20338488.8674
       750.435         584.755
  -8205184.931 9  -6375060.41247  23254186.970    23254188.1894   23254197.4254
      3340.751        2603.183
   3385873.823 8   2632658.34846  24501471.550    24501471.9584   24501481.6154
     -1934.719       -1507.573
  -3056177.089 9  -2371751.47348  21507643.103    21507643.9024   21507650.7624
       931.843         726.111
   8105368.400 9   6285780.76347  23426909.221    23426910.1834   23426918.1874
     -3778.572       -2944.342
  -5418389.688 9  -3965608.82146  24780627.499    24780629.5004   24780636.9054
      2983.146        2324.529
 97  4 22 16  2 30.0000000  0  8 19 31 27  7 10  2 18 26             0.000090221
   3039195.955 9   2363086.95248  21356038.765    21356040.3434   21356046.9594
     -1709.516       -1332.090
   5384569.082 9   4182877.39547  23028422.187    23028423.0824   23028429.3174
     -2923.578       -2278.113
  -2717445.223 9  -2099706.93048  20334226.790    20334227.8244   20334233.9574
       740.376         576.916
  -8305324.200 9  -6453090.92147  23235131.080    23235132.3314   23235141.5194
      3335.417        2599.026
   3444062.030 9   2677999.72446  24512544.173    24512544.8694   24512554.4604
     -1944.234       -1514.988
  -3084011.800 9  -2393440.84248  21502346.357    21502347.1154   21502353.9724
       924.174         720.135
   8218817.025 9   6374182.17947  23448498.315    23448498.8294   23448506.8754
     -3784.322       -2948.822
  -5507779.134 8  -4035262.91645  24763617.680    24763619.5344   24763626.7934
      2976.171        2319.094
 97  4 22 16  3  0.0000000  0  8 19 31 27  7 10  2 18 26             0.000092080
   3090651.592 9   2403182.23548  21365830.513    21365832.0274   21365838.6424
     -1720.195       -1340.412
   5472477.751 9   4251377.63447  23045150.548    23045151.5894   23045157.8314
     -2936.484       -2288.169
  -2739496.388 9  -2116889.65548  20330030.592    20330031.6444   20330037.7774
       730.261         569.034
  -8405292.365 9  -6530988.09647  23216107.926    23216109.0074   23216118.0854
      3329.589        2594.485
   3502540.425 9   2723567.22746  24523672.898    24523673.1604   24523682.5504
     -1953.708       -1522.370
  -3111614.981 9  -2414949.80048  21497093.522    21497094.3744   21497101.2484
       916.574         714.214
   8332436.031 9   6462716.37646  23470119.135    23470119.8704   23470127.9174
     -3789.767       -2953.065
  -5596933.734 9  -4104734.07546  24746652.571    24746653.8234   24746661.0934
      2968.074        2312.785
 97  4 22 16  3 30.0000000  0  8 19 31 27  7 10  2 18 26             0.000093962
   3142421.237 9   2443522.20348  21375681.985    21375683.4784   21375690.0914
     -1730.599       -1348.519
   5560780.270 9   4320184.79847  23061954.170    23061955.0364   23061961.2924
     -2950.106       -2298.784
  -2761234.939 9  -2133828.79148  20325893.842    20325894.9434   20325901.0604
       719.131         560.362
  -8505072.523 9  -6608738.78247  23197120.577    23197121.4094   23197130.4284
      3322.646        2589.075
   3561308.095 9   2769360.13646  24534855.568    24534856.3304   24534865.8034
     -1963.907       -1530.317
  -3138977.559 9  -2436271.28048  21491886.675    21491887.4664   21491894.3044
       907.813         707.387
   8446213.770 9   6551374.25646  23491770.528    23491771.1174   23491779.1674
     -3794.960       -2957.112
  -5685829.983 9  -4174003.81346  24729736.603    24729737.3864   24729744.8224
      2958.606        2305.407
 97  4 22 16  4  0.0000000  0  8 19 31 27  7 10  2 18 26             0.000095867
   3194487.770 9   2484093.51548  21385590.026    21385591.4414   21385598.0254
     -1740.399       -1356.155
   5649489.531 9   4389308.86947  23078834.981    23078835.8654   23078842.0894
     -2963.557       -2309.265
  -2782638.590 9  -2150506.95948  20321820.938    20321821.9944   20321828.0994
       707.848         551.570
  -8604648.944 9  -6686330.70447  23178171.378    23178172.5814   23178181.5284
      3316.086        2583.963
   3620371.567 9   2815383.54446  24546095.425    24546095.7574   24546105.3434
     -1973.499       -1537.791
  -3166077.981 9  -2457388.47948  21486729.658    21486730.4254   21486737.2364
       898.980         700.504
   8560123.049 9   6640134.63546  23513446.405    23513447.3964   23513455.4794
     -3798.967       -2960.234
  -5774450.395 9  -4243058.73946  24712872.537    24712873.4784   24712880.6764
      2949.648        2298.427
 97  4 22 16  4 30.0000000  0  8 19 31 27  7 10  2 18 26             0.000097779
   3246849.724 9   2524895.02548  21395554.173    21395555.6084   21395562.1524
     -1750.483       -1364.013
   5738588.866 9   4458736.91347  23095790.023    23095790.9414   23095797.1384
     -2976.474       -2319.330
  -2803697.518 9  -2166916.51648  20317813.565    20317814.6494   20317820.7224
       695.987         542.327
  -8704040.084 9  -6763778.26447  23159257.871    23159259.0364   23159267.8724
      3309.805        2579.069
   3679710.898 9   2861621.90746  24557387.566    24557387.6824   24557397.3084
     -1982.286       -1544.638
  -3192908.270 9  -2478295.18648  21481623.954    21481624.7974   21481631.6034
       889.725         693.292
   8674158.489 9   6728993.31846  23535146.383    23535147.6764   23535155.7774
     -3803.267       -2963.585
  -5862803.040 9  -4311904.89146  24696059.079    24696060.4224   24696067.8094
      2940.622        2291.394
 97  4 22 16  5  0.0000000  0  8 19 31 27  7 10  2 18 26             0.000099689
   3299515.263 9   2565933.08748  21405576.059    21405577.5564   21405584.0884
     -1760.730       -1371.997
   5828072.144 9   4528464.12547  23112818.160    23112819.0954   23112825.2754
     -2989.380       -2329.387
  -2824396.255 9  -2183045.40748  20313874.733    20313875.8404   20313881.9124
       683.812         532.841
  -8803231.587 9  -6841070.25847  23140382.390    23140383.4514   23140392.3074
      3302.704        2573.535
   3739302.459 9   2908056.78946  24568727.447    24568727.7154   24568737.3354
     -1990.572       -1551.095
  -3219460.927 9  -2498985.56048  21476570.986    21476571.9994   21476578.7984
       880.282         685.934
   8788307.084 9   6817940.17946  23556868.328    23556869.5464   23556877.6144
     -3806.905       -2966.419
  -5950895.877 9  -4380548.72646  24679295.895    24679297.0944   24679304.2674
      2932.364        2284.959
 97  4 22 16  5 30.0000000  0  8 19 31 27  7 10  2 18 26             0.000101589
   3352487.118 9   2607209.84448  21415656.236    21415657.7784   21415664.3224
     -1770.948       -1379.959
   5917941.569 9   4598492.24247  23129919.917    23129920.6974   23129926.8394
     -3002.315       -2339.466
  -2844739.832 9  -2198897.54248  20310003.572    20310004.6144   20310010.6704
       672.260         523.839
  -8902222.957 9  -6918206.30947  23121545.230    23121545.9514   23121554.7544
      3296.574        2568.759
   3799128.909 9   2954674.75346  24580111.883    24580112.5084   24580121.9704
     -1998.180       -1557.023
  -3245742.245 9  -2519464.49848  21471569.928    21471570.8254   21471577.6244
       871.631         679.193
   8902561.534 9   6906969.51446  23578610.118    23578611.4724   23578619.6114
     -3810.413       -2969.153
  -6038757.351 9  -4449012.18546  24662576.747    24662577.6024   24662584.7344
      2924.980        2279.205
 97  4 22 16  6  0.0000000  0  8 19 31 27  7 10  2 18 26             0.000103489
   3405785.481 9   2648741.01848  21425798.574    21425800.0914   21425806.6494
     -1782.038       -1388.601
   6008207.725 9   4668829.48747  23147096.839    23147097.7664   23147103.9474
     -3015.154       -2349.471
  -2864733.016 9  -2214476.64948  20306198.979    20306200.0434   20306206.1024
       660.954         515.029
  -9001024.478 9  -6995194.42747  23102743.972    23102744.6154   23102753.3704
      3290.425        2563.968
   3859195.205 9   3001479.58446  24591542.218    24591542.7884   24591552.3154
     -2006.134       -1563.221
  -3271763.033 9  -2539740.42748  21466618.328    21466619.1964   21466626.0074
       863.416         672.792
   9016948.935 9   6996102.44646  23600377.261    23600378.7414   23600386.9324
     -3815.386       -2973.028
  -6126396.656 9  -4517302.57646  24645899.841    24645900.4624   24645907.5564
      2917.866        2273.662
 97  4 22 16  6 30.0000000  0  9 19 31 27 15  7 10  2 18 26          0.000105396
   3459420.089 9   2690534.20048  21436004.926    21436006.3994   21436012.9544
     -1792.552       -1396.794
   6098855.514 9   4739464.09947  23164346.552    23164347.4444   23164353.6614
     -3027.340       -2358.966
  -2884385.163 9  -2229790.01148  20302459.294    20302460.3754   20302466.4314
       650.142         506.604
   -160322.09218   -117403.29755  24886493.606           0.0005   24886507.2125
      2200.543        1714.709
  -9099629.943 9  -7072029.76647  23083979.803    23083980.5584   23083989.3094
      3284.223        2559.135
   3919513.641 9   3048480.86146  24603020.512    24603021.0734   24603030.7504
     -2014.158       -1569.474
  -3297537.560 9  -2559824.46748  21461713.571    21461714.4604   21461721.2784
       855.775         666.838
   9131494.547 9   7085358.66846  23622174.516    23622176.1044   23622184.3964
     -3819.959       -2976.591
  -6213816.724 9  -4585422.12246  24629263.900    24629265.0914   24629271.9044
      2911.009        2268.319
 97  4 22 16  7  0.0000000  0  9 19 31 27 15  7 10  2 18 26          0.000107316
   3513380.314 9   2732581.11748  21446273.213    21446274.6754   21446281.2574
     -1804.062       -1405.763
   6189887.425 9   4810398.04147  23181669.304    23181670.1934   23181676.4674
     -3040.933       -2369.558
  -2903707.982 9  -2244846.75448  20298782.346    20298783.3774   20298789.3874
       638.819         497.781
   -226222.142 8   -168753.88145  24873952.196    24873957.2735   24873965.2464
      2193.498        1709.219
  -9198041.575 9  -7148714.07847  23065252.210    23065253.3944   23065262.0984
      3277.438        2553.848
   3980095.695 9   3095687.58646  24614549.129    24614549.5794   24614559.1134
     -2024.106       -1577.225
  -3323068.700 9  -2579718.85348  21456855.264    21456856.0294   21456862.8704
       846.965         659.973
   9246186.700 9   7174729.06746  23643999.450    23644001.3944   23644009.6594
     -3825.683       -2981.052
  -6301013.856 9  -4653367.92346  24612671.032    24612672.0444   24612678.9274
      2902.807        2261.928
 97  4 22 16  7 30.0000000  0  9 19 31 27 15  7 10  2 18 26          0.000109263
   3567668.792 9   2774883.80948  21456604.026    21456605.4444   21456612.0374
     -1815.199       -1414.441
   6281312.118 9   4881638.05047  23199066.892    23199067.7734   23199074.0874
     -3054.308       -2379.980
  -2922711.334 9  -2259654.56348  20295166.115    20295167.1874   20295173.1924
       627.852         489.235
   -291925.976 8   -219951.62855  24861451.600    24861452.7954   24861461.3635
      2186.650        1703.883
  -9296280.202 9  -7225263.58247  23046558.066    23046559.1214   23046567.8014
      3271.541        2549.253
   4040962.933 9   3143116.51846  24626132.101    24626132.3404   24626141.8604
     -2033.932       -1584.882
  -3348357.888 9  -2599424.71148  21452042.894    21452043.6424   21452050.5094
       838.845         653.645
   9361042.438 9   7264226.93446  23665855.948    23665857.8174   23665866.0924
     -3831.433       -2985.532
  -6387974.412 9  -4721129.41146  24596123.012    24596124.1324   24596130.7744
      2894.333        2255.324
 97  4 22 16  8  0.0000000  0  9 19 31 27 15  7 10  2 18 26          0.000111227
   3622264.660 9   2817426.02748  21466993.316    21466994.7174   21467001.3404
     -1824.637       -1421.795
   6373110.084 9   4953168.91547  23216535.311    23216536.3474   23216542.6834
     -3065.846       -2388.971
  -2941394.964 9  -2274213.23748  20291610.741    20291611.8194   20291617.8234
       617.394         481.086
   -357441.644 8   -271002.70945  24848984.827    24848986.0615   24848994.2184
      2180.934        1699.429
  -9394350.283 9  -7301681.75447  23027895.974    23027897.0194   23027905.6644
      3266.181        2545.076
   4102112.527 9   3190765.46246  24637768.340    24637768.8304   24637778.2914
     -2042.757       -1591.759
  -3373422.868 9  -2618955.85748  21447273.172    21447273.9484   21447280.8214
       831.917         648.247
   9476044.366 9   7353838.71446  23687740.497    23687742.0774   23687750.3504
     -3835.345       -2988.581
  -6474694.847 9  -4788703.77746  24579620.096    24579621.8124   24579628.5234
      2886.866        2249.506
 97  4 22 16  8 30.0000000  0  9 19 31 27 15  7 10  2 18 26          0.000113198
   3677144.436 9   2860189.47548  21477436.629    21477438.0324   21477444.6614
     -1833.196       -1428.464
   6465266.891 9   5024979.40447  23234072.293    23234073.2484   23234079.5614
     -3077.273       -2397.875
  -2959737.943 9  -2288506.46948  20288120.268    20288121.2704   20288127.3014
       606.359         472.488
   -422775.264 8   -321911.96145  24836552.222    24836553.2414   24836561.3894
      2175.443        1695.150
  -9492244.685 9  -7377963.03047  23009267.275    23009268.3174   23009276.9384
      3261.107        2541.122
   4163529.374 9   3238622.65746  24649455.897    24649456.1814   24649465.7784
     -2050.602       -1597.872
  -3398260.067 9  -2638309.51148  21442546.775    21442547.5764   21442554.4794
       824.834         642.728
   9591168.682 9   7443545.86146  23709648.442    23709649.6534   23709657.9064
     -3838.587       -2991.107
  -6561170.672 9  -4856087.53846  24563163.910    24563165.9984   24563172.6104
      2879.118        2243.468
 97  4 22 16  9  0.0000000  0  9 19 31 27 15  7 10  2 18 26          0.000115166
   3732298.607 9   2903166.73348  21487932.110    21487933.5414   21487940.1954
     -1843.866       -1436.779
   6557780.963 9   5097068.27347  23251677.221    23251678.1064   23251684.4044
     -3090.422       -2408.121
  -2977738.905 9  -2302533.19148  20284694.817    20284695.8044   20284701.8554
       593.655         462.588
   -487933.088 8   -372684.21745  24824153.213    24824154.0494   24824162.4384
      2168.261        1689.554
  -9589982.081 9  -7454121.97047  22990668.359    22990669.4624   22990678.0694
      3254.481        2535.959
   4225181.064 9   3286662.88046  24661188.229    24661188.1824   24661197.7654
     -2059.656       -1604.927
  -3422879.301 9  -2657493.32248  21437861.844    21437862.6774   21437869.5754
       816.468         636.209
   9706400.352 9   7533336.65846  23731576.471    23731577.6694   23731585.8624
     -3843.531       -2994.959
  -6647396.217 9  -4923276.25146  24546755.694    24546757.8674   24546764.5404
      2869.318        2235.832
 97  4 22 16  9 30.0000000  0  9 19 31 27 15  7 10  2 18 26          0.000117137
   3787745.963 9   2946372.45148  21498483.390    21498484.8464   21498491.4974
     -1853.264       -1444.102
   6650652.115 9   5169435.37247  23269350.019    23269350.8774   23269357.2194
     -3101.745       -2416.944
  -2995384.337 9  -2316282.88248  20281337.047    20281338.0164   20281344.0724
       582.084         453.572
   -552899.897 8   -423307.64645  24811790.370    24811791.1994   24811799.7754
      2162.099        1684.752
  -9687538.771 9  -7530140.10147  22972103.665    22972104.9784   22972113.5604
      3248.487        2531.289
   4287065.816 9   3334884.69246  24672964.479    24672964.6344   24672974.0204
     -2066.682       -1610.402
  -3447283.496 9  -2676509.57448  21433218.016    21433218.7164   21433225.6004
       809.728         630.957
   9821742.506 9   7623213.54446  23753525.715    23753526.6664   23753534.8224
     -3846.700       -2997.428
  -6733352.571 9  -4990255.23846  24530398.532    24530400.9154   24530407.5644
      2860.428        2228.905
 97  4 22 16 10  0.0000000  0  9 19 31 27 15  7 10  2 18 26          0.000119116
   3843488.282 9   2989807.99848  21509090.811    21509092.2844   21509098.9444
     -1862.864       -1451.582
   6743879.345 9   5242079.95047  23287090.637    23287091.4674   23287097.7804
     -3113.212       -2425.879
  -3012666.766 9  -2329749.71448  20278048.280    20278049.2834   20278055.3394
       570.360         444.436
   -617660.128 8   -473770.12045  24799466.781    24799467.7304   24799476.2874
      2155.360        1679.501
  -9784891.912 9  -7605999.62847  22953577.985    22953579.2864   22953587.8364
      3242.039        2526.264
   4349180.160 9   3383285.40246  24684784.100    24684784.6834   24684794.1604
     -2074.056       -1616.148
  -3471458.680 9  -2695347.37648  21428617.687    21428618.3574   21428625.2144
       802.151         625.053
   9937198.318 9   7713178.99646  23775496.360    23775497.2644   23775505.4004
     -3850.064       -3000.050
  -6819026.640 9  -5057014.24146  24514095.493    24514097.6764   24514104.4294
      2851.412        2221.879
 97  4 22 16 10 30.0000000  0  9 19 31 27 15  7 10  2 18 26          0.000121104
   3899538.074 9   3033483.14948  21519756.772    21519758.2384   21519764.8814
     -1873.542       -1459.903
   6837458.141 9   5314998.47347  23304898.317    23304898.9314   23304905.2074
     -3125.168       -2435.196
  -3029601.612 9  -2342945.69748  20274825.636    20274826.7064   20274832.7604
       559.160         435.709
   -682214.984 9   -524072.56645  24787182.216    24787183.1774   24787191.7404
      2148.390        1674.070
  -9882048.643 9  -7681706.09947  22935089.498    22935090.9694   22935099.5724
      3235.370        2521.068
   4411519.618 9   3431861.52446  24696647.225    24696647.4674   24696656.9604
     -2081.657       -1622.070
  -3495402.395 9  -2714004.80248  21424061.249    21424062.0664   21424068.8884
       794.440         619.044
  10052759.653 9   7803226.67146  23797487.268    23797487.9684   23797496.1534
     -3853.687       -3002.873
  -6904422.185 9  -5123556.22346  24497845.211    24497847.4794   24497854.1354
      2841.875        2214.448
 97  4 22 16 11  0.0000000  0  9 19 31 27 15  7 10  2 18 26          0.000123100
   3955899.467 9   3077401.10148  21530482.066    21530483.4904   21530490.1294
     -1884.023       -1468.070
   6931375.652 9   5388180.92347  23322770.287    23322770.8134   23322777.1234
     -3136.431       -2443.972
  -3046229.069 9  -2355902.15848  20271661.485    20271662.5714   20271668.6454
       549.095         427.866
   -746570.603 9   -574219.75646  24774935.886    24774936.8054   24774945.1474
      2141.793        1668.930
  -9979018.975 9  -7757267.33047  22916636.802    22916638.0754   22916646.6804
      3228.987        2516.094
   4474075.514 9   3480606.23746  24708551.126    24708551.6404   24708561.3144
     -2089.040       -1627.823
  -3519136.458 9  -2732498.87048  21419544.790    21419545.6514   21419552.4614
       787.492         613.630
  10168406.625 9   7893341.07646  23819494.279    23819494.9364   23819503.1504
     -3856.331       -3004.933
  -6989549.536 9  -5189889.23846  24481645.973    24481648.2824   24481654.8874
      2833.093        2207.605
 97  4 22 16 11 30.0000000  0  9 19 31 27 15  7 10  2 18 26          0.000125118
   4012581.719 9   3121569.07048  21541268.343    21541269.8094   21541276.4354
     -1894.837       -1476.496
   7025650.060 9   5461641.48047  23340710.064    23340710.6764   23340716.9824
     -3148.667       -2453.507
  -3062543.202 9  -2368614.46848  20268557.048    20268558.1324   20268564.1834
       538.347         419.491
   -810713.521 9   -624201.21646  24762729.819    24762730.8174   24762739.1614
      2134.388        1663.159
 -10075781.816 9  -7832666.87347  22898223.210    22898224.6194   22898233.2364
      3221.850        2510.532
   4536868.826 9   3529536.10146  24720500.253    24720501.1004   24720510.4154
     -2097.213       -1634.192
  -3542642.737 9  -2750815.44148  21415071.723    21415072.5624   21415079.3414
       779.489         607.394
  10284150.295 9   7983530.82446  23841519.626    23841520.3014   23841528.5454
     -3860.073       -3007.849
  -7074408.412 9  -5256013.00046  24465498.127    24465500.0434   24465506.8224
      2823.988        2200.510
 97  4 22 16 12  0.0000000  0  9 19 31 27 15  7 10  2 18 26          0.000127167
   4069602.121 9   3166000.53548  21552118.993    21552120.4824   21552127.0834
     -1905.966       -1485.168
   7120305.938 9   5535399.28547  23358722.213    23358723.1214   23358729.3994
     -3161.022       -2463.134
  -3078516.545 9  -2381061.22948  20265517.486    20265518.5204   20265524.5624
       527.105         410.731
   -874622.072 9   -674000.05446  24750568.538    24750569.4014   24750577.6744
      2126.903        1657.327
 -10172320.761 9  -7907891.96247  22879852.623    22879853.8084   22879862.4224
      3214.684        2504.948
   4599918.149 9   3578665.33546  24732498.194    24732498.9704   24732508.4564
     -2105.428       -1640.593
  -3565888.558 9  -2768929.05548  21410648.198    21410649.0494   21410655.7904
       770.920         600.717
  10400019.585 9   8073818.45546  23863569.155    23863569.6564   23863577.8084
     -3863.774       -3010.733
  -7158981.137 9  -5321913.84546  24449404.421    24449406.4184   24449413.0814
      2814.915        2193.440
 97  4 22 16 12 30.0000000  0  9 19 31 27 15  7 10  2 18 26          0.000129231
   4126948.026 9   3210685.64148  21563031.676    21563033.0934   21563039.6724
     -1916.843       -1493.644
   7215323.202 9   5609438.68047  23376803.338    23376804.2994   23376810.6044
     -3173.539       -2472.888
  -3094161.262 9  -2393251.91848  20262540.331    20262541.4524   20262547.4684
       515.862         401.970
   -938319.113 9   -723634.06646  24738447.394    24738448.2444   24738456.5384
      2119.506        1651.563
 -10268651.254 9  -7982954.60947  22861521.291    22861522.6714   22861531.2994
      3207.283        2499.182
   4663197.238 9   3627973.60046  24744540.064    24744540.6664   24744550.2754
     -2113.069       -1646.547
  -3588888.174 9  -2786850.82348  21406271.541    21406272.3764   21406279.1344
       762.354         594.042
  10515986.434 9   8164182.10446  23885636.514    23885637.4504   23885645.6764
     -3867.358       -3013.526
  -7243299.388 9  -5387616.33146  24433358.939    24433361.1354   24433367.9924
      2806.203        2186.652
 97  4 22 16 13  0.0000000  0  9 19 31 27 15  7 10  2 18 26          0.000131306
   4184607.909 9   3255615.39548  21574003.966    21574005.4234   21574012.0224
     -1927.159       -1501.682
   7310706.471 9   5683763.29547  23394954.435    23394955.1524   23394961.5024
     -3185.518       -2482.222
  -3109464.617 9  -2405176.61248  20259628.295    20259629.3344   20259635.3734
       504.173         392.862
  -1001794.769 9   -773095.56746  24726368.388    24726369.3134   24726377.4674
      2112.152        1645.833
 -10364764.883 9  -8057848.27447  22843231.240    22843232.8024   22843241.4564
      3200.204        2493.665
   4726695.328 9   3677452.57946  24756623.412    24756624.2314   24756633.4854
     -2120.279       -1652.165
  -3611630.583 9  -2804572.16948  21401943.843    21401944.6224   21401951.3894
       753.708         587.305
  10632054.043 9   8254624.26746  23907723.157    23907724.4624   23907732.7864
     -3870.627       -3016.073
  -7327365.805 9  -5453122.64446  24417361.713    24417363.8374   24417370.6684
      2798.040        2180.291
 97  4 22 16 13 30.0000000  0  9 19 31 27 15  7 10  2 18 26          0.000133386
   4242579.777 9   3300788.25748  21585035.636    21585037.1374   21585043.7814
     -1937.652       -1509.859
   7406446.315 9   5758365.74547  23413172.991    23413173.9524   23413180.1824
     -3197.063       -2491.218
  -3124410.139 9  -2416822.47248  20256784.245    20256785.3204   20256791.3614
       491.989         383.368
  -1065049.653 9   -822385.04246  24714331.307    24714332.2964   24714340.4804
      2104.749        1640.064
 -10460662.536 9  -8132573.64947  22824982.334    22824983.9804   22824992.6714
      3192.940        2488.005
   4790417.351 9   3727105.95346  24768749.605    24768750.0694   24768759.6294
     -2127.837       -1658.055
  -3634109.607 9  -2822088.27748  21397666.113    21397666.9694   21397673.7694
       744.958         580.487
  10748229.693 9   8345150.61846  23929830.720    23929832.0124   23929840.3744
     -3874.428       -3019.035
  -7411184.213 9  -5518435.65746  24401411.680    24401413.7284   24401420.6644
      2789.653        2173.756
 97  4 22 16 14  0.0000000  0  9 19 31 27 15  7 10  2 18 26          0.000135462
   4300864.804 9   3346205.13848  21596126.932    21596128.4384   21596135.0914
     -1947.945       -1517.879
   7502521.683 9   5833229.62647  23431455.495    23431456.5014   23431462.6904
     -3207.852       -2499.625
  -3138990.195 9  -2428183.55748  20254009.808    20254010.8434   20254016.8814
       480.035         374.053
  -1128086.314 9   -871504.45346  24702335.868    24702336.7624   24702344.9014
      2097.683        1634.558
 -10556345.125 9  -8207131.44747  22806774.895    22806776.1594   22806784.8394
      3185.889        2482.511
   4854355.413 9   3776927.78346  24780916.650    24780917.2364   24780926.5934
     -2134.586       -1663.314
  -3656334.958 9  -2839406.72148  21393436.814    21393437.6184   21393444.4454
       736.868         574.183
  10864505.860 9   8435755.28546  23951957.043    23951958.8094   23951967.1514
     -3877.178       -3021.178
  -7494760.669 9  -5583560.15546  24385508.239    24385509.6234   24385516.6444
      2782.139        2167.901
 97  4 22 16 14 30.0000000  0  9 19 31 27 15  7 10  2 18 26          0.000137520
   4359449.394 9   3391855.45048  21607275.273    21607276.7284   21607283.4074
     -1956.936       -1524.885
   7598910.935 9   5908338.12247  23449797.725    23449798.8034   23449804.9714
     -3217.662       -2507.269
  -3153210.306 9  -2439264.16448  20251303.801    20251304.8654   20251310.9044
       468.552         365.105
  -1190906.318 9   -920455.04946  24690381.488    24690382.3684   24690390.6284
      2090.842        1629.228
 -10651806.586 9  -8281516.93047  22788608.981    22788610.4344   22788619.0894
      3178.781        2476.972
   4918493.076 9   3826905.11046  24793121.671    24793122.0754   24793131.5314
     -2140.762       -1668.126
  -3678326.050 9  -2856542.62348  21389251.981    21389252.8544   21389259.7064
       729.922         568.770
  10980864.523 9   8526424.24546  23974099.834    23974101.2184   23974109.6154
     -3879.493       -3022.982
  -7578103.842 9  -5648502.86246  24369648.109    24369649.9034   24369657.0294
      2774.507        2161.954
 97  4 22 16 15  0.0000000  0  9 19 31 27 15  7 10  2 18 26          0.000139587
   4418309.180 9   3437720.19448  21618475.887    21618477.4004   21618484.0644
     -1966.781       -1532.557
   7695597.019 9   5983677.90747  23468196.627    23468197.6444   23468203.7264
     -3228.006       -2515.329
  -3167071.492 9  -2450065.08748  20248666.157    20248667.1954   20248673.2274
       455.872         355.225
  -1253510.674 9   -969237.58846  24678468.229    24678469.0954   24678477.4244
      2083.005        1623.121
 -10747045.430 9  -8355728.94747  22770485.415    22770487.0454   22770495.6874
      3170.747        2470.712
   4982831.410 9   3877038.77446  24805364.576    24805365.3194   24805374.9274
     -2148.291       -1673.993
  -3700112.572 9  -2873519.12148  21385106.176    21385107.0234   21385113.8524
       722.829         563.243
  11097299.435 9   8617152.61446  23996256.992    23996258.1814   23996266.5904
     -3882.592       -3025.396
  -7661200.196 9  -5713253.26746  24353835.672    24353837.1974   24353844.3314
      2765.441        2154.889
 97  4 22 16 15 30.0000000  0  9 19 31 27 15  7 10  2 18 26          0.000141631
   4477453.296 9   3483806.49948  21629730.704    21629732.1604   21629738.8504
     -1976.432       -1540.077
   7792584.186 9   6059252.28747  23486652.415    23486653.6704   23486659.7944
     -3238.317       -2523.364
  -3180565.494 9  -2460579.88848  20246098.324    20246099.3474   20246105.3824
       443.376         345.488
  -1315889.629 9  -1017844.49246  24666597.927    24666598.7754   24666607.0484
      2075.142        1616.994
 -10842046.885 9  -8429755.98647  22752407.248    22752408.8724   22752417.4544
      3162.335        2464.157
   5047380.554 9   3927336.71246  24817648.001    24817648.5794   24817658.2524
     -2155.112       -1679.308
  -3721703.629 9  -2890343.30648  21380997.568    21380998.3684   21381005.2224
       716.278         558.139
  11213816.588 9   8707945.07546  24018429.807    24018430.6974   24018439.2704
     -3885.503       -3027.665
  -7744030.012 9  -5777795.95246  24338073.719    24338075.1114   24338082.4404
      2756.137        2147.639
 97  4 22 16 16  0.0000000  0  9 19 31 27 15  7 10  2 18 26          0.000143670
   4536859.749 9   3530097.22048  21641035.392    21641036.8394   21641043.5354
     -1984.548       -1546.401
   7889873.558 9   6135062.14047  23505166.167    23505167.1914   23505173.3964
     -3248.131       -2531.011
  -3193704.701 9  -2470818.23448  20243598.022    20243599.0324   20243605.0664
       432.187         336.769
  -1378046.961 9  -1066278.69746  24654769.815    24654770.6214   24654778.9094
      2068.116        1611.519
 -10936812.393 9  -8503599.17047  22734374.019    22734375.5324   22734384.0974
      3154.860        2458.332
   5112100.306 9   3977767.62446  24829963.867    24829964.2684   24829974.0954
     -2160.086       -1683.184
  -3743113.677 9  -2907026.44948  21376923.347    21376924.1824   21376931.0584
       710.441         553.590
  11330389.853 9   8798781.24546  24040613.098    24040613.8934   24040622.5804
     -3886.487       -3028.431
  -7826592.662 9  -5842130.49046  24322362.829    24322363.9994   24322371.2594
      2747.397        2140.829
 97  4 22 16 16 30.0000000  0  9 19 31 27 15  7 10  2 18 26          0.000145702
   4596514.826 9   3576581.67048  21652387.302    21652388.8304   21652395.5624
     -1992.744       -1552.788
   7987457.164 9   6211101.30647  23523735.644    23523736.7694   23523742.9504
     -3257.984       -2538.689
  -3206504.857 9  -2480792.37648  20241162.294    20241163.2844   20241169.3044
       420.990         328.044
  -1439985.805 9  -1114542.65846  24642983.294    24642983.9674   24642992.2094
      2060.816        1605.831
 -11031352.072 9  -8577266.38647  22716383.736    22716385.2124   22716393.7534
      3147.738        2452.783
   5176985.060 9   4028327.12956  24842311.139    24842311.6565   24842321.2185
     -2165.861       -1687.684
  -3764335.141 9  -2923562.64148  21372885.031    21372885.8844   21372892.7574
       703.948         548.531
  11446995.287 9   8889642.47746  24062802.344    24062803.3654   24062811.9374
     -3887.524       -3029.239
  -7908877.780 9  -5906248.73046  24306703.856    24306705.6874   24306712.9394
      2738.094        2133.580
 97  4 22 16 17  0.0000000  0  9 19 31 27 15  7 10  2 18 26          0.000147729
   4656434.008 9   3623271.91948  21663789.629    21663791.0434   21663797.7974
     -2002.374       -1560.291
   8085346.208 9   6287378.45247  23542363.342    23542364.4814   23542370.6364
     -3268.347       -2546.764
  -3218972.549 9  -2490507.45948  20238789.753    20238790.7964   20238796.7874
       409.827         319.346
  -1501705.251 9  -1162635.65346  24631238.336    24631239.1754   24631247.3334
      2053.331        1599.998
 -11125693.047 9  -8650778.77047  22698431.454    22698432.6254   22698441.1944
      3141.321        2447.783
   5242043.899 8   4079022.21045  24854691.962    24854692.0054   24854701.6964
     -2171.717       -1692.247
  -3785353.286 9  -2939940.40448  21368885.326    21368886.2664   21368893.1504
       696.846         542.997
  11563630.310 9   8980526.77646  24084997.191    24084998.3554   24085006.9824
     -3888.639       -3030.108
  -7990888.599 9  -5970153.24746  24291097.976    24291099.5274   24291106.7794
      2728.914        2126.426
 97  4 22 16 17 30.0000000  0  9 19 31 27 15  7 10  2 18 26          0.000149748
   4716646.277 9   3670190.54748  21675247.601    21675249.0694   21675255.8214
     -2012.012       -1567.802
   8183550.797 9   6363901.49147  23561051.176    23561052.2494   23561058.3574
     -3278.855       -2554.952
  -3231106.777 9  -2499962.69948  20236480.703    20236481.7664   20236487.7514
       398.773         310.732
  -1563199.920 9  -1210553.50246  24619536.237    24619537.0784   24619545.1854
      2045.958        1594.253
 -11219845.159 9  -8724143.97447  22680514.713    22680516.0134   22680524.5984
      3135.198        2443.011
   5307265.276 9   4129843.98446  24867103.003    24867103.2445   24867112.9924
     -2176.754       -1696.172
  -3806147.246 9  -2956143.47548  21364928.386    21364929.2754   21364936.1724
       689.100         536.961
  11680298.114 9   9071436.61846  24107197.804    24107199.5384   24107208.3194
     -3889.478       -3030.762
  -8072628.831 9  -6033846.91946  24275543.214    24275544.8854   24275552.1124
      2720.024        2119.499
 97  4 22 16 18  0.0000000  0  9 19 31 27 15  7 10  2 18 26          0.000151751
   4777145.684 9   3717332.91948  21686760.256    21686761.7454   21686768.4944
     -2021.358       -1575.084
   8282059.384 9   6440661.40047  23579796.805    23579797.8624   23579803.9784
     -3288.314       -2562.323
  -3242901.059 9  -2509153.04648  20234236.465    20234237.4034   20234243.4114
       387.508         301.954
  -1624473.620 9  -1258299.17746  24607876.349    24607877.0194   24607885.1164
      2038.896        1588.750
 -11313821.139 9  -8797371.95047  22662631.735    22662632.9414   22662641.5284
      3129.769        2438.781
   5372651.164 9   4180793.88845  24879545.117    24879545.6984   24879555.4474
     -2182.407       -1700.577
  -3826698.867 9  -2972157.71448  21361017.589    21361018.3964   21361025.3244
       680.995         530.645
  11796986.716 9   9162362.64846  24129402.932    24129404.7774   24129413.5544
     -3889.833       -3031.039
  -8154099.805 9  -6097330.80246  24260040.153    24260041.5024   24260048.6234
      2711.391        2112.772
 97  4 22 16 18 30.0000000  0  9 19 31 27 15  7 10  2 18 26          0.000153721
   4837932.547 9   3764699.28748  21698327.703    21698329.1524   21698335.9054
     -2030.737       -1582.392
   8380846.677 9   6517638.48947  23598595.553    23598596.5414   23598602.6394
     -3297.394       -2569.398
  -3254352.330 9  -2518076.11048  20232057.284    20232058.2954   20232064.3194
       376.193         293.137
  -1685532.456 9  -1305877.42346  24596257.109    24596257.8844   24596265.9174
      2032.035        1583.404
 -11407633.504 9  -8870472.43147  22644779.678    22644781.0034   22644789.5514
      3124.670        2434.808
   5438209.810 9   4231878.51946  24892020.779    24892021.1494   24892031.0184
     -2187.726       -1704.722
  -3847013.644 9  -2987987.39748  21357151.767    21357152.6294   21357159.5584
       673.843         525.072
  11913691.440 9   9253301.24246  24151611.039    24151613.0414   24151621.8594
     -3890.215       -3031.336
  -8235315.482 9  -6160615.72846  24244585.132    24244586.6374   24244593.7924
      2703.430        2106.569
 97  4 22 16 19  0.0000000  0  9 19 31 27 15  7 10  2 18 26          0.000155648
   4899008.397 9   3812290.83948  21709950.128    21709951.5584   21709958.2774
     -2040.466       -1589.974
   8479918.728 9   6594837.47247  23617448.483    23617449.4084   23617455.4854
     -3307.000       -2576.883
  -3265451.374 9  -2526724.71448  20229945.163    20229946.2254   20229952.2304
       363.982         283.622
  -1746376.122 9  -1353288.01346  24584678.835    24584679.6864   24584687.6564
      2024.519        1577.547
 -11501280.079 9  -8943443.72447  22626959.482    22626960.6044   22626969.1524
      3118.447        2429.959
   5503925.325 9   4283085.34645  24904526.087    24904526.3494   24904536.0254
     -2192.933       -1708.779
  -3867124.944 9  -3003658.52448  21353324.781    21353325.5584   21353332.4984
       667.263         519.945
  12030416.557 9   9344255.72846  24173823.213    24173825.1934   24173834.1184
     -3891.234       -3032.130
  -8316280.186 9  -6223705.06346  24229178.007    24229179.5484   24229186.7144
      2694.421        2099.549
 97  4 22 16 19 30.0000000  0  9 19 31 27 15  7 10  2 18 26          0.000157566
   4960354.421 9   3860092.91148  21721623.902    21721625.3204   21721632.0524
     -2049.580       -1597.075
   8579262.650 9   6672248.29746  23636353.015    23636353.9564   23636359.9704
     -3316.392       -2584.202
  -3276187.876 9  -2535090.81548  20227902.032    20227903.1104   20227909.1464
       351.364         273.790
  -1806999.211 9  -1400526.72746  24573142.822    24573143.4664   24573151.4454
      2016.594        1571.372
 -11594727.886 9  -9016260.13047  22609176.581    22609178.0054   22609186.5674
      3110.934        2424.104
   5569786.346 9   4334405.50346  24917058.944    24917059.2794   24917069.3894
     -2198.130       -1712.829
  -3887043.945 9  -3019179.80848  21349534.363    21349535.0734   21349542.0404
       660.298         514.518
  12147161.485 9   9435225.65646  24196039.137    24196041.1864   24196049.9954
     -3892.133       -3032.831
  -8396972.553 9  -6286582.23646  24213822.745    24213824.4204   24213831.3904
      2684.704        2091.977
 97  4 22 16 20  0.0000000  0  9 19 31 27 15  7 10  2 18 26          0.000159465
   5021959.837 9   3908097.10748  21733347.100    21733348.4754   21733355.2174
     -2057.396       -1603.166
   8678876.738 9   6749869.62646  23655308.914    23655309.8614   23655315.9634
     -3324.427       -2590.463
  -3286559.512 9  -2543172.60648  20225928.429    20225929.4344   20225935.4774
       340.288         265.159
  -1867392.833 9  -1447586.64346  24561650.147    24561650.9074   24561658.9034
      2009.694        1565.995
 -11687958.774 9  -9088907.51447  22591435.626    22591436.7614   22591445.2424
      3104.509        2419.098
   5635794.417 9   4385840.35146  24929619.447    24929620.1294   24929630.3754
     -2202.144       -1715.956
  -3906772.004 9  -3034552.30848  21345780.182    21345780.9424   21345787.9034
       654.997         510.387
  12263924.499 9   9526209.66146  24218258.637    24218260.5454   24218269.4874
     -3892.092       -3032.799
  -8477383.573 9  -6349240.15446  24198521.422    24198522.7714   24198529.7144
      2676.190        2085.343
 97  4 22 16 20 30.0000000  0  9 19 31 27 15  7 10  2 18 26          0.000161353
   5083825.245 9   3956303.89948  21745119.830    21745121.1274   21745127.8504
     -2066.307       -1610.109
   8778756.216 9   6827697.77646  23674315.529    23674316.3604   23674322.4284
     -3333.668       -2597.663
  -3296591.992 9  -2550990.11948  20224019.393    20224020.3324   20224026.3644
       329.122         256.459
  -1927555.256 9  -1494466.39746  24550201.661    24550202.2944   24550210.3464
      2001.644        1559.723
 -11780969.136 9  -9161383.06447  22573736.369    22573737.4254   22573745.8584
      3096.736        2413.041
   5701927.151 9   4437372.27046  24942204.361    24942204.9994   24942215.4614
     -2206.133       -1719.065
  -3926328.535 9  -3049791.14948  21342058.612    21342059.4564   21342066.4224
       649.312         505.957
  12380715.311 9   9617215.33746  24240483.543    24240485.2504   24240494.2084
     -3893.389       -3033.810
  -8557517.513 9  -6411682.18146  24183272.205    24183273.7554   24183280.6614
      2666.610        2077.878
 97  4 22 16 21  0.0000000  0  9 19 31 27 15  7 10  2 18 26          0.000163238
   5145938.213 9   4004703.59348  21756939.483    21756940.8504   21756947.5724
     -2074.632       -1616.596
   8878892.737 9   6905726.19446  23693370.795    23693371.7014   23693377.7944
     -3342.063       -2604.205
  -3306303.854 9  -2558557.80148  20222171.273    20222172.2404   20222178.2464
       318.318         248.040
  -1987484.937 9  -1541164.77946  24538797.273    24538797.9404   24538806.0264
      1993.559        1553.423
 -11873750.906 9  -9233680.47847  22556080.502    22556081.5974   22556090.0014
      3088.491        2406.616
   5768168.232 9   4488988.61645  24954809.952    24954810.4474   24954820.7844
     -2210.172       -1722.212
  -3945724.126 9  -3064904.58748  21338367.847    21338368.6104   21338375.5884
       643.498         501.427
  12497537.748 9   9708245.64146  24262714.375    24262715.9544   24262724.8964
     -3894.823       -3034.927
  -8637368.625 9  -6473903.81146  24168077.493    24168078.5714   24168085.4464
      2656.691        2070.149
 97  4 22 16 21 30.0000000  0  9 19 31 27 15  7 10  2 18 26          0.000165123
   5208300.041 9   4053297.19748  21768806.620    21768807.9574   21768814.6574
     -2083.390       -1623.421
   8979268.772 9   6983941.26246  23712471.781    23712472.6214   23712478.7574
     -3350.351       -2610.663
  -3315701.144 9  -2565880.36448  20220383.084    20220384.0074   20220390.0014
       307.615         239.700
  -2047172.453 9  -1587674.47346  24527439.223    24527439.7034   24527447.8614
      1985.060        1546.800
 -11966284.952 9  -9305784.86847  22538471.600    22538472.9344   22538481.3114
      3080.030        2400.023
   5834527.935 9   4540697.42546  24967438.047    24967438.3624   24967448.8904
     -2214.426       -1725.527
  -3964937.146 9  -3079875.76048  21334711.734    21334712.5314   21334719.4644
       636.885         496.274
  12614397.251 8   9799304.83746  24284951.940    24284953.6534   24284962.6524
     -3896.362       -3036.126
  -8716932.283 9  -6535901.46446  24152936.854    24152938.0944   24152944.9384
      2647.030        2062.621
 97  4 22 16 22  0.0000000  0  9 19 31 27 15  7 10  2 18 26          0.000167017
   5270937.076 9   4102105.25848  21780726.075    21780727.3964   21780734.0884
     -2091.964       -1630.102
   9079893.000 9   7062349.71746  23731620.035    23731620.7924   23731626.8944
     -3357.517       -2616.247
  -3324775.219 9  -2572951.07048  20218656.365    20218657.2804   20218663.2604
       297.732         231.999
  -2106599.987 9  -1633981.57946  24516130.378    24516130.9824   24516139.1374
      1977.210        1540.683
 -12058566.509 9  -9377692.52147  22520911.004    22520912.3184   22520920.6414
      3072.570        2394.210
   5901024.180 9   4592512.62246  24980092.020    24980092.1884   24980102.8324
     -2218.154       -1728.432
  -3983953.470 9  -3094693.66348  21331093.152    21331093.8524   21331100.7894
       631.262         491.892
  12731313.828 8   9890408.49546  24307200.409    24307202.2534   24307211.3284
     -3897.757       -3037.213
  -8796202.819 9  -6597670.70946  24137852.166    24137853.4824   24137860.3214
      2638.119        2055.677
 97  4 22 16 22 30.0000000  0  9 19 31 27 15  7 10  2 18 26          0.000168901
   5333834.117 9   4151115.91748  21792694.903    21792696.3484   21792703.0464
     -2101.064       -1637.193
   9180727.914 9   7140922.38546  23750808.259    23750809.1044   23750815.1194
     -3364.950       -2622.039
  -3333555.032 9  -2579792.48248  20216985.598    20216986.5374   20216992.5234
       287.556         224.070
  -2165791.746 9  -1680104.96546  24504866.405    24504867.1124   24504875.2754
      1969.010        1534.293
 -12150624.361 9  -9449425.85747  22503392.775    22503394.2314   22503402.5254
      3064.685        2388.066
   5967631.997 9   4644414.69646  24992767.050    24992767.3944   24992777.9274
     -2222.384       -1731.728
  -4002812.759 9  -3109389.20048  21327504.276    21327505.0344   21327511.9614
       626.103         487.872
  12848271.354 8   9981544.06446  24329456.512    24329458.6594   24329467.8394
     -3899.130       -3038.283
  -8875204.663 9  -6659230.58046  24122818.179    24122819.8674   24122826.7254
      2628.803        2048.418
 97  4 22 16 23  0.0000000  0  9 19 31 27 15  7 10  2 18 26          0.000170769
   5396989.928 9   4200328.21348  21804712.962    21804714.4814   21804721.2134
     -2109.686       -1643.911
   9281768.927 9   7219655.60446  23770035.957    23770036.5244   23770042.6274
     -3371.533       -2627.169
  -3342030.395 9  -2586396.65748  20215372.748    20215373.7164   20215379.7024
       277.183         215.987
  -2224752.655 9  -1726048.46746  24493646.330    24493647.1774   24493655.2594
      1961.507        1528.447
 -12242461.537 9  -9520987.23147  22485916.816    22485918.1304   22485926.3874
      3057.641        2382.577
   6034360.969 9   4696411.29846  25005465.510    25005465.6104   25005475.7634
     -2226.487       -1734.925
  -4021527.743 9  -3123972.29448  21323942.840    21323943.6864   21323950.6054
       621.316         484.142
  12965245.855 9  10072692.85546  24351715.619    24351718.2494   24351727.4024
     -3899.294       -3038.411
  -8953940.515 9  -6720583.16846  24107835.467    24107836.9224   24107843.7754
      2620.031        2041.583
 97  4 22 16 23 30.0000000  0  9 19 31 27 15  7 10  2 18 26          0.000172624
   5460440.166 9   4249769.93448  21816787.118    21816788.6704   21816795.4224
     -2120.600       -1652.416
   9383041.973 9   7298569.65746  23789307.487    23789308.1494   23789314.2984
     -3380.410       -2634.086
  -3350167.477 9  -2592737.23648  20213824.398    20213825.2824   20213831.2594
       264.877         206.398
  -2283464.093 9  -1771797.56446  24482473.788    24482474.7264   24482482.7684
      1952.308        1521.279
 -12334072.743 9  -9592372.53447  22468483.748    22468485.0934   22468493.3244
      3049.578        2376.294
   6101239.397 9   4748524.25946  25018191.796    25018192.0784   25018202.6754
     -2232.258       -1739.422
  -4040070.847 9  -3138421.45348  21320414.125    21320415.0254   21320421.9744
       614.585         478.897
  13082245.387 9  10163861.14846  24373980.212    24373982.6264   24373991.8024
     -3900.956       -3039.706
  -9032391.385 9  -6781713.72146  24092906.868    24092908.2544   24092915.0744
      2609.703        2033.535
 97  4 22 16 24  0.0000000  0  9 19 31 27 15  7 10  2 18 26          0.000174466
   5524198.970 9   4299452.09148  21828920.137    21828921.6004   21828928.3694
     -2130.563       -1660.179
   9484570.985 9   7377683.14046  23808627.559    23808628.5314   23808634.6674
     -3388.876       -2640.683
  -3357952.139 9  -2598803.20748  20212342.926    20212343.8884   20212349.9064
       253.461         197.502
  -2341921.258 9  -1817348.53246  24471349.776    24471350.6324   24471358.7264
      1944.224        1514.980
 -12425465.126 9  -9663587.33147  22451092.347    22451093.6854   22451101.8784
      3042.651        2370.897
   6168269.581 9   4800755.56245  25030947.042    25030947.6124   25030958.0964
     -2236.840       -1742.992
  -4058431.351 9  -3152728.33148  21316920.182    21316921.1284   21316928.0804
       608.821         474.406
  13199270.745 9  10255049.55846  24396249.166    24396251.9854   24396261.2074
     -3901.294       -3039.969
  -9110550.563 9  -6842616.96546  24078033.423    24078035.0224   24078041.8564
      2600.267        2026.182
 97  4 22 16 24 30.0000000  0  9 19 31 27 15  7 10  2 18 26          0.000176293
   5588254.696 9   4349365.61648  21841109.587    21841111.0294   21841117.7844
     -2140.426       -1667.864
   9586363.854 9   7457002.23646  23827997.955    23827999.1004   23828005.3154
     -3397.981       -2647.777
  -3365387.348 9  -2604596.87148  20210927.944    20210929.0084   20210935.0364
       241.451         188.144
  -2400134.184 9  -1862709.17146  24460272.462    24460273.0084   24460281.1454
      1935.860        1508.462
 -12516645.904 9  -9734637.23847  22433741.229    22433742.5384   22433750.7314
      3035.215        2365.102
   6235433.872 9   4853091.26545  25043727.913    25043728.4454   25043739.1274
     -2241.440       -1746.577
  -4076616.752 9  -3166898.76248  21313459.677    21313460.5504   21313467.5124
       602.680         469.621
  13316291.056 9  10346234.03446  24418517.493    24418520.3724   24418529.6004
     -3900.647       -3039.465
  -9188423.920 9  -6903297.48846  24063214.581    24063216.2444   24063223.1044
      2590.632        2018.674
 97  4 22 16 25  0.0000000  0  9 19 31 27 15  7 10  2 18 26          0.000178099
   5652604.628 9   4399508.39548  21853354.959    21853356.4824   21853363.2024
     -2149.520       -1674.951
   9688429.321 9   7536533.72346  23847420.606    23847421.5554   23847427.7934
     -3406.200       -2654.182
  -3372449.052 9  -2610099.49748  20209584.154    20209585.1854   20209591.2624
       229.460         178.800
  -2458092.902 9  -1907871.73746  24449243.064    24449243.8084   24449251.9144
      1928.023        1502.356
 -12607596.887 9  -9805508.08547  22416434.034    22416435.1494   22416443.3484
      3028.189        2359.628
   6302739.614 8   4905537.29846  25056536.244    25056536.5694   25056546.9914
     -2245.326       -1749.605
  -4094599.038 9  -3180910.92248  21310037.692    21310038.6344   21310045.5834
       596.178         464.554
  13433288.078 9  10437400.36446  24440782.691    24440784.3074   24440793.6064
     -3899.266       -3038.389
  -9266007.140 9  -6963751.93046  24048450.887    24048452.6924   24048459.5644
      2581.665        2011.687
 97  4 22 16 25 30.0000000  0  9 19 31 27 15  7 10  2 18 26          0.000179884
   5717243.371 9   4449876.22548  21865655.440    21865656.8834   21865663.5774
     -2159.169       -1682.469
   9790755.928 9   7616268.73546  23866892.528    23866893.8064   23866899.9054
     -3415.237       -2661.224
  -3379137.550 9  -2615311.30748  20208311.390    20208312.4374   20208318.4844
       216.850         168.974
  -2515789.834 9  -1952830.31646  24438263.533    24438264.4124   24438272.4724
      1918.772        1495.147
 -12698309.334 9  -9876193.05647  22399171.895    22399173.1104   22399181.3044
      3019.665        2352.986
   6370172.037 9   4958081.96246  25069368.439    25069368.6344   25069379.1194
     -2249.704       -1753.016
  -4112363.499 9  -3194753.34348  21306657.291    21306658.1524   21306665.0804
       588.555         458.614
  13550271.057 9  10528555.74746  24463043.850    24463045.5614   24463054.8494
     -3899.230       -3038.361
  -9343304.903 9  -7023983.93846  24033741.759    24033743.3294   24033750.2944
      2571.829        2004.023
 97  4 22 16 26  0.0000000  0  9 19 31 27 15  7 10  2 18 26          0.000181643
   5782137.891 9   4500443.36248  21878004.504    21878005.9444   21878012.5974
     -2167.254       -1688.769
   9893327.670 9   7696194.73146  23886411.365    23886412.6294   23886418.6704
     -3422.879       -2667.178
  -3385477.132 9  -2620251.24048  20207105.037    20207106.0374   20207112.0974
       205.578         160.191
  -2573231.228 9  -1997589.78046  24427332.638    24427333.5384   24427341.6684
      1910.402        1488.625
 -12788791.727 9  -9946698.77247  22381953.543    22381954.8734   22381963.0464
      3012.325        2347.266
   6437704.448 8   5010704.55545  25082219.372    25082219.6834   25082230.2134
     -2252.708       -1755.357
  -4129928.053 9  -3208439.99648  21303314.911    21303315.7004   21303322.6114
       582.256         453.706
  13667221.703 9  10619685.93246  24485298.591    24485300.6104   24485310.0534
     -3897.698       -3037.167
  -9420328.685 9  -7084002.45046  24019084.486    24019086.1934   24019093.2364
      2562.945        1997.100
 97  4 22 16 26 30.0000000  0  9 19 31 27 15  7 10  2 18 26          0.000183378
   5847284.869 9   4551207.21348  21890401.596    21890403.0664   21890409.7014
     -2175.592       -1695.266
   9996125.495 9   7776296.92046  23905973.235    23905974.4084   23905980.4944
     -3430.044       -2672.762
  -3391462.107 9  -2624914.85448  20205966.051    20205967.1164   20205973.1834
       193.522         150.796
  -2630404.883 9  -2042140.61746  24416453.006    24416453.7664   24416461.7984
      1901.292        1481.526
 -12879039.492 9 -10017021.65947  22364779.983    22364781.2294   22364789.4064
      3004.308        2341.019
   6505339.075 9   5063406.80446  25095089.786    25095090.2984   25095100.6894
     -2256.196       -1758.075
  -4147289.552 9  -3221968.42448  21300010.939    21300011.9084   21300018.7954
       575.345         448.321
  13784144.795 9  10710794.64446  24507548.326    24507550.5264   24507559.9524
     -3897.086       -3036.690
  -9497072.442 9  -7143802.76446  24004480.785    24004482.3844   24004489.3954
      2553.518        1989.754
 97  4 22 16 27  0.0000000  0  9 19 31 27 15  7 10  2 18 26          0.000185082
   5912671.724 9   4602157.98648  21902844.317    21902845.7794   21902852.4414
     -2183.633       -1701.532
  10099124.559 9   7856555.92446  23925573.165    23925574.4344   23925580.5234
     -3436.881       -2678.089
  -3397094.215 9  -2629303.50548  20204894.340    20204895.3754   20204901.4414
       181.778         141.645
  -2687313.063 9  -2086484.59746  24405623.674    24405624.4664   24405632.5344
      1892.427        1474.618
 -12969053.364 9 -10087162.29147  22347650.788    22347652.1144   22347660.2764
      2996.498        2334.934
   6573064.462 9   5116179.76545  25107977.323    25107977.8704   25107988.3484
     -2258.953       -1760.223
  -4164451.674 9  -3235341.49348  21296745.194    21296746.0934   21296752.9454
       568.776         443.202
  13901050.742 9  10801890.00046  24529795.738    24529797.2104   24529806.6344
     -3896.911       -3036.554
  -9573541.919 9  -7203389.35046  23989929.166    23989930.7974   23989937.7734
      2544.233        1982.519
 97  4 22 16 27 30.0000000  0  9 19 31 27 15  7 10  2 18 26          0.000186766
   5978305.685 9   4653301.30648  21915334.104    21915335.5414   21915342.2144
     -2191.787       -1707.886
  10202341.427 9   7936984.62346  23945214.821    23945215.9414   23945222.0294
     -3444.174       -2683.772
  -3402370.957 9  -2633415.25448  20203890.218    20203891.2384   20203897.3024
       170.115         132.557
  -2743945.248 9  -2130613.52246  24394846.968    24394847.7244   24394855.8234
      1883.248        1467.466
 -13058827.248 9 -10157115.92147  22330567.126    22330568.6464   22330576.8354
      2988.693        2328.852
   6640872.590 9   5169017.22146  25120881.073    25120881.4454   25120891.9504
     -2261.507       -1762.213
  -4181417.780 9  -3248561.82548  21293516.736    21293517.5514   21293524.4174
       562.535         438.339
  14017957.060 9  10892985.62646  24552042.159    24552043.8914   24552053.3474
     -3896.561       -3036.281
  -9649720.326 9  -7262749.10846  23975432.821    23975434.4404   23975441.4794
      2534.444        1974.891
 97  4 22 16 28  0.0000000  0  9 19 31 27 15  7 10  2 18 26          0.000188437
   6044209.240 9   4704654.70148  21927875.224    21927876.6484   21927883.2794
     -2201.390       -1715.369
  10305793.496 9   8017596.59246  23964901.222    23964902.1514   23964908.3694
     -3452.069       -2689.924
  -3407278.066 9  -2637238.97048  20202956.485    20202957.4314   20202963.5144
       157.262         122.542
  -2800293.169 9  -2174520.94546  24384124.303    24384125.0784   24384133.1764
      1873.570        1459.925
 -13148357.182 9 -10226879.46447  22313530.273    22313531.6354   22313539.7774
      2980.265        2322.284
   6708770.164 9   5221924.35045  25133801.628    25133801.8794   25133812.4124
     -2264.665       -1764.674
  -4198184.717 9  -3261626.95348  21290325.955    21290326.8874   21290333.7744
       555.720         433.029
  14134860.017 9  10984078.64046  24574287.746    24574289.9474   24574299.4094
     -3896.535       -3036.261
  -9725591.371 9  -7321869.38346  23960995.392    23960996.7194   23961003.6924
      2524.076        1966.812
 97  4 22 16 28 30.0000000  0  9 19 31 27 15  7 10  2 18 26          0.000190081
   6110389.420 9   4756223.64548  21940468.954    21940470.3174   21940476.9644
     -2210.823       -1722.719
  10409464.182 9   8098378.93246  23984629.244    23984630.0004   23984636.1894
     -3459.880       -2696.010
  -3411807.593 9  -2640768.46648  20202094.436    20202095.5014   20202101.5744
       144.412         112.529
  -2856366.328 9  -2218214.26746  24373453.808    24373454.6264   24373462.7674
      1864.205        1452.627
 -13237638.805 9 -10296449.51347  22296540.659    22296541.8814   22296550.0044
      2971.376        2315.358
   6776750.103 8   5274895.67345  25146737.900    25146737.9724   25146748.4724
     -2267.668       -1767.014
  -4214769.270 9  -3274549.97048  21287170.090    21287170.9574   21287177.8644
       549.635         428.287
  14251746.328 9  11075158.67646  24596531.066    24596532.8104   24596542.3464
     -3896.068       -3035.897
  -9801169.249 9  -7380761.21347  23946613.142    23946614.7824   23946621.7134
      2514.103        1959.041
 97  4 22 16 29  0.0000000  0  9 19 31 27 15  7 10  2 18 26          0.000191706
   6176843.004 9   4808005.63848  21953114.625    21953116.0294   21953122.6964
     -2219.565       -1729.531
  10513371.610 9   8179345.72646  24004402.119    24004402.9334   24004409.1354
     -3467.394       -2701.865
  -3415958.829 9  -2644003.19748  20201304.565    20201305.5604   20201311.6274
       132.337         103.120
  -2912156.394 9  -2261687.00446  24362837.366    24362838.1124   24362846.2894
      1855.084        1445.520
 -13326655.708 9 -10365813.29147  22279601.376    22279602.5224   22279610.5684
      2963.223        2309.005
   6844820.264 9   5327937.26445  25159690.993    25159691.1734   25159701.7124
     -2270.286       -1769.054
  -4231184.626 9  -3287341.14848  21284046.332    21284047.2074   21284054.1204
       544.704         424.445
  14368604.751 9  11166216.98446  24618768.410    24618770.4164   24618779.9594
     -3894.484       -3034.663
  -9876448.150 9  -7439420.07046  23932288.095    23932289.6344   23932296.5674
      2504.401        1951.481
 97  4 22 16 29 30.0000000  0  9 19 31 27 15  7 10  2 18 26          0.000193316
   6243579.780 9   4860008.28948  21965814.212    21965815.6454   21965822.3194
     -2228.926       -1736.825
  10617517.996 9   8260498.73246  24024220.552    24024221.3484   24024227.5834
     -3475.021       -2707.809
  -3419730.428 9  -2646942.09948  20200586.921    20200587.8674   20200593.9274
       119.776          93.332
  -2967648.198 9  -2304927.32546  24352277.462    24352278.3394   24352286.4354
      1845.008        1437.668
 -13415415.963 9 -10434977.08648  22262710.790    22262711.9714   22262719.9804
      2954.863        2302.491
   6912995.906 8   5381061.16245  25172664.352    25172664.3954   25172674.8194
     -2274.105       -1772.030
  -4247431.656 9  -3300001.16148  21280954.648    21280955.4884   21280962.4304
       538.981         419.985
  14485427.043 9  11257247.13546  24640998.873    24641001.1384   24641010.7144
     -3893.207       -3033.668
  -9951411.039 9  -7497832.68146  23918023.010    23918024.6004   23918031.5434
      2493.744        1943.177
 97  4 22 16 30  0.0000000  0  9 19 31 27 15  7 10  2 18 26          0.000194911
   6310588.093 9   4912222.52948  21978565.460    21978566.9144   21978573.5994
     -2238.034       -1743.923
  10721882.620 9   8341821.80046  24044080.549    24044081.3314   24044087.5044
     -3482.512       -2713.646
  -3423133.424 9  -2649593.78348  20199939.343    20199940.3254   20199946.3724
       107.222          83.550
  -3022842.638 9  -2347935.93346  24341774.320    24341775.1734   24341783.2414
      1834.663        1429.608
 -13503933.739 9 -10503951.93448  22245866.340    22245867.5884   22245875.5594
      2946.180        2295.725
   6981280.627 8   5434270.00846  25185658.356    25185658.5264   25185669.2794
     -2278.115       -1775.155
  -4263510.134 9  -3312529.83248  21277894.960    21277895.8284   21277902.7944
       532.967         415.299
  14602209.741 9  11348246.43446  24663222.487    24663224.3594   24663233.9854
     -3892.335       -3032.988
 -10026055.634 9  -7555997.26946  23903819.049    23903820.1634   23903827.1294
      2482.641        1934.525
 97  4 22 16 30 30.0000000  0  9 19 31 27 15  7 10  2 18 26          0.000196493
   6377840.022 9   4964626.59848  21991363.158    21991364.4924   21991371.2664
     -2245.482       -1749.726
  10826453.873 9   8423305.87346  24063979.983    24063980.6244   24063986.8354
     -3489.210       -2718.865
  -3426184.547 9  -2651971.28148  20199358.708    20199359.7374   20199365.7444
        96.128          74.905
  -3077739.039 8  -2390712.30846  24331327.682    24331328.6944   24331336.7564
      1824.924        1422.019
 -13592196.717 9 -10572728.24548  22229070.393    22229071.7124   22229079.6504
      2937.814        2289.206
   7049670.337 9   5487560.62245  25198672.515    25198672.7684   25198683.7004
     -2281.200       -1777.558
  -4279421.804 9  -3324928.52748  21274866.988    21274867.9464   21274874.9064
       527.591         411.110
  14718952.138 9  11439214.32046  24685438.241    24685439.8374   24685449.4884
     -3890.679       -3031.698
 -10100374.633 9  -7613908.16246  23889676.135    23889677.6984   23889684.6114
      2471.823        1926.096
 97  4 22 16 31  0.0000000  0  9 19 31 27 15  7 10  2 18 26          0.000198075
   6445324.827 9   5017212.12648  22004205.007    22004206.4414   22004213.2584
     -2253.414       -1755.907
  10931226.007 9   8504946.46846  24083917.350    24083918.1504   24083924.3524
     -3495.399       -2723.688
  -3428897.808 9  -2654085.50848  20198842.410    20198843.4534   20198849.4424
        84.996          66.231
  -3132334.635 9  -2433254.29946  24320938.593    24320939.4814   24320947.6504
      1815.107        1414.369
 -13680202.878 9 -10641304.42448  22212323.424    22212324.6954   22212332.5954
      2929.621        2282.822
   7118147.073 8   5540919.04145  25211703.342    25211703.5664   25211714.5804
     -2283.522       -1779.368
  -4295159.141 9  -3337191.37648  21271872.317    21271873.2284   21271880.1754
       521.671         406.497
  14835658.665 9  11530154.25846  24707647.185    24707648.4894   24707658.2184
     -3889.610       -3030.865
 -10174351.357 9  -7671552.34946  23875598.657    23875600.3234   23875607.3034
      2460.287        1917.107
 97  4 22 16 31 30.0000000  0  9 19 31 27 15  7 10  2 18 26          0.000199664
   6513061.951 9   5069994.27048  22017094.968    22017096.4304   22017103.2454
     -2262.286       -1762.820
  11036191.057 9   8586737.39846  24103891.611    24103892.4354   24103898.6184
     -3502.279       -2729.049
  -3431273.402 9  -2655936.62148  20198390.344    20198391.4324   20198397.3814
        73.448          57.232
  -3186629.423 9  -2475561.89146  24310606.542    24310607.4874   24310615.6264
      1804.674        1406.239
 -13767947.582 9 -10709676.87948  22195626.097    22195627.4114   22195635.2814
      2920.017        2275.338
   7186692.843 8   5594331.23945  25224747.144    25224747.3534   25224758.3364
     -2286.095       -1781.373
  -4310700.641 9  -3349301.62748  21268914.863    21268915.7704   21268922.7294
       514.642         401.020
  14952349.973 9  11621082.33546  24729853.257    24729854.2714   24729864.0684
     -3889.677       -3030.917
 -10247974.769 9  -7728921.21846  23861588.652    23861590.1704   23861597.2054
      2448.054        1907.575
 97  4 22 16 32  0.0000000  0  9 19 31 27 15  7 10  2 18 26          0.000201256
   6581050.880 9   5122972.62948  22030032.845    22030034.3414   22030041.1524
     -2270.559       -1769.267
  11141342.341 9   8668673.43346  24123901.181    24123902.0544   24123908.3304
     -3508.152       -2733.625
  -3433320.178 9  -2657531.51048  20198000.915    20198001.9624   20198007.9004
        62.595          48.775
  -3240634.742 8  -2517643.91446  24300329.677    24300330.5514   24300338.7304
      1795.319        1398.950
 -13855412.299 9 -10777831.15748  22178982.215    22178983.4014   22178991.2344
      2910.582        2267.986
   7255288.988 8   5647782.83845  25237800.752    25237800.8024   25237811.3744
     -2287.234       -1782.260
  -4326055.854 9  -3361266.72048  21265992.905    21265993.8014   21266000.7184
       508.852         396.508
  15069019.488 9  11711993.42546  24752055.359    24752055.8864   24752065.7234
     -3888.408       -3029.928
 -10321258.046 9  -7786025.05446  23847643.326    23847644.8484   23847651.8234
      2437.271        1899.172
 97  4 22 16 32 30.0000000  0  9 19 31 27 15  7 10  2 18 26          0.000202864
   6649336.271 9   5176182.00148  22043027.149    22043028.6674   22043035.4764
     -2280.904       -1777.328
  11246715.432 9   8750782.33246  24143952.825    24143953.9124   24143960.1224
     -3515.801       -2739.585
  -3434988.217 9  -2658831.28048  20197683.515    20197684.5554   20197690.4884
        49.273          38.395
  -3294316.752 9  -2559473.99946  24290114.194    24290115.1714   24290123.2974
      1784.220        1390.301
 -13942552.194 9 -10845732.33048  22162399.999    22162401.2024   22162409.0194
      2899.690        2259.499
   7323960.107 8   5701292.70345  25250868.521    25250868.6794   25250879.4194
     -2290.038       -1784.445
  -4341204.629 9  -3373070.95048  21263110.283    21263111.0834   21263118.0134
       501.938         391.120
  15185684.368 9  11802900.91146  24774256.436    24774256.6304   24774266.4914
     -3888.533       -3030.026
 -10394179.944 9  -7842847.29746  23833766.634    23833768.2524   23833775.2194
      2425.059        1889.656
 97  4 22 16 33  0.0000000  0  9 19 31 27 15  7 10  2 18 26          0.000204470
   6717920.325 9   5229624.09248  22056078.305    22056079.8244   22056086.6154
     -2291.152       -1785.313
  11352291.305 9   8833049.21446  24164043.444    24164044.3484   24164050.6544
     -3522.610       -2744.891
  -3436263.536 9  -2659825.03848  20197440.834    20197441.8884   20197447.8194
        35.841          27.928
  -3347683.312 9  -2601058.27946  24279959.102    24279959.8744   24279967.8904
      1773.558        1381.993
 -14029390.847 9 -10913398.76348  22145875.298    22145876.3344   22145884.1464
      2889.753        2251.756
   7392696.162 8   5754853.23145  25263948.559    25263948.8524   25263959.4134
     -2292.424       -1786.304
  -4356167.351 9  -3384730.20948  21260262.898    21260263.7794   21260270.6964
       495.643         386.215
  15302333.340 9  11893795.99246  24796453.390    24796454.3964   24796464.2254
     -3888.062       -3029.659
 -10466753.752 9  -7899398.29247  23819956.368    23819957.9184   23819964.8594
      2413.387        1880.561
 97  4 22 16 33 30.0000000  0  9 19 31 27 15  7 10  2 18 26          0.000206066
   6786799.079 9   5283295.82448  22069185.511    22069187.0384   22069193.8534
     -2300.862       -1792.879
  11458070.359 9   8915474.40246  24184172.573    24184173.4104   24184179.7544
     -3529.683       -2750.402
  -3437137.981 9  -2660506.42448  20197274.467    20197275.4724   20197281.4284
        22.138          17.250
  -3400731.583 9  -2642394.55246  24269864.542    24269865.1724   24269873.1054
      1762.697        1373.530
 -14115933.389 9 -10980834.46448  22129406.853    22129407.8554   22129415.6234
      2879.626        2243.864
   7461510.484 8   5808474.74145  25277043.490    25277044.0174   25277054.1914
     -2295.506       -1788.706
  -4370948.406 9  -3396247.90848  21257450.117    21257451.0264   21257457.9604
       489.782         381.648
  15418954.446 9  11984669.35946  24818645.331    24818646.8144   24818656.7674
     -3886.818       -3028.689
 -10538987.387 9  -7955684.21847  23806210.849    23806212.3474   23806219.2654
      2401.901        1871.611
 97  4 22 16 34  0.0000000  0  9 19 31 27 15  7 10  2 18 26          0.000207647
   6855969.624 9   5337194.92248  22082348.213    22082349.7984   22082356.6244
     -2310.117       -1800.091
  11564064.674 9   8998067.38446  24204342.582    24204343.4874   24204349.7834
     -3536.575       -2755.773
  -3437587.851 9  -2660856.97448  20197188.815    20197189.8724   20197195.8234
         8.080           6.296
  -3453447.874 9  -2683472.11846  24259832.814    24259833.5364   24259841.4754
      1751.888        1365.108
 -14202181.686 9 -11048040.87848  22112994.184    22112995.3264   22113003.0344
      2870.535        2236.781
   7530419.210 8   5862169.77745  25290156.628    25290156.9504   25290167.1584
     -2298.303       -1790.885
  -4385550.469 9  -3407626.13048  21254671.590    21254672.3344   21254679.2854
       483.925         377.084
  15535539.381 9  12075514.54546  24840831.129    24840832.4084   24840842.3834
     -3885.330       -3027.530
 -10610874.773 9  -8011700.33147  23792531.158    23792532.6184   23792539.5584
      2390.756        1862.927
 97  4 22 16 34 30.0000000  0  9 19 31 27 15  7 10  2 18 26          0.000209257
   6925412.111 9   5391305.93148  22095562.649    22095564.3044   22095571.1404
     -2319.149       -1807.129
  11670268.773 9   9080823.78246  24224552.679    24224553.5084   24224559.8544
     -3543.585       -2761.235
  -3437613.992 9  -2660877.34348  20197183.853    20197184.9374   20197190.8654
        -6.052          -4.716
  -3505834.274 9  -2724292.63746  24249863.905    24249864.7694   24249872.6284
      1740.674        1356.369
 -14288160.348 9 -11115037.18448  22096632.792    22096634.1004   22096641.8064
      2861.497        2229.738
   7599415.606 8   5915933.23045  25303286.080    25303286.4044   25303297.0494
     -2301.468       -1793.352
  -4399971.441 9  -3418863.24448  21251927.334    21251928.1194   21251935.0674
       477.582         372.142
  15652089.560 9  12166332.64646  24863010.246    24863011.2424   24863021.2664
     -3884.679       -3027.023
 -10682418.367 9  -8067448.56647  23778916.741    23778918.3634   23778925.2754
      2378.938        1853.718
 97  4 22 16 35  0.0000000  0  9 19 31 27 15  7 10  2 18 26          0.000210805
   6995120.939 9   5445624.46948  22108827.784    22108829.4204   22108836.2974
     -2328.515       -1814.427
  11776676.658 9   9163739.00746  24244801.248    24244802.3494   24244808.6664
     -3550.883       -2766.922
  -3437233.978 9  -2660581.22948  20197256.260    20197257.2484   20197263.1944
       -19.589         -15.264
  -3557892.564 9  -2764857.48246  24239957.706    24239958.4374   24239966.1064
      1729.359        1347.552
 -14373877.146 9 -11181829.44048  22080321.601    22080322.6924   22080330.3844
      2852.406        2222.654
   7668502.069 8   5969766.75345  25316432.799    25316433.0434   25316444.0554
     -2304.740       -1795.901
  -4414205.680 9  -3429954.85148  21249218.652    21249219.3864   21249226.3324
       470.839         366.888
  15768618.467 9  12257134.17046  24885185.278    24885186.1284   24885196.1954
     -3884.391       -3026.798
 -10753604.905 9  -8122918.58447  23765370.535    23765372.0104   23765378.8704
      2366.500        1844.026
 97  4 22 16 35 30.0000000  0  9 19 31 27 15  7 10  2 18 26          0.000212346
   7065108.700 9   5500160.36148  22122146.109    22122147.6854   22122154.5384
     -2337.670       -1821.561
  11883304.525 9   9246825.64446  24265091.784    24265093.0604   24265099.3644
     -3557.810       -2772.319
  -3436457.857 9  -2659976.46248  20197403.970    20197404.9464   20197410.8814
       -32.492         -25.318
  -3609613.072 9  -2805159.09346  24230115.332    24230116.1624   24230124.0354
      1718.305        1338.939
 -14459323.841 9 -11248411.23348  22064061.568    22064062.6784   22064070.3744
      2843.678        2215.853
   7737677.177 8   6023669.34645  25329596.430    25329596.6264   25329607.6524
     -2307.284       -1797.884
  -4428237.113 9  -3440888.43048  21246548.552    21246549.2944   21246556.2034
       464.354         361.834
  15885136.638 9  12347927.32246  24907358.596    24907358.9004   24907369.1174
     -3883.763       -3026.309
 -10824424.780 9  -8178102.89047  23751893.847    23751895.4424   23751902.2344
      2354.549        1834.714
 97  4 22 16 36  0.0000000  0  9 19 31 27 15  7 10  2 18 26          0.000213877
   7135378.306 9   5554915.87948  22135518.014    22135519.5514   22135526.4004
     -2347.256       -1829.031
  11990132.377 9   9330068.07546  24285420.826    24285421.7394   24285428.0444
     -3564.391       -2777.448
  -3435293.425 9  -2659069.11848  20197625.529    20197626.5644   20197632.4644
       -45.489         -35.446
  -3660998.030 9  -2845199.25846  24220337.029    24220337.8934   24220345.6904
      1706.957        1330.096
 -14544505.957 9 -11314786.85648  22047851.964    22047853.0264   22047860.7254
      2834.528        2208.723
   7806927.263 8   6077630.50545  25342774.336    25342774.6184   25342785.5174
     -2309.869       -1799.898
  -4442065.424 9  -3451663.73048  21243917.129    21243917.8724   21243924.7404
       457.167         356.234
  16001640.046 9  12438708.97146  24929529.110    24929528.9254   24929539.1734
     -3883.424       -3026.045
 -10894882.025 9  -8233004.62247  23738486.256    23738487.8964   23738494.6354
      2342.336        1825.197
 97  4 22 16 36 30.0000000  0  8 19 31 27 15  7  2 18 26             0.000215409
   7205942.935 9   5609901.28048  22148946.095    22148947.5684   22148954.3944
     -2356.987       -1836.613
  12097153.423 9   9413461.07346  24305786.223    24305787.1924   24305793.4934
     -3570.203       -2781.976
  -3433735.290 9  -2657854.98848  20197922.097    20197923.0924   20197928.9784
       -58.203         -45.353
  -3712031.242 9  -2884965.32546  24210625.815    24210626.5894   24210634.3364
      1695.381        1321.076
 -14629387.772 9 -11380928.47648  22031699.390    22031700.5034   22031708.1994
      2824.303        2200.756
  -4455678.128 9  -3462271.01948  21241326.745    21241327.4494   21241334.3004
       450.464         351.011
  16118135.976 9  12529484.79746  24951697.804    24951697.6134   24951707.8914
     -3882.677       -3025.463
 -10964969.228 9  -8287618.01947  23725149.037    23725150.7474   23725157.4354
      2330.330        1815.841
 97  4 22 16 37  0.0000000  0  8 19 31 27 15  7  2 18 26             0.000216953
   7276818.780 9   5665129.18947  22162433.380    22162434.7904   22162441.6274
     -2367.983       -1845.182
  12204361.372 9   9496999.72046  24326187.043    24326188.2024   24326194.5784
     -3577.036       -2787.301
  -3431784.926 9  -2656335.22648  20198293.277    20198294.2294   20198300.1254
       -71.915         -56.038
  -3762704.374 9  -2924450.81146  24200983.082    24200983.7404   24200991.5094
      1682.702        1311.196
 -14713946.147 9 -11446818.06548  22015608.727    22015609.5624   22015617.2674
      2812.759        2191.760
  -4469079.096 9  -3472713.32848  21238776.525    21238777.3104   21238784.1594
       442.843         345.072
  16234609.524 9  12620243.18046  24973862.075    24973862.0094   24973872.3344
     -3882.203       -3025.093
 -11034688.135 9  -8341944.43547  23711881.877    23711883.6854   23711890.3904
      2317.652        1805.963
 97  4 22 16 37 30.0000000  0  8 19 31 27 15  7  2 18 26             0.000218492
   7347983.315 9   5720582.04747  22175975.456    22175976.9384   22175983.8474
     -2377.149       -1852.324
  12311728.498 9   9580662.36446  24346618.223    24346619.4434   24346625.8114
     -3581.724       -2790.954
  -3429449.433 9  -2654515.36548  20198737.678    20198738.6804   20198744.5644
       -84.716         -66.012
  -3813026.856 9  -2963663.06446  24191407.002    24191407.7074   24191415.4844
      1671.253        1302.275
 -14798184.323 9 -11512458.15148  21999578.711    21999579.5704   21999587.2234
      2802.257        2183.577
  -4482282.235 9  -3483001.47848  21236263.970    21236264.8384   21236271.6944
       436.570         340.184
  16351028.137 9  12710958.75746  24996015.320    24996015.8834   24996026.3104
     -3879.787       -3023.211
 -11104065.761 9  -8396004.89847  23698679.840    23698681.6084   23698688.2964
      2306.593        1797.345
 97  4 22 16 38  0.0000000  0  8 19 31 27 15  7  2 18 26             0.000220021
   7419426.525 9   5776252.05947  22189570.670    22189572.1404   22189579.0974
     -2386.220       -1859.392
  12419248.068 9   9664443.87546  24367078.542    24367079.7194   24367085.9974
     -3586.981       -2795.050
  -3426717.200 9  -2652386.35048  20199257.622    20199258.6044   20199264.4874
       -97.887         -76.276
  -3862996.735 9  -3002600.57046  24181897.964    24181898.7444   24181906.4874
      1659.601        1293.196
 -14882092.856 9 -11577841.37348  21983611.318    21983612.2934   21983619.9314
      2791.098        2174.881
  -4495291.440 9  -3493138.50948  21233788.327    21233789.2344   21233796.1144
       430.320         335.314
  16467380.478 9  12801622.69746  25018155.934    25018157.1654   25018167.7184
     -3877.568       -3021.482
 -11173104.537 9  -8449801.34747  23685542.399    23685543.9634   23685550.6774
      2295.565        1788.752
 97  4 22 16 38 30.0000000  0  8 19 31 27 15  7  2 18 26             0.000221552
   7491163.224 9   5832150.75947  22203221.726    22203223.1824   22203230.1734
     -2396.146       -1867.127
  12526952.420 9   9748369.29046  24387574.191    24387575.3184   24387581.6554
     -3593.316       -2799.986
  -3423575.535 9  -2649938.30348  20199855.425    20199856.4264   20199862.3184
      -111.526         -86.903
  -3912601.658 9  -3041253.67246  24172458.171    24172459.0664   24172466.8574
      1647.440        1283.719
 -14965650.384 9 -11642951.08248  21967710.744    21967711.8044   21967719.4244
      2779.620        2165.938
  -4508105.048 9  -3503123.12648  21231349.914    21231350.8574   21231357.7364
       424.026         330.410
  16583680.007 9  12892245.49246  25040286.881    25040288.4614   25040298.9704
     -3875.750       -3020.065
 -11241794.287 9  -8503325.80447  23672471.015    23672472.7474   23672479.5434
      2283.739        1779.537
 97  4 22 16 39  0.0000000  0  8 19 31 27 15  7  2 18 26             0.000223076
   7563180.608 9   5888268.17547  22216926.109    22216927.6844   22216934.6764
     -2405.217       -1874.195
  12634836.334 9   9832434.61746  24408103.638    24408104.9224   24408111.3744
     -3599.304       -2804.652
  -3420032.261 9  -2647177.31248  20200529.665    20200530.6954   20200536.5824
      -125.074         -97.460
  -3961853.479 9  -3079631.65146  24163085.680    24163086.7424   24163094.5074
      1635.627        1274.514
 -15048889.170 9 -11707812.43248  21951870.908    21951872.0024   21951879.5774
      2769.308        2157.902
  -4520748.576 9  -3512975.21548  21228944.048    21228944.8524   21228951.7464
       418.521         326.120
  16699920.983 8  12982822.67845  25062407.338    25062408.6274   25062419.0494
     -3873.950       -3018.662
 -11310133.459 9  -8556577.09447  23659466.410    23659468.2224   23659475.0294
      2271.813        1770.244
 97  4 22 16 39 30.0000000  0  8 19 31 27 15  7  2 18 26             0.000224597
   7635474.751 9   5944601.25247  22230683.341    22230684.8194   22230691.8444
     -2414.357       -1881.317
  12742911.125 9   9916648.74546  24428669.666    24428671.0064   24428677.2924
     -3605.696       -2809.633
  -3416069.046 9  -2644089.09348  20201283.882    20201284.8884   20201290.7554
      -138.940        -108.265
  -4010739.323 9  -3117724.45146  24153782.964    24153783.9214   24153791.7524
      1623.494        1265.060
 -15131807.284 9 -11772423.90648  21936092.047    21936093.1764   21936100.7214
      2758.737        2149.665
  -4533214.995 9  -3522689.29448  21226571.633    21226572.5454   21226579.4584
       412.744         321.619
  16816116.377 8  13073364.33145  25084518.979    25084520.0214   25084530.4604
     -3872.309       -3017.384
 -11378099.479 9  -8609537.61047  23646533.171    23646534.6924   23646541.4894
      2259.340        1760.525
 97  4 22 16 40  0.0000000  0  8 19 31 27 15  7  2 18 26             0.000226119
   7708044.939 9   6001149.42347  22244492.940    22244494.5084   22244501.5274
     -2424.475       -1889.201
  12851184.003 9  10001017.23246  24449273.721    24449274.6354   24449280.8334
     -3613.174       -2815.460
  -3411697.573 9  -2640682.75448  20202115.746    20202116.7744   20202122.6114
      -153.252        -119.417
  -4059258.631 9  -3155531.65246  24144550.138    24144550.9144   24144558.7104
      1610.306        1254.784
 -15214406.442 9 -11836786.84348  21920373.861    21920375.0644   21920382.5984
      2747.036        2140.548
  -4545514.337 9  -3532273.18648  21224231.162    21224232.0524   21224238.9624
       406.460         316.722
  16932262.380 8  13163867.52645  25106620.567    25106621.9934   25106632.4914
     -3871.511       -3016.762
 -11445692.930 9  -8662207.82647  23633670.368    23633672.0854   23633678.8264
      2246.130        1750.231
 97  4 22 16 40 30.0000000  0  8 19 31 27 15  7  2 18 26             0.000227666
   7780920.749 9   6057935.73347  22258360.873    22258362.3954   22258369.3734
     -2433.729       -1896.412
  12959670.757 9  10085552.34146  24469917.690    24469918.9954   24469925.2864
     -3619.232       -2820.181
  -3406896.647 9  -2636941.77248  20203029.366    20203030.3904   20203036.1984
      -166.914        -130.063
  -4107378.936 9  -3193027.95146  24135393.151    24135393.9314   24135401.6834
      1597.619        1244.898
 -15296659.416 9 -11900880.02748  21904721.736    21904722.8534   21904730.3454
      2736.549        2132.376
  -4557619.825 9  -3541706.02148  21221927.598    21221928.4824   21221935.3834
       400.497         312.076
  17048382.358 8  13254350.44545  25128717.407    25128719.1034   25128729.5634
     -3869.793       -3015.423
 -11512877.680 9  -8714559.56447  23620885.903    23620887.2794   23620894.0284
      2232.766        1739.818
 97  4 22 16 41  0.0000000  0  8 19 31 27 15  7  2 18 26             0.000229214
   7854061.721 9   6114928.66747  22272279.265    22272280.7244   22272287.6964
     -2441.585       -1902.534
  13068337.212 9  10170227.44746  24490596.181    24490597.4794   24490603.7434
     -3624.461       -2824.255
  -3401679.709 9  -2632876.62648  20204022.164    20204023.1294   20204028.9524
      -180.031        -140.284
  -4155116.346 9  -3230225.88846  24126309.126    24126309.7684   24126317.4364
      1585.585        1235.521
 -15378596.363 9 -11964726.96048  21889129.608    21889130.7514   21889138.2234
      2726.541        2124.577
  -4569536.033 9  -3550991.36848  21219660.045    21219660.9314   21219667.8074
       394.553         307.444
  17164452.730 8  13344794.70345  25150805.473    25150806.6964   25150817.2614
     -3867.443       -3013.592
 -11579660.568 9  -8766598.15747  23608177.697    23608178.9074   23608185.6054
      2220.259        1730.072
 97  4 22 16 41 30.0000000  0  8 19 31 27 15  7  2 18 26             0.000230755
   7927449.211 9   6172113.69147  22286244.471    22286245.9564   22286252.8944
     -2451.287       -1910.094
  13177167.600 9  10255030.28646  24511305.740    24511307.2854   24511313.6484
     -3631.223       -2829.524
  -3396067.432 9  -2628503.42748  20205090.122    20205091.1394   20205096.9504
      -194.379        -151.464
  -4202485.475 9  -3267136.86046  24117295.139    24117295.7044   24117303.3474
      1572.101        1225.014
 -15460217.911 9 -12028328.12448  21873597.476    21873598.6594   21873606.1354
      2714.688        2115.341
  -4581257.094 9  -3560124.64948  21217429.513    21217430.4924   21217437.3394
       386.604         301.250
  17280448.501 8  13435180.85745  25172879.175    25172879.9154   25172890.7514
     -3865.997       -3012.465
 -11646063.725 9  -8818340.85247  23595541.513    23595542.8094   23595549.4804
      2206.383        1719.259
 97  4 22 16 42  0.0000000  0  8 19 31 27 15  7  2 18 26             0.000232302
   8001120.871 9   6229520.14947  22300263.753    22300265.2554   22300272.1324
     -2460.791       -1917.499
  13286177.955 9  10339973.36146  24532049.845    24532051.1634   24532057.5824
     -3636.754       -2833.834
  -3390034.567 9  -2623802.49548  20206238.091    20206239.1454   20206244.9764
      -208.509        -162.475
  -4249464.590 9  -3303743.92846  24108355.431    24108355.9174   24108363.4164
      1559.275        1215.019
 -15541502.045 9 -12091666.36848  21858129.642    21858130.7594   21858138.2304
      2703.726        2106.799
  -4592753.857 9  -3569083.15948  21215241.828    21215242.7404   21215249.5864
       379.329         295.581
  17396391.286 8  13525525.71845  25194942.733    25194943.1304   25194954.0924
     -3864.036       -3010.937
 -11712064.529 9  -8869770.02347  23582981.868    23582983.2964   23582989.9644
      2192.950        1708.792
 97  4 22 16 42 30.0000000  0  8 19 31 27 15  7  2 18 26             0.000233840
   8075073.233 9   6287145.33647  22314336.498    22314337.9674   22314344.8304
     -2469.470       -1924.262
  13395346.671 8  10425039.89845  24552824.449    24552825.3654   24552831.6754
     -3641.593       -2837.605
  -3383575.410 9  -2618769.38848  20207467.230    20207468.2874   20207474.1284
      -222.456        -173.342
  -4296064.683 9  -3340055.64846  24099487.789    24099488.2244   24099495.6374
      1547.087        1205.522
 -15622471.489 9 -12154759.40148  21842721.611    21842722.7384   21842730.2004
      2693.836        2099.093
  -4604034.997 9  -3577873.65048  21213095.088    21213096.0054   21213102.8494
       372.527         290.281
  17512276.141 8  13615825.42745  25216995.561    25216995.1884   25217006.5984
     -3861.887       -3009.263
 -11777658.272 9  -8920882.01147  23570499.838    23570501.1924   23570507.8264
      2179.686        1698.457
 97  4 22 16 43  0.0000000  0  8 19 31 27 15  7  2 18 26             0.000235334
   8149301.447 9   6344985.47147  22328461.697    22328463.1644   22328470.0104
     -2479.087       -1931.756
  13504684.651 8  10510238.29146  24573630.223    24573631.7284   24573638.0294
     -3647.379       -2842.113
  -3376680.860 9  -2613397.01548  20208779.262    20208780.2904   20208786.1184
      -236.908        -184.604
  -4342283.999 9  -3376070.68546  24090692.588    24090693.0394   24090700.3704
      1534.318        1195.572
 -15703119.858 9 -12217602.24848  21827374.625    21827375.8344   21827383.3024
      2682.780        2090.478
  -4615106.785 9  -3586501.00748  21210988.144    21210989.1014   21210995.9454
       365.842         285.072
  17628112.383 8  13706087.28545  25239038.876    25239038.4744   25239049.5354
     -3860.289       -3008.017
 -11842849.736 9  -8971680.53347  23558094.018    23558095.6344   23558102.3074
      2166.496        1688.179
 97  4 22 16 43 30.0000000  0  8 19 31 27 15  7  2 18 26             0.000236851
   8223820.850 9   6403052.50447  22342642.170    22342643.7394   22342650.5614
     -2488.354       -1938.977
  13614181.674 9  10595560.65146  24594467.237    24594468.1374   24594474.3414
     -3652.069       -2845.768
  -3369360.442 9  -2607692.79548  20210172.328    20210173.3324   20210179.1324
      -250.682        -195.337
  -4388122.276 9  -3411788.77446  24081969.554    24081970.1664   24081977.5604
      1522.019        1185.989
 -15783440.135 9 -12280189.43548  21812090.172    21812091.3724   21812098.8154
      2672.475        2082.448
  -4625991.086 9  -3594982.27448  21208917.006    21208917.8894   21208924.6984
       360.302         280.755
  17743888.071 8  13796301.93145  25261069.626    25261070.0794   25261081.2544
     -3857.622       -3005.939
 -11907643.990 9  -9022169.54247  23545764.402    23545765.7034   23545772.3494
      2153.569        1678.106
 97  4 22 16 44  0.0000000  0  8 19 31 27 15  7  2 18 26             0.000238359
   8298623.123 9   6461339.95547  22356876.825    22356878.1414   22356884.9524
     -2497.739       -1946.290
  13723818.171 9  10680991.65546  24615330.277    24615331.3134   24615337.7284
     -3656.598       -2849.297
  -3361617.947 9  -2601659.68448  20211645.687    20211646.6764   20211652.4524
      -264.894        -206.411
  -4433585.129 9  -3447214.33546  24073317.918    24073318.7194   24073326.2334
      1509.312        1176.087
 -15863444.865 9 -12342530.74848  21796865.813    21796866.9674   21796874.3854
      2661.695        2074.048
  -4636706.683 9  -3603332.08348  21206878.029    21206878.7914   21206885.5744
       354.665         276.362
  17859588.971 8  13886458.36545  25283085.880    25283087.5814   25283098.6384
     -3855.205       -3004.056
 -11972044.173 9  -9072351.48047  23533509.324    23533510.7104   23533517.3554
      2140.275        1667.747
 97  4 22 16 44 30.0000000  0  8 19 31 27 15  7  2 18 26             0.000239862
   8373692.175 9   6519835.28347  22371161.912    22371163.3124   22371170.1594
     -2506.434       -1953.065
  13833603.172 8  10766538.35545  24636222.186    24636222.6614   24636229.1684
     -3661.954       -2853.471
  -3353448.765 9  -2595294.09048  20213200.243    20213201.2074   20213207.0114
      -279.229        -217.581
  -4478659.274 8  -3482337.02046  24064740.463    24064741.2804   24064748.7964
      1496.049        1165.752
 -15943117.288 9 -12404613.12148  21781704.603    21781705.7774   21781713.1914
      2650.143        2065.046
  -4647250.312 9  -3611547.89148  21204871.715    21204872.4174   21204879.1624
       348.662         271.685
  17975216.670 8  13976557.66045  25305088.885    25305090.8404   25305102.0004
     -3852.889       -3002.251
 -12036041.872 9  -9122219.79547  23521330.979    23521332.3294   23521338.9294
      2126.823        1657.265
 97  4 22 16 45  0.0000000  0  8 19 31 27 15  7  2 18 26             0.000241360
   8449021.627 9   6578533.51947  22385496.739    22385498.0374   22385504.8974
     -2515.788       -1960.354
  13943532.875 8  10852197.87846  24657140.869    24657141.6644   24657148.1454
     -3666.955       -2857.368
  -3344865.120 9  -2588605.54148  20214833.597    20214834.6124   20214840.4234
      -293.113        -228.400
  -4523341.615 9  -3517154.39746  24056237.434    24056238.3994   24056245.9864
      1482.647        1155.309
 -16022450.458 9 -12466431.13548  21766607.987    21766609.1914   21766616.5724
      2638.708        2056.136
  -4657625.169 9  -3619632.18348  21202897.471    21202898.1494   21202904.8964
       342.678         267.022
  18090756.598 8  14066588.64945  25327075.814    25327077.6254   25327088.4334
     -3849.929       -2999.945
 -12099647.784 9  -9171782.83447  23509227.225    23509228.5154   23509235.1054
      2113.357        1646.772
 97  4 22 16 45 30.0000000  0  8 19 31 27 15  7  2 18 26             0.000242853
   8524616.250 9   6637438.37747  22399882.022    22399883.2734   22399890.1304
     -2523.831       -1966.622
  14053588.547 8  10937955.43445  24678083.740    24678084.5714   24678091.3384
     -3670.378       -2860.035
  -3335880.655 9  -2581604.66348  20216543.380    20216544.3064   20216550.1334
      -305.917        -238.377
  -4567635.189 9  -3551668.82946  24047808.494    24047809.5934   24047817.1274
      1470.272        1145.666
 -16101463.078 9 -12527999.37348  21751572.275    21751573.6024   21751580.9704
      2628.768        2048.391
  -4667824.697 9  -3627579.85948  21200956.530    21200957.2524   21200963.9854
       337.171         262.731
  18206184.655 8  14156532.50845  25349041.578    25349043.0354   25349053.9254
     -3845.435       -2996.443
 -12162861.946 9  -9221040.59847  23497197.965    23497199.2984   23497205.8314
      2101.022        1637.160
 97  4 22 16 46  0.0000000  0  8 19 31 27 15  7  2 18 26             0.000244335
   8600475.218 9   6696549.23247  22414317.438    22414318.8034   22414325.6254
     -2533.123       -1973.862
  14163770.228 8  11023811.37146  24699050.715    24699051.5804   24699058.1814
     -3675.028       -2863.658
  -3326488.268 9  -2574285.92248  20218330.697    20218331.6454   20218337.4624
      -320.039        -249.381
  -4611533.576 9  -3585875.34446  24039455.123    24039456.0174   24039463.5194
      1456.521        1134.951
 -16180151.607 9 -12589315.07248  21736598.564    21736599.6734   21736607.0184
      2617.355        2039.497
  -4677831.571 9  -3635377.41448  21199052.259    21199053.0174   21199059.7874
       330.329         257.399
  18321513.848 8  14246399.24345  25370987.878    25370989.5344   25371000.4514
     -3842.958       -2994.513
 -12225686.660 9  -9269994.90247  23485242.803    23485244.1584   23485250.6704
      2087.577        1626.683
 97  4 22 16 46 30.0000000  0  8 19 31 27 15  7  2 18 26             0.000245807
   8676598.340 9   6755865.91247  22428803.237    22428804.5994   22428811.3854
     -2541.614       -1980.478
  14274089.487 8  11109774.30345  24720043.539    24720044.4934   24720051.4034
     -3679.298       -2866.985
  -3316684.120 9  -2566646.33348  20220196.365    20220197.3154   20220203.1644
      -333.281        -259.699
  -4655028.702 9  -3619767.61746  24031178.367    24031179.1514   24031186.6864
      1443.496        1124.802
 -16258510.401 9 -12650373.83448  21721687.269    21721688.4804   21721695.8114
      2606.867        2031.325
  -4687652.952 9  -3643030.42848  21197183.321    21197184.0594   21197190.8294
       324.747         253.050
  18436758.247 8  14336199.91345  25392918.807    25392919.9064   25392930.7874
     -3839.695       -2991.970
 -12288118.477 9  -9318643.04647  23473362.300    23473363.7624   23473370.2544
      2074.852        1616.768
 97  4 22 16 47  0.0000000  0  8 19 31 27 15  7  2 18 26             0.000247273
   8752987.758 9   6815390.09947  22443339.830    22443341.0824   22443347.8424
     -2551.081       -1987.855
  14384532.666 9  11195833.93645  24741060.014    24741061.3374   24741067.7124
     -3683.933       -2870.597
  -3306487.891 9  -2558701.22048  20222136.711    20222137.6084   20222143.4734
      -346.818        -270.248
  -4698134.859 9  -3653356.81446  24022975.676    24022976.3464   24022983.8664
      1430.025        1114.305
 -16336557.102 9 -12711189.41148  21706835.497    21706836.6464   21706843.9804
      2595.998        2022.856
  -4697306.200 9  -3650552.43048  21195346.353    21195347.0834   21195353.8634
       318.587         248.250
  18551896.966 8  14425918.28645  25414829.132    25414830.3994   25414841.0534
     -3836.523       -2989.498
 -12350162.556 9  -9366989.06447  23461555.774    23461557.1754   23461563.6504
      2061.229        1606.152
 97  4 22 16 47 30.0000000  0  7 19 31 27 15  7  2 26                0.000248731
   8829641.859 9   6875120.53147  22457926.685    22457927.9114   22457934.6694
     -2559.426       -1994.358
  14495104.022 8  11281993.34046  24762101.358    24762102.3704   24762109.1274
     -3687.973       -2873.745
  -3295885.212 9  -2550439.39648  20224154.332    20224155.2564   20224161.0884
      -360.366        -280.805
  -4740843.746 9  -3686636.44846  24014848.705    24014849.1684   24014856.5224
      1416.912        1104.087
 -16414271.263 9 -12771745.86448  21692046.990    21692048.1184   21692055.4504
      2584.486        2013.885
  -4706782.639 9  -3657936.65948  21193543.009    21193543.7824   21193550.5904
       312.983         243.883
 -12411809.016 9  -9415025.24147  23449824.922    23449826.2734   23449832.6794
      2048.114        1595.933
 97  4 22 16 48  0.0000000  0  7 19 31 27 15  7  2 26                0.000250187
   8906546.812 9   6935046.43547  22472561.265    22472562.4604   22472569.2524
     -2567.676       -2000.786
  14605810.147 8  11368257.83246  24783168.596    24783169.1834   24783175.7524
     -3692.526       -2877.293
  -3284869.437 9  -2541855.67848  20226250.571    20226251.4824   20226257.3374
      -374.237        -291.613
  -4783155.666 9  -3719606.74946  24006796.967    24006797.4794   24006804.7374
      1403.683        1093.779
 -16491627.620 9 -12832023.50248  21677326.489    21677327.6494   21677334.9934
      2572.441        2004.499
  -4716097.815 9  -3665195.22748  21191770.300    21191771.1484   21191777.9494
       307.956         239.966
 -12473047.882 9  -9462743.81847  23438171.649    23438172.9444   23438179.3214
      2034.278        1585.152
 97  4 22 16 48 30.0000000  0  7 19 31 27 15  7  2 26                0.000251649
   8983706.781 9   6995171.05147  22487244.206    22487245.5564   22487252.3584
     -2576.436       -2007.612
  14716660.696 8  11454634.90646  24804261.987    24804263.3194   24804269.7944
     -3697.239       -2880.965
  -3273431.574 9  -2532943.06148  20228427.142    20228428.0524   20228433.8704
      -388.235        -302.521
  -4825065.331 9  -3752263.62646  23998821.879    23998822.3544   23998829.6444
      1390.317        1083.364
 -16568616.311 9 -12892014.65948  21662676.097    21662677.1904   21662684.5274
      2560.111        1994.892
  -4725256.494 9  -3672331.85348  21190027.506    21190028.2914   21190035.1004
       302.470         235.691
 -12533864.897 9  -9510133.68447  23426598.771    23426599.8944   23426606.1794
      2020.267        1574.234
 97  4 22 16 49  0.0000000  0  7 19 31 27 15  7  2 26                0.000253110
   9061131.213 9   7055501.74047  22501977.678    22501978.9924   22501985.7934
     -2584.917       -2014.221
  14827635.208 8  11541108.49346  24825380.233    24825381.1734   24825387.7824
     -3700.821       -2883.757
  -3261571.891 9  -2523701.75748  20230684.026    20230684.8934   20230690.7104
      -402.353        -313.522
  -4866570.296 9  -3784605.14246  23990923.696    23990924.2574   23990931.5724
      1376.877        1072.891
 -16645232.931 9 -12951715.88348  21648096.411    21648097.5284   21648104.8644
      2547.844        1985.333
  -4734238.906 9  -3679331.12448  21188318.304    21188319.0204   21188325.7984
       296.558         231.084
 -12594268.605 9  -9557201.49047  23415104.325    23415105.4204   23415111.6854
      2006.954        1563.860
 97  4 22 16 49 30.0000000  0  7 19 31 27 15  7  2 26                0.000254554
   9138815.675 9   7116035.04747  22516760.602    22516761.9184   22516768.7094
     -2594.412       -2021.620
  14938714.306 8  11627663.62846  24846517.230    24846518.7334   24846525.2434
     -3704.923       -2886.953
  -3249275.664 9  -2514120.28648  20233023.921    20233024.7954   20233030.5994
      -417.583        -325.389
  -4907670.094 9  -3816630.95946  23983102.518    23983103.2374   23983110.5464
      1362.721        1061.861
 -16721475.810 9 -13011125.88348  21633587.822    21633588.9714   21633596.2904
      2534.812        1975.178
  -4743045.989 9  -3686193.77848  21186642.340    21186643.1294   21186649.8964
       290.240         226.161
 -12654273.416 9  -9603958.46647  23403685.574    23403686.8684   23403693.1264
      1992.958        1552.954
 97  4 22 16 50  0.0000000  0  7 19 31 27 15  7  2 26                0.000255990
   9216776.891 9   7176784.00947  22531596.122    22531597.5004   22531604.2834
     -2603.382       -2028.609
  15049905.809 8  11714306.30846  24867676.891    24867677.8714   24867684.3594
     -3708.150       -2889.468
  -3236539.947 9  -2504196.35448  20235447.420    20235448.3544   20235454.1414
      -431.971        -336.601
  -4948353.246 9  -3848332.10646  23975360.443    23975361.5594   23975368.8164
      1348.999        1051.168
 -16797353.280 9 -13070251.14948  21619148.756    21619149.9044   21619157.2084
      2523.392        1966.279
  -4751677.415 9  -3692919.55648  21184999.793    21185000.6244   21185007.4104
       284.697         221.842
 -12713868.522 9  -9650396.19347  23392344.959    23392346.2464   23392352.5034
      1979.719        1542.638
 97  4 22 16 50 30.0000000  0  7 19 31 27 15  7  2 26                0.000257398
   9294999.969 9   7237737.02047  22546481.547    22546482.9084   22546489.6574
     -2611.621       -2035.029
  15161170.554 8  11801006.03745  24888849.383    24888850.8034   24888857.3644
     -3709.893       -2890.826
  -3223377.484 9  -2493939.89548  20237952.206    20237953.0944   20237958.8794
      -445.705        -347.303
  -4988629.564 9  -3879716.25146  23967696.028    23967697.1124   23967704.5424
      1335.923        1040.979
 -16872901.788 9 -13129120.08448  21604772.450    21604773.4824   21604780.7894
      2512.960        1958.151
  -4760141.500 9  -3699514.94048  21183389.097    21183389.9814   21183396.7394
       279.465         217.765
 -12773076.963 9  -9696532.61747  23381077.743    23381079.1784   23381085.5454
      1967.230        1532.906
 97  4 22 16 51  0.0000000  0  7 19 31 27 15  7  2 26                0.000258781
   9373480.612 9   7298890.73247  22561415.857    22561417.3014   22561424.0654
     -2620.047       -2041.595
  15272510.513 8  11887764.46746  24910036.974    24910038.1954   24910044.5554
     -3712.525       -2892.877
  -3209783.038 9  -2483346.82348  20240539.196    20240540.0774   20240545.8214
      -460.216        -358.610
  -5028493.476 9  -3910779.03346  23960110.304    23960111.2524   23960118.6464
      1322.071        1030.185
 -16948124.887 9 -13187735.45148  21590457.952    21590459.0084   21590466.2894
      2502.224        1949.785
  -4768442.151 9  -3705982.97248  21181809.562    21181810.4244   21181817.1964
       274.372         213.796
 -12831885.552 9  -9742357.47747  23369886.693    23369888.2154   23369894.5754
      1953.582        1522.272
 97  4 22 16 51 30.0000000  0  7 19 31 27 15  7  2 26                0.000260142
   9452200.633 9   7360230.96647  22576395.778    22576397.2444   22576404.0344
     -2628.159       -2047.916
  15383926.206 8  11974581.83746  24931238.578    24931239.8194   24931246.3204
     -3715.573       -2895.252
  -3195776.867 9  -2472432.93248  20243204.492    20243205.3794   20243211.1064
      -473.686        -369.106
  -5067961.281 9  -3941533.15546  23952599.774    23952600.7434   23952608.1494
      1308.707        1019.772
 -17023041.042 9 -13246111.64048  21576201.907    21576202.9264   21576210.1964
      2491.832        1941.687
  -4776614.348 9  -3712350.91348  21180254.523    21180255.2954   21180262.0464
       270.094         210.463
 -12890287.761 9  -9787865.67147  23358773.154    23358774.6214   23358780.9654
      1939.616        1511.389
 97  4 22 16 52  0.0000000  0  7 19 31 27 15  7  2 26                0.000261501
   9531166.917 9   7421763.08847  22591422.561    22591424.0514   22591430.8754
     -2636.464       -2054.388
  15495439.137 8  12061475.00846  24952459.587    24952459.9614   24952466.6754
     -3718.772       -2897.744
  -3181360.152 9  -2461199.13048  20245947.924    20245948.8254   20245954.5434
      -487.733        -380.052
  -5107018.880 9  -3971967.64746  23945167.694    23945168.3674   23945175.7794
      1294.798        1008.934
 -17097629.964 9 -13304232.84548  21562008.017    21562009.0834   21562016.3414
      2480.404        1932.782
  -4784641.928 9  -3718606.16148  21178726.940    21178727.7064   21178734.4344
       264.812         206.347
 -12948259.022 9  -9833038.05647  23347741.543    23347743.0354   23347749.4094
      1924.894        1499.917
 97  4 22 16 52 30.0000000  0  7 19 31 27 15  7  2 26                0.000262871
   9610399.927 9   7483503.06547  22606500.182    22606501.6184   22606508.4534
     -2645.772       -2061.640
  15607056.396 8  12148449.51146  24973698.759    24973700.1454   24973706.8234
     -3722.610       -2900.735
  -3166514.107 9  -2449630.79248  20248773.112    20248773.9444   20248779.6634
      -501.841        -391.045
  -5145650.546 9  -4002070.23546  23937816.239    23937816.9024   23937824.4004
      1280.688         997.939
 -17171858.488 9 -13362073.22248  21547882.754    21547883.8624   21547891.0994
      2468.078        1923.178
  -4792500.439 9  -3724729.67148  21177231.600    21177232.2684   21177239.0024
       259.166         201.948
 -13005777.796 9  -9877857.87347  23336796.209    23336797.6004   23336803.9084
      1909.836        1488.184
 97  4 22 16 53  0.0000000  0  7 19 31 27 15  7  2 26                0.000264271
   9689926.608 9   7545471.86647  22621633.620    22621635.1044   22621641.9224
     -2655.566       -2069.272
  15718806.382 9  12235527.36846  24994964.023    24994965.3974   24994972.3574
     -3726.817       -2904.013
  -3151252.345 9  -2437738.51548  20251677.303    20251678.1714   20251683.8864
      -515.201        -401.455
  -5183852.277 9  -4031837.79446  23930546.477    23930547.3314   23930554.8744
      1266.390         986.797
 -17245703.885 9 -13419615.05548  21533830.633    21533831.5684   21533838.7794
      2455.280        1913.205
  -4800185.947 9  -3730718.37148  21175769.087    21175769.7794   21175776.4924
       253.451         197.494
 -13062841.679 9  -9922323.22747  23325937.304    23325938.7874   23325945.0474
      1894.951        1476.585
 97  4 22 16 53 30.0000000  0  7 19 31 27 15  7  2 26                0.000265693
   9769737.102 9   7607661.82047  22636821.122    22636822.5854   22636829.3984
     -2665.280       -2076.841
  15830660.438 8  12322686.42946  25016249.353    25016250.5224   25016257.3194
     -3730.485       -2906.871
  -3135602.731 9  -2425544.01548  20254655.298    20254656.1914   20254661.9064
      -528.538        -411.848
  -5221633.856 9  -4061277.95646  23923356.846    23923357.7154   23923365.3214
      1251.995         975.581
 -17319171.417 9 -13476862.44848  21519850.102    21519851.1544   21519858.3544
      2442.215        1903.025
  -4807697.095 9  -3736571.20648  21174339.751    21174340.4494   21174347.1794
       246.936         192.418
 -13119478.821 9  -9966456.04247  23315159.629    23315161.1124   23315167.3454
      1880.758        1465.526
 97  4 22 16 54  0.0000000  0  7 19 31 27 15  7  2 26                0.000267137
   9849856.657 9   7670092.59847  22652067.509    22652068.8804   22652075.6884
     -2675.543       -2084.839
  15942647.021 8  12409948.60546  25037559.310    25037560.7684   25037567.7974
     -3734.766       -2910.207
  -3119522.335 9  -2413013.84248  20257715.250    20257716.1954   20257721.9294
      -542.973        -423.096
  -5258959.541 9  -4090362.90046  23916253.945    23916254.9084   23916262.4674
      1236.836         963.768
 -17392225.674 9 -13533787.81048  21505948.307    21505949.3834   21505956.5764
      2428.728        1892.515
  -4814989.423 9  -3742253.53348  21172952.012    21172952.8024   21172959.5124
       239.757         186.824
 -13175679.874 9 -10010249.04347  23304464.930    23304466.3974   23304472.6434
      1866.424        1454.356
 97  4 22 16 54 30.0000000  0  7 19 31 27 15  7  2 26                0.000268583
   9930268.558 9   7732751.17847  22667369.477    22667370.7804   22667377.6054
     -2685.172       -2092.342
  16054755.766 8  12497306.14846  25058893.283    25058894.4484   25058901.0274
     -3739.386       -2913.807
  -3103026.326 9  -2400159.81448  20260854.358    20260855.3014   20260861.0374
      -556.853        -433.911
  -5295846.999 9  -4119106.33846  23909234.682    23909235.4344   23909242.9904
      1222.036         952.236
 -17464907.323 9 -13590422.82948  21492117.378    21492118.4614   21492125.6664
      2416.589        1883.056
  -4822089.986 9  -3747786.43148  21171600.743    21171601.6024   21171608.3024
       233.541         181.980
 -13231466.987 9 -10053719.51147  23293849.028    23293850.4684   23293856.7674
      1852.534        1443.533
 97  4 22 16 55  0.0000000  0  7 19 31 27 15  7  2 26                0.000270012
  10010934.519 9   7795607.72547  22682719.752    22682721.0334   22682727.8594
     -2693.004       -2098.445
  16166979.899 9  12584753.39846  25080248.153    25080249.8674   25080256.7774
     -3742.810       -2916.475
  -3086121.612 9  -2386987.31348  20264071.249    20264072.1864   20264077.8994
      -571.042        -444.968
  -5332301.840 9  -4147512.69546  23902297.350    23902298.3174   23902305.8384
      1207.434         940.858
 -17537239.606 9 -13646785.60948  21478352.879    21478354.0094   21478361.2074
      2404.876        1873.929
  -4829017.522 9  -3753184.50548  21170282.521    21170283.3044   21170290.0064
       227.554         177.315
 -13286850.135 9 -10096875.20047  23283309.766    23283311.3984   23283317.6894
      1838.925        1432.928
 97  4 22 16 55 30.0000000  0  7 19 31 27 15  7  2 26                0.000271399
  10091820.405 9   7858635.64047  22698112.012    22698113.1224   22698120.0024
     -2700.078       -2103.957
  16279299.607 9  12672275.26046  25101623.014    25101623.8014   25101630.4864
     -3746.033       -2918.987
  -3068778.563 9  -2373473.25548  20267371.542    20267372.4954   20267378.2104
      -585.953        -456.587
  -5368321.561 9  -4175579.95946  23895443.051    23895443.9464   23895451.5134
      1193.064         929.660
 -17609225.713 9 -13702878.65048  21464654.238    21464655.4864   21464662.6884
      2393.321        1864.925
  -4835765.302 9  -3758442.50548  21168998.461    21168999.2064   21169005.9204
       221.731         172.777
 -13341828.939 9 -10139715.80947  23272847.511    23272849.2344   23272855.5664
      1825.454        1422.432
 97  4 22 16 56  0.0000000  0  7 19 31 27 15  7  2 26                0.000272750
  10172925.390 9   7921834.28647  22713545.680    22713546.9454   22713553.8744
     -2706.881       -2109.258
  16391724.739 8  12759879.26246  25123015.983    25123017.4824   25123024.2994
     -3748.721       -2921.081
  -3050974.537 9  -2359599.99548  20270759.575    20270760.5084   20270766.2214
      -600.801        -468.157
  -5403898.685 9  -4203302.37746  23888673.008    23888673.9634   23888681.4234
      1178.799         918.545
 -17680848.798 9 -13758688.81548  21451024.758    21451026.0214   21451033.2094
      2381.653        1855.834
  -4842340.319 9  -3763565.88448  21167747.261    21167748.0214   21167754.7294
       216.808         168.941
 -13396381.562 9 -10182224.33047  23262466.401    23262468.1684   23262474.5864
      1811.250        1411.364
 97  4 22 16 56 30.0000000  0  6 19 27 15  7  2 26                   0.000274082
  10254247.277 9   7985201.94747  22729020.627    22729022.0064   22729028.9594
     -2713.884       -2114.715
  -3032713.561 9  -2345370.66948  20274234.548    20274235.4684   20274241.1934
      -615.910        -479.930
  -5439029.493 9  -4230676.97446  23881987.995    23881988.7434   23881996.2394
      1163.847         906.894
 -17752102.361 9 -13814211.03748  21437465.635    21437466.8654   21437474.0394
      2369.032        1845.999
  -4848755.640 9  -3768564.83148  21166526.440    21166527.2334   21166533.9194
       211.440         164.758
 -13450483.578 9 -10224381.73347  23252171.356    23252172.8814   23252179.3264
      1796.357        1399.759
 97  4 22 16 57  0.0000000  0  6 19 27 15  7  2 26                   0.000275390
  10335779.384 9   8048733.40247  22744535.763    22744537.0704   22744544.0484
     -2721.226       -2120.436
  -3014001.115 9  -2330789.54548  20277795.312    20277796.3544   20277802.0764
      -631.155        -491.809
  -5473713.104 9  -4257703.15246  23875387.956    23875388.6814   23875396.0744
      1148.861         895.216
 -17822957.143 9 -13869422.52348  21423982.261    21423983.6094   21423990.7624
      2355.242        1835.254
  -4855004.954 9  -3773434.41448  21165337.246    21165338.0224   21165344.7024
       205.713         160.296
 -13504149.838 9 -10266199.59047  23241959.042    23241960.5304   23241966.9664
      1781.875        1388.474
 97  4 22 16 57 30.0000000  0  6 19 27 15  7  2 26                   0.000276675
  10417536.705 9   8112440.36147  22760093.651    22760094.9884   22760102.0274
     -2729.060       -2126.540
  -2994839.172 9  -2315858.16748  20281441.758    20281442.7474   20281448.4774
      -645.853        -503.262
  -5507953.312 9  -4284383.79446  23868872.172    23868872.9634   23868880.4524
      1134.032         883.661
 -17893407.600 9 -13924318.95348  21410576.042    21410577.3494   21410584.4724
      2341.776        1824.761
  -4861093.477 9  -3778178.71248  21164178.708    21164179.4164   21164186.0734
       200.629         156.334
 -13557389.752 9 -10307685.23047  23231827.810    23231829.3174   23231835.6944
      1767.683        1377.415
 97  4 22 16 58  0.0000000  0  6 19 27 15  7  2 26                   0.000277954
  10499534.791 9   8176334.92547  22775697.398    22775698.6574   22775705.8344
     -2737.548       -2133.154
  -2975244.527 9  -2300589.61548  20285170.536    20285171.4994   20285177.2274
      -660.480        -514.660
  -5541751.336 9  -4310719.89546  23862440.759    23862441.4444   23862448.8384
      1118.992         871.942
 -17963462.769 9 -13978907.36448  21397245.032    21397246.3154   21397253.4194
      2328.652        1814.534
  -4867040.390 9  -3782812.66248  21163047.090    21163047.7554   21163054.4024
       195.680         152.478
 -13610197.713 9 -10348834.27747  23221778.768    23221780.2884   23221786.6544
      1752.848        1365.856
 97  4 22 16 58 30.0000000  0  6 19 27 15  7  2 26                   0.000279233
  10581791.487 9   8240430.99147  22791350.316    22791351.5984   22791358.8054
     -2746.076       -2139.799
  -2955211.967 9  -2284979.83448  20288982.621    20288983.5764   20288989.2944
      -674.912        -525.905
  -5575090.207 9  -4336698.19546  23856096.285    23856097.2064   23856104.6354
      1103.671         860.003
 -18033128.980 9 -14033192.69548  21383987.915    21383989.2714   21383996.3304
      2315.796        1804.516
  -4872828.791 9  -3787323.09848  21161945.493    21161946.2544   21161952.8914
       190.265         148.258
 -13662559.236 9 -10389635.45747  23211814.725    23211816.2344   23211822.5694
      1738.168        1354.417
 97  4 22 16 59  0.0000000  0  6 19 27 15  7  2 26                   0.000280511
  10664303.016 9   8304725.64147  22807051.688    22807053.0564   22807060.3104
     -2754.592       -2146.435
  -2934750.555 9  -2269035.88248  20292876.276    20292877.2424   20292882.9684
      -689.245        -537.074
  -5607975.101 9  -4362322.75146  23849838.673    23849839.3874   23849846.8134
      1088.652         848.300
 -18102410.856 9 -14087178.53748  21370803.995    21370805.3724   21370812.4204
      2303.240        1794.732
  -4878460.693 9  -3791711.58648  21160873.736    21160874.5494   21160881.1634
       185.311         144.398
 -13714483.354 9 -10430095.79747  23201933.708    23201935.3734   23201941.6884
      1723.293        1342.826
 97  4 22 16 59 30.0000000  0  6 19 27 15  7  2 26                   0.000281798
  10747077.207 9   8369224.95647  22822803.333    22822804.4974   22822811.7664
     -2763.534       -2153.403
  -2913853.277 9  -2252752.29848  20296852.920    20296853.8534   20296859.5654
      -703.717        -548.351
  -5640400.747 9  -4387589.46246  23843668.411    23843668.9504   23843676.3634
      1073.154         836.224
 -18171327.302 9 -14140879.63548  21357689.680    21357690.9994   21357698.0264
      2291.185        1785.339
  -4883939.088 9  -3795980.45948  21159831.255    21159832.0374   21159838.6424
       180.001         140.261
 -13765940.772 9 -10470192.46647  23192141.849    23192143.3554   23192149.6604
      1707.355        1330.406
 97  4 22 17  0  0.0000000  0  6 19 27 15  7  2 26                   0.000283101
  10830108.165 9   8433924.34447  22838603.596    22838604.8474   22838612.0994
     -2771.688       -2159.757
  -2892532.581 9  -2236138.77248  20300910.088    20300911.0524   20300916.7214
      -717.635        -559.196
  -5672364.517 9  -4412496.25946  23837585.848    23837586.4524   23837593.8714
      1057.787         824.250
 -18239889.314 9 -14194304.54748  21344642.802    21344644.0684   21344651.0774
      2279.625        1776.331
  -4889258.266 9  -3800125.26748  21158818.968    21158819.8524   21158826.4474
       174.595         136.048
 -13816916.567 9 -10509913.85947  23182441.577    23182442.9694   23182449.2744
      1691.360        1317.943
 97  4 22 17  0 30.0000000  0  6 19 27 15  7  2 26                   0.000284409
  10913381.312 9   8498812.45247  22854449.991    22854451.2804   22854458.5004
     -2779.821       -2166.094
  -2870800.340 9  -2219204.56448  20305045.467    20305046.5514   20305052.2434
      -731.406        -569.927
  -5703871.408 9  -4437047.03346  23831589.992    23831590.8184   23831598.2454
      1042.552         812.378
 -18308097.315 9 -14247453.60648  21331663.315    21331664.5144   21331671.5034
      2267.403        1766.808
  -4894416.367 9  -3804144.56148  21157837.386    21157838.3064   21157844.9084
       169.185         131.832
 -13867427.527 9 -10549273.04347  23172829.568    23172831.0304   23172837.3604
      1676.133        1306.078
 97  4 22 17  1  0.0000000  0  6 19 27 15  7  2 26                   0.000285716
  10996905.082 9   8563895.85247  22870344.178    22870345.3914   22870352.5964
     -2787.916       -2172.402
  -2848643.024 9  -2201939.12448  20309261.793    20309262.9544   20309268.6414
      -745.458        -580.876
  -5734917.257 9  -4461238.59446  23825682.214    23825682.9904   23825690.3594
      1027.611         800.736
 -18375935.605 9 -14300314.58148  21318754.060    21318755.2694   21318762.2774
      2255.604        1757.614
  -4899406.747 9  -3808033.16148  21156887.895    21156888.6684   21156895.2394
       163.976         127.774
 -13917481.174 9 -10588275.87347  23163304.503    23163306.0964   23163312.4794
      1661.332        1294.544
 97  4 22 17  1 30.0000000  0  6 19 27 15  7  2 26                   0.000287011
  11080684.751 9   8629178.65247  22886287.005    22886288.2224   22886295.4244
     -2796.614       -2179.180
  -2826050.030 9  -2184334.20248  20313561.202    20313562.2764   20313567.9744
      -760.110        -592.293
  -5765502.289 9  -4485071.04846  23819862.172    23819862.8424   23819870.1564
      1012.085         788.638
 -18443415.590 9 -14352896.35748  21305912.953    21305914.1974   21305921.2014
      2243.432        1748.129
  -4904228.414 9  -3811790.29848  21155970.346    21155971.1104   21155977.7024
       158.171         123.250
 -13967088.476 9 -10626930.90947  23153864.488    23153866.0904   23153872.5154
      1646.552        1283.028
 97  4 22 17  2  0.0000000  0  6 19 27 15  7  2 26                   0.000288284
  11164718.092 9   8694659.11347  22902277.949    22902279.2844   22902286.5224
     -2805.248       -2185.908
  -2803016.697 9  -2166386.15848  20317944.348    20317945.3844   20317951.0804
      -775.177        -604.034
  -5795624.435 9  -4508542.80346  23814129.698    23814130.7724   23814138.0764
       996.397         776.413
 -18510514.946 9 -14405181.54148  21293144.435    21293145.6024   21293152.6134
      2230.236        1737.846
  -4908878.548 9  -3815413.78048  21155085.471    21155086.2104   21155092.8014
       152.223         118.615
 -14016262.132 9 -10665248.03147  23144506.963    23144508.5934   23144515.0214
      1632.098        1271.765
 97  4 22 17  2 30.0000000  0  6 19 27 15  7  2 26                   0.000289530
  11249006.836 9   8760338.59147  22918317.476    22918318.9184   22918326.1824
     -2814.001       -2192.728
  -2779528.655 9  -2148083.79448  20322413.991    20322415.0094   20322420.6874
      -790.672        -616.108
  -5825281.690 9  -4531652.34046  23808486.568    23808487.2464   23808494.5024
       980.723         764.200
 -18577223.323 9 -14457162.06148  21280450.349    21280451.3914   21280458.4284
      2217.017        1727.546
  -4913360.140 9  -3818905.92548  21154232.735    21154233.3874   21154239.9694
       146.444         114.112
 -14065014.394 9 -10703236.79647  23135229.864    23135231.3384   23135237.7314
      1617.792        1260.617
 97  4 22 17  3  0.0000000  0  6 19 27 15  7  2 26                   0.000290745
  11333548.192 9   8826214.91047  22934405.276    22934406.6524   22934413.8514
     -2822.484       -2199.338
  -2755585.050 9  -2129426.44148  20326970.265    20326971.2904   20326977.0034
      -805.996        -628.049
  -5854476.397 9  -4554401.42346  23802931.084    23802931.6614   23802938.8484
       965.059         751.994
 -18643553.405 9 -14508847.81248  21267828.014    21267829.1554   21267836.1804
      2204.292        1717.630
  -4917671.066 9  -3822265.08748  21153412.382    21153413.0464   21153419.6224
       140.510         109.488
 -14113333.205 9 -10740887.81447  23126035.038    23126036.5544   23126042.8964
      1602.930        1249.036
 97  4 22 17  3 30.0000000  0  6 19 27 15  7  2 26                   0.000291942
  11418340.208 9   8892286.54847  22950540.750    22950542.0574   22950549.2944
     -2830.360       -2205.475
  -2731183.561 9  -2110412.30048  20331613.705    20331614.7584   20331620.4834
      -820.828        -639.606
  -5883194.357 9  -4576779.02746  23797466.074    23797466.8064   23797473.9964
       949.216         739.649
 -18709485.731 9 -14560223.62148  21255281.480    21255282.6554   21255289.6694
      2190.902        1707.196
  -4921801.500 9  -3825483.60348  21152626.428    21152627.0744   21152633.6314
       134.651         104.923
 -14161200.521 9 -10778187.00547  23116926.323    23116927.7574   23116934.0394
      1587.919        1237.339
 97  4 22 17  4  0.0000000  0  6 19 27 15  7  2 26                   0.000293122
  11503354.737 9   8958531.57047  22966718.512    22966719.8154   22966727.0884
     -2837.170       -2210.782
  -2706346.601 9  -2091058.82948  20336340.082    20336341.0714   20336346.8124
      -834.877        -650.553
  -5911440.430 9  -4598788.92446  23792090.945    23792091.6764   23792098.8734
       933.851         727.676
 -18775016.339 9 -14611286.40048  21242811.328    21242812.5824   21242819.6124
      2178.097        1697.218
  -4925762.656 9  -3828570.21748  21151872.571    21151873.3014   21151879.8204
       129.540         100.940
 -14208616.841 9 -10815134.77947  23107903.345    23107904.7714   23107911.0264
      1573.208        1225.876
 97  4 22 17  4 30.0000000  0  6 19 27 15  7  2 26                   0.000294288
  11588584.627 9   9024944.40347  22982936.941    22982938.5354   22982945.8574
     -2844.406       -2216.420
  -2681080.609 9  -2071371.04748  20341148.055    20341149.0254   20341154.7874
      -849.014        -661.569
  -5939216.043 9  -4620432.23146  23786805.275    23786806.1224   23786813.3604
       918.209         715.488
 -18840160.446 9 -14662048.01348  21230414.628    21230416.0364   21230423.0894
      2165.050        1687.052
  -4929568.752 9  -3831536.00248  21151148.312    21151149.0194   21151155.5264
       124.500          97.013
 -14255574.374 9 -10851725.06047  23098967.422    23098969.0684   23098975.3214
      1557.705        1213.796
 97  4 22 17  5  0.0000000  0  6 19 27 15  7  2 26                   0.000295457
  11674034.237 9   9091528.45747  22999197.570    22999199.0694   22999206.4324
     -2851.907       -2222.265
  -2655390.769 9  -2051352.99448  20346036.691    20346037.6284   20346043.3774
      -863.446        -672.815
  -5966515.300 9  -4641704.33946  23781610.498    23781611.1604   23781618.4734
       902.011         702.866
 -18904897.655 9 -14712492.55948  21218095.439    21218096.8724   21218103.9544
      2150.893        1676.021
  -4933218.724 9  -3834380.13248  21150453.683    21150454.4704   21150460.9574
       119.305          92.965
 -14302065.822 9 -10887952.14747  23090120.418    23090122.0094   23090128.3084
      1542.183        1201.701
 97  4 22 17  5 30.0000000  0  6 19 27 15  7  2 26                   0.000296616
  11759703.468 9   9158283.63947  23015499.740    23015501.4314   23015508.8354
     -2859.038       -2227.822
  -2629270.728 9  -2030999.71948  20351007.154    20351008.0934   20351013.8674
      -877.580        -683.829
  -5993335.688 9  -4662603.32846  23776507.050    23776507.4904   23776514.5394
       886.330         690.647
 -18969212.104 9 -14762607.68248  21205856.856    21205858.1774   21205865.2914
      2137.231        1665.375
  -4936728.521 9  -3837115.03848  21149785.766    21149786.5914   21149793.0514
       115.060          89.657
 -14348107.555 9 -10923828.81047  23081359.094    23081360.5494   23081366.8504
      1527.467        1190.234
 97  4 22 17  6  0.0000000  0  6 19 27 15  7  2 26                   0.000297767
  11845597.281 9   9225213.82747  23031844.978    23031846.5464   23031853.9734
     -2867.245       -2234.217
  -2602716.052 9  -2010307.76848  20356060.317    20356061.2674   20356067.0474
      -892.766        -695.662
  -6019681.107 9  -4683132.18146  23771493.412    23771494.0104   23771501.1874
       870.058         677.967
 -19033119.207 9 -14812405.39148  21193695.938    21193697.0174   21193704.1414
      2123.324        1654.538
  -4940109.135 9  -3839749.28348  21149142.489    21149143.2614   21149149.7344
       110.349          85.986
 -14393696.221 9 -10959352.43847  23072683.672    23072685.2734   23072691.6274
      1511.853        1178.067
 97  4 22 17  6 30.0000000  0  6 19 27 15  7  2 26                   0.000298917
  11931735.782 9   9292334.67047  23048236.818    23048238.2094   23048245.6884
     -2875.597       -2240.725
  -2575709.672 9  -1989263.84048  20361199.464    20361200.4204   20361206.2104
      -907.868        -707.430
  -6045543.687 9  -4703284.81946  23766572.436    23766572.5944   23766579.7054
       853.867         665.351
 -19096614.574 9 -14861882.27148  21181613.175    21181614.1834   21181621.3194
      2109.322        1643.628
  -4943353.979 9  -3842277.72848  21148524.983    21148525.7874   21148532.2554
       105.544          82.242
 -14438821.673 9 -10994515.12047  23064096.450    23064098.1964   23064104.5664
      1496.240        1165.901
 97  4 22 17  7  0.0000000  0  6 19 27 15  7  2 26                   0.000300066
  12018125.914 9   9359651.59147  23064676.323    23064677.7954   23064685.2374
     -2883.700       -2247.039
  -2548244.077 9  -1967862.08948  20366425.985    20366426.9764   20366432.7704
      -923.196        -719.374
  -6070916.564 9  -4723055.84946  23761743.905    23761744.1844   23761751.3114
       837.655         652.718
 -19159689.142 9 -14911031.25548  21169610.581    21169611.4914   21169618.6154
      2095.796        1633.088
  -4946447.167 9  -3844688.00548  21147936.440    21147937.1714   21147943.6594
       100.750          78.506
 -14483474.689 9 -11029309.67047  23055599.397    23055600.9814   23055607.3894
      1480.445        1153.593
 97  4 22 17  7 30.0000000  0  6 19 27 15  7  2 26                   0.000301211
  12104751.362 9   9427151.87347  23081160.619    23081162.1264   23081169.5864
     -2891.276       -2252.942
  -2520321.223 9  -1946104.02648  20371739.574    20371740.5384   20371746.3414
      -938.300        -731.143
  -6095805.728 9  -4742449.97946  23757008.018    23757007.9944   23757015.1144
       821.545         640.165
 -19222371.782 9 -14959874.84048  21157682.354    21157683.3624   21157690.4904
      2083.016        1623.129
  -4949393.763 9  -3846984.05248  21147375.794    21147376.4114   21147382.9464
        95.648          74.531
 -14527641.743 9 -11063725.54547  23047194.705    23047196.2324   23047202.6784
      1463.917        1140.715
 97  4 22 17  8  0.0000000  0  6 19 27 15  7  2 26                   0.000302363
  12191606.195 9   9494830.89347  23097688.683    23097690.1384   23097697.5624
     -2898.641       -2258.681
  -2491943.871 9  -1923991.81348  20377139.589    20377140.5444   20377146.3804
      -953.213        -742.763
  -6120202.856 9  -4761460.70946  23752364.975    23752365.3454   23752372.6144
       805.184         627.416
 -19284662.826 9 -15008413.28348  21145828.735    21145829.7644   21145836.8964
      2069.957        1612.954
  -4952180.604 9  -3849155.61248  21146845.501    21146846.1144   21146852.6244
        90.335          70.391
 -14571294.246 9 -11097740.47647  23038887.894    23038889.4674   23038895.8724
      1446.787        1127.366
 97  4 22 17  8 30.0000000  0  6 19 27 15  7  2 26                   0.000303514
  12278669.607 9   9562672.44747  23114256.441    23114257.8204   23114265.2244
     -2905.665       -2264.155
  -2463135.644 9  -1901543.85348  20382621.558    20382622.5884   20382628.4244
      -967.533        -753.922
  -6144118.615 9  -4780096.31046  23747813.415    23747814.2014   23747821.5064
       788.991         614.798
 -19346571.487 9 -15056653.77048  21134047.913    21134048.9434   21134056.0524
      2057.162        1602.983
  -4954815.467 9  -3851208.74948  21146344.038    21146344.7024   21146351.2494
        85.081          66.297
 -14614449.992 9 -11131368.32247  23030675.588    23030677.2114   23030683.6524
      1430.199        1114.441
 97  4 22 17  9  0.0000000  0  6 19 27 15  7  2 26                   0.000304659
  12365945.965 9   9630679.93147  23130864.706    23130866.0604   23130873.4394
     -2911.477       -2268.683
  -2433886.339 9  -1878752.19448  20388187.542    20388188.5534   20388194.4014
      -981.258        -764.617
  -6167544.322 9  -4798350.12847  23743356.258    23743356.5514   23743363.6904
       773.820         602.977
 -19408097.457 9 -15104596.05448  21122339.909    21122340.9264   21122348.0344
      2045.676        1594.033
  -4957292.161 9  -3853138.63948  21145872.773    21145873.3984   21145879.9534
        81.136          63.223
 -14657115.372 9 -11164614.05847  23022556.800    23022558.2394   23022564.7124
      1415.440        1102.940
 97  4 22 17  9 30.0000000  0  6 19 27 15  7  2 26                   0.000305762
  12453404.772 9   9698829.57647  23147507.684    23147508.9684   23147516.3404
     -2918.748       -2274.349
  -2404214.762 9  -1855631.49348  20393833.819    20393834.8624   20393840.7204
      -996.498        -776.492
  -6190500.186 9  -4816237.75846  23738987.478    23738988.0614   23738995.4254
       756.969         589.846
 -19469257.387 9 -15152253.11448  21110701.504    21110702.5594   21110709.6524
      2032.019        1583.391
  -4959639.964 9  -3854968.09548  21145425.992    21145426.6314   21145433.1984
        75.885          59.131
 -14699339.725 9 -11197516.13747  23014521.615    23014523.1704   23014529.7484
      1400.005        1090.913
 97  4 22 17 10  0.0000000  0  6 19 27 15  7  2 26                   0.000306838
  12541081.923 9   9767149.35847  23164192.128    23164193.4204   23164200.8004
     -2926.621       -2280.484
  -2374093.583 9  -1832160.45748  20399565.708    20399566.7414   20399572.6014
     -1011.768        -788.391
  -6212961.664 9  -4833740.19346  23734712.811    23734713.7194   23734721.1974
       740.288         576.848
 -19530016.839 9 -15199598.11348  21099139.371    21099140.3644   21099147.4574
      2018.430        1572.803
  -4961843.604 9  -3856685.21448  21145006.500    21145007.2644   21145013.8394
        70.893          55.241
 -14741117.683 9 -11230070.38447  23006571.518    23006573.1024   23006579.6814
      1385.169        1079.352
 97  4 22 17 10 30.0000000  0  6 19 27 15  7  2 26                   0.000307887
  12629003.201 9   9835659.36247  23180922.984    23180924.3064   23180931.7454
     -2934.817       -2286.870
  -2343508.672 9  -1808328.07048  20405385.839    20405386.8604   20405392.7124
     -1027.296        -800.490
  -6234924.771 9  -4850854.32046  23730534.056    23730534.3674   23730541.5754
       723.795         563.996
 -19590364.744 9 -15246622.42348  21087655.474    21087656.5364   21087663.6354
      2004.569        1562.002
  -4963900.289 9  -3858287.82448  21144614.998    21144615.8434   21144622.4634
        66.129          51.529
 -14782462.288 9 -11262286.95147  22998704.036    22998705.5134   22998712.0434
      1370.911        1068.242
 97  4 22 17 11  0.0000000  0  6 19 27 15  7  2 26                   0.000308905
  12717170.249 9   9904360.88747  23197700.537    23197701.9674   23197709.4214
     -2943.394       -2293.554
  -2312461.820 9  -1784135.72848  20411293.913    20411294.9064   20411300.7474
     -1042.838        -812.601
  -6256392.683 9  -4867582.56046  23726448.227    23726449.0904   23726456.2414
       706.918         550.845
 -19650290.945 9 -15293318.13648  21076251.869    21076252.9304   21076260.0214
      1990.010        1550.657
  -4965817.295 9  -3859781.59048  21144250.239    21144251.0214   21144257.6664
        61.263          47.737
 -14823374.906 9 -11294166.89947  22990918.671    22990920.1204   22990926.6334
      1355.832        1056.492
 97  4 22 17 11 30.0000000  0  6 19 27 15  7  2 26                   0.000309928
  12805596.535 9   9973264.41647  23214527.581    23214528.9984   23214536.4394
     -2952.069       -2300.314
  -2280960.876 9  -1759589.55248  20417288.383    20417289.3474   20417295.1754
     -1057.571        -824.081
  -6277356.618 9  -4883918.10446  23722458.928    23722459.7184   23722466.9354
       690.308         537.902
 -19709781.615 9 -15339674.47748  21064931.165    21064932.2414   21064939.2964
      1975.711        1539.515
  -4967589.797 9  -3861162.75848  21143912.898    21143913.7244   21143920.3624
        56.484          44.014
 -14863817.949 9 -11325680.95947  22983222.658    22983224.0894   22983230.5544
      1339.758        1043.967
 97  4 22 17 12  0.0000000  0  6 19 27 15  7  2 26                   0.000310979
  12894296.443 9  10042381.14847  23231406.653    23231408.1414   23231415.5234
     -2961.255       -2307.471
  -2249015.544 9  -1734697.10048  20423367.383    20423368.3614   20423374.2054
     -1072.282        -835.544
  -6297811.861 9  -4899857.24046  23718566.690    23718567.2674   23718574.4464
       673.193         524.566
 -19768835.192 9 -15385690.22548  21053693.598    21053694.7174   21053701.7464
      1960.941        1528.006
  -4969201.793 9  -3862418.85748  21143606.195    21143606.9784   21143613.6234
        50.812          39.594
 -14903757.659 9 -11356802.80947  22975622.445    22975623.7974   22975630.2454
      1322.795        1030.749
 97  4 22 17 12 30.0000000  0  6 19 27 15  7  2 26                   0.000312049
  12983243.344 9  10111690.34747  23248332.848    23248334.2674   23248341.6334
     -2968.747       -2313.309
  -2216640.782 9  -1709470.02648  20429528.058    20429529.0764   20429534.9164
     -1086.418        -846.559
  -6317763.314 9  -4915403.82746  23714770.231    23714770.6404   23714777.7424
       656.504         511.562
 -19827450.113 9 -15431364.16348  21042539.585    21042540.6584   21042547.6714
      1946.449        1516.714
  -4970655.334 9  -3863551.48448  21143329.568    21143330.4004   21143337.0054
        45.763          35.659
 -14943198.320 9 -11387535.79047  22968117.070    22968118.4834   22968124.9224
      1306.130        1017.764
 97  4 22 17 13  0.0000000  0  6 19 27 15  7  2 26                   0.000313138
  13072410.491 9  10181171.15947  23265300.918    23265302.2664   23265309.6684
     -2975.576       -2318.631
  -2183843.902 9  -1683914.02848  20435769.105    20435770.1204   20435775.9734
     -1100.201        -857.299
  -6337206.906 9  -4930554.68146  23711069.645    23711070.6104   23711077.6694
       639.690         498.460
 -19885631.585 9 -15476700.35248  21031467.873    21031469.1224   21031476.0814
      1932.383        1505.753
  -4971956.716 9  -3864565.54948  21143081.892    21143082.7804   21143089.3484
        40.904          31.873
 -14982126.730 9 -11417869.61047  22960709.157    22960710.6584   22960717.1094
      1289.141        1004.525
 97  4 22 17 13 30.0000000  0  6 19 27 15  7  2 26                   0.000314229
  13161775.786 9  10250806.37347  23282306.868    23282308.0214   23282315.3894
     -2981.840       -2323.512
  -2150621.448 9  -1658026.41648  20442091.148    20442092.1694   20442098.0334
     -1114.612        -868.529
  -6356141.892 9  -4945309.20946  23707466.669    23707467.4444   23707474.5494
       622.697         485.218
 -19943389.277 9 -15521706.31848  21020476.951    21020478.1734   21020485.1114
      1918.206        1494.706
  -4973100.181 9  -3865456.55748  21142864.397    21142865.1934   21142871.7574
        35.412          27.594
 -15020554.231 9 -11447813.12047  22953396.738    22953398.1734   22953404.5904
      1273.006         991.953
 97  4 22 17 14  0.0000000  0  6 19 27 15  7  2 26                   0.000315295
  13251321.107 9  10320581.87147  23299346.876    23299348.0434   23299355.3784
     -2987.870       -2328.210
  -2116956.756 9  -1631794.20248  20448497.348    20448498.3674   20448504.2174
     -1129.642        -880.240
  -6374563.051 9  -4959663.35547  23703961.088    23703961.9784   23703969.1244
       605.434         471.767
 -20000713.328 9 -15566374.38448  21009568.473    21009569.7634   21009576.6734
      1903.514        1483.258
  -4974080.771 9  -3866220.64948  21142677.786    21142678.5714   21142685.1284
        30.180          23.517
 -15058502.612 9 -11477383.28147  22946175.395    22946176.8504   22946183.2464
      1257.118         979.572
 97  4 22 17 14 30.0000000  0  6 19 27 15  7  2 26                   0.000316340
  13341061.643 9  10390509.48947  23316423.953    23316425.1794   23316432.5284
     -2994.981       -2333.751
  -2082826.589 9  -1605199.27848  20454992.085    20454993.1284   20454998.9814
     -1145.695        -892.749
  -6392454.293 9  -4973604.57247  23700556.494    23700557.3794   23700564.5154
       587.257         457.603
 -20057593.710 9 -15610696.73348  20998744.472    20998745.7994   20998752.7004
      1888.626        1471.657
  -4974900.394 9  -3866859.31748  21142521.906    21142522.5924   21142529.1554
        24.358          18.980
 -15095967.502 9 -11506576.70247  22939046.210    22939047.5344   22939053.9004
      1240.501         966.624
 97  4 22 17 15  0.0000000  0  6 19 27 15  7  2 26                   0.000317369
  13431020.589 9  10460607.28447  23333542.603    23333543.8754   23333551.2024
     -3002.333       -2339.480
  -2048223.302 9  -1578235.69348  20461576.876    20461577.9384   20461583.7834
     -1161.279        -904.893
  -6409810.626 9  -4987128.96847  23697253.979    23697254.5884   23697261.6734
       569.812         444.009
 -20114039.867 9 -15654680.72748  20988003.149    20988004.4064   20988011.3104
      1874.462        1460.620
  -4975548.439 9  -3867364.28348  21142398.509    21142399.2824   21142405.8484
        18.676          14.553
 -15132943.130 9 -11535388.87847  22932009.905    22932011.3054   22932017.6854
      1224.541         954.188
 97  4 22 17 15 30.0000000  0  6 19 27 15  7  2 26                   0.000318381
  13521219.068 9  10530891.73947  23350706.663    23350708.1124   23350715.5154
     -3010.278       -2345.671
  -2013138.622 9  -1550896.99248  20468253.303    20468254.3284   20468260.1754
     -1176.851        -917.027
  -6426635.433 9  -5000239.20247  23694052.130    23694052.9064   23694060.0954
       552.534         430.546
 -20170053.942 9 -15698328.03448  20977343.912    20977345.2594   20977352.1554
      1860.479        1449.724
  -4976009.213 9  -3867723.32948  21142310.842    21142311.6264   21142318.1574
        12.982          10.116
 -15169425.213 9 -11563816.46647  22925067.433    22925068.9964   22925075.3384
      1208.195         941.451
 97  4 22 17 16  0.0000000  0  6 19 27 15  7  2 26                   0.000319396
  13611659.914 9  10601365.04647  23367916.925    23367918.4884   23367925.8884
     -3018.707       -2352.239
  -1977599.373 9  -1523204.08248  20475016.273    20475017.2534   20475023.0914
     -1192.064        -928.881
  -6442947.429 9  -5012949.83047  23690948.056    23690948.8204   23690955.9474
       535.273         417.096
 -20225654.531 9 -15741653.14248  20966763.580    20966764.8054   20966771.6914
      1846.657        1438.954
  -4976317.747 9  -3867963.74248  21142252.262    21142252.9344   21142259.4154
         7.965           6.206
 -15205407.031 9 -11591854.24747  22918220.263    22918221.8514   22918228.2164
      1190.964         928.024
 97  4 22 17 16 30.0000000  0  6 19 27 15  7  2 26                   0.000320428
  13702359.576 9  10672040.03347  23385176.710    23385178.0904   23385185.5004
     -3027.318       -2358.949
  -1941586.465 9  -1495142.08648  20481869.315    20481870.2954   20481876.1434
     -1208.389        -941.602
  -6458733.506 9  -5025250.63447  23687944.209    23687944.7914   23687951.9184
       517.532         403.272
 -20280839.316 9 -15784654.24748  20956262.255    20956263.4934   20956270.3694
      1832.671        1428.055
  -4976460.190 9  -3868074.73248  21142225.112    21142225.8244   21142232.2694
         1.886           1.470
 -15240860.588 9 -11619480.39347  22911473.729    22911475.2554   22911481.6034
      1173.038         914.056
 97  4 22 17 17  0.0000000  0  6 19 27 15  7  2 26                   0.000321468
  13793306.690 9  10742907.83347  23402483.393    23402484.7884   23402492.2734
     -3035.861       -2365.606
  -1905081.633 9  -1466696.77348  20488815.965    20488816.9564   20488822.8004
     -1225.422        -954.874
  -6473984.787 9  -5037134.71847  23685041.819    23685042.4474   23685049.6564
       499.084         388.897
 -20335600.453 9 -15827325.23948  20945841.592    20945842.7844   20945849.6624
      1817.857        1416.512
  -4976415.293 9  -3868039.74348  21142233.670    21142234.3774   21142240.7814
        -4.959          -3.864
 -15275772.566 9 -11646684.53247  22904830.088    22904831.6844   22904838.0614
      1154.331         899.479
 97  4 22 17 17 30.0000000  0  6 19 27 15  7  2 26                   0.000322513
  13884479.644 9  10813951.61447  23419832.960    23419834.4634   23419841.9524
     -3042.845       -2371.048
  -1868092.352 9  -1437873.96948  20495854.838    20495855.8024   20495861.6694
     -1241.196        -967.166
  -6488704.450 9  -5048604.55947  23682240.525    23682241.3344   23682248.5234
       481.499         375.194
 -20389939.050 9 -15869666.97848  20935501.334    20935502.4924   20935509.3764
      1803.957        1405.681
  -4976195.477 9  -3867868.45748  21142275.485    21142276.1764   21142282.5754
       -10.297          -8.024
 -15310144.247 9 -11673467.66247  22898289.325    22898290.9504   22898297.3434
      1136.599         885.662
 97  4 22 17 18  0.0000000  0  6 19 27 15  7  2 26                   0.000323552
  13975855.195 9  10885153.25747  23437221.356    23437222.6994   23437230.1714
     -3048.988       -2375.835
  -1830619.592 9  -1408674.42748  20502985.639    20502986.6514   20502992.5184
     -1257.144        -979.593
  -6502889.874 9  -5059658.11047  23679541.244    23679541.9904   23679549.1394
       464.036         361.586
 -20443851.238 9 -15911676.44948  20925242.072    20925243.3084   20925250.2194
      1790.083        1394.870
  -4975808.621 9  -3867567.00448  21142349.102    21142349.8324   21142356.1834
       -15.781         -12.297
 -15343990.413 9 -11699841.29647  22891848.743    22891850.2484   22891856.6404
      1119.873         872.628
 97  4 22 17 18 30.0000000  0  6 19 27 15  7  2 26                   0.000324561
  14067424.148 9  10956505.60347  23454646.541    23454647.7434   23454655.1924
     -3055.392       -2380.825
  -1792664.166 9  -1379098.78548  20510208.282    20510209.3324   20510215.2084
     -1272.750        -991.753
  -6516541.315 9  -5070295.55847  23676943.433    23676944.2174   23676951.2694
       446.336         347.794
 -20497340.238 9 -15953356.16448  20915063.335    20915064.6304   20915071.5814
      1776.070        1383.951
  -4975242.094 9  -3867125.55548  21142456.959    21142457.6514   21142464.0074
       -21.710         -16.917
 -15377336.735 9 -11725825.45247  22885503.179    22885504.6724   22885511.0364
      1103.497         859.868
 97  4 22 17 19  0.0000000  0  6 19 27 15  7  2 26                   0.000325531
  14159172.660 9  11027997.87847  23472105.768    23472106.9354   23472114.4404
     -3061.471       -2385.562
  -1754277.971 9  -1349187.47448  20517512.922    20517513.9864   20517519.8394
     -1286.631       -1002.570
  -6529680.126 9  -5080533.56047  23674443.122    23674443.9854   23674451.1014
       429.330         334.543
 -20550424.156 9 -15994720.23148  20904961.885    20904963.0964   20904970.0724
      1762.491        1373.370
  -4974517.895 9  -3866561.23848  21142594.738    21142595.4514   21142601.8154
       -26.745         -20.840
 -15410218.447 9 -11751447.55747  22879246.061    22879247.5324   22879253.8554
      1088.353         848.067
 97  4 22 17 19 30.0000000  0  6 19 27 15  7  2 26                   0.000326474
  14251113.747 9  11099640.19447  23489601.511    23489602.7824   23489610.3004
     -3067.839       -2390.524
  -1715462.843 9  -1318941.93648  20524899.158    20524900.2754   20524906.1254
     -1300.913       -1013.698
  -6542295.976 9  -5090364.07947  23672042.517    23672043.3154   23672050.3224
       411.875         320.942
 -20603078.780 9 -16035749.78448  20894942.052    20894943.2264   20894950.2194
      1748.042        1362.111
  -4973635.882 9  -3865873.95348  21142762.520    21142763.2904   21142769.6304
       -31.776         -24.761
 -15442632.589 9 -11776705.33647  22873077.940    22873079.3624   22873085.6124
      1072.817         835.961
 97  4 22 17 20  0.0000000  0  6 19 27 15  7  2 26                   0.000327399
  14343261.627 9  11171443.65946  23507136.776    23507137.9984   23507145.5114
     -3075.307       -2396.343
  -1676210.542 9  -1288355.74148  20532368.662    20532369.7134   20532375.6074
     -1315.665       -1025.194
  -6554381.397 9  -5099781.24747  23669742.733    23669743.5634   23669750.5144
       393.874         306.915
 -20655284.411 9 -16076429.47148  20885007.642    20885008.7894   20885015.7674
      1732.511        1350.009
  -4972599.139 9  -3865066.09348  21142959.900    21142960.5894   21142966.8924
       -37.003         -28.834
 -15474574.414 9 -11801595.05947  22866999.742    22867001.0334   22867007.2604
      1056.680         823.387
 97  4 22 17 20 30.0000000  0  6 19 27 15  7  2 26                   0.000328332
  14435636.236 9  11243423.79246  23524714.967    23524716.3244   23524723.9024
     -3083.015       -2402.349
  -1636524.667 9  -1257431.69548  20539920.663    20539921.6734   20539927.5854
     -1330.322       -1036.615
  -6565923.745 9  -5108775.25547  23667546.426    23667547.1194   23667554.0584
       375.499         292.597
 -20707020.262 9 -16116743.09448  20875162.704    20875163.7864   20875170.7584
      1716.514        1337.543
  -4971414.713 9  -3864143.15748  21143185.246    21143185.9644   21143192.2734
       -41.937         -32.678
 -15506025.115 9 -11826102.09447  22861014.946    22861016.1754   22861022.3854
      1039.877         810.294
 97  4 22 17 21  0.0000000  0  6 19 27 15  7  2 26                   0.000329268
  14528218.899 9  11315566.04546  23542332.750    23542334.2474   23542341.8644
     -3089.526       -2407.423
  -1596398.110 9  -1226164.26648  20547556.588    20547557.5544   20547563.4614
     -1345.360       -1048.332
  -6576931.519 9  -5117352.72547  23665451.663    23665452.3724   23665459.3664
       357.976         278.942
 -20758288.675 9 -16156692.48448  20865406.553    20865407.7204   20865414.6744
      1701.045        1325.490
  -4970103.094 9  -3863121.11248  21143434.739    21143435.5594   21143441.8814
       -45.896         -35.763
 -15536980.636 9 -11850223.27947  22855124.189    22855125.5484   22855131.7004
      1023.335         797.404
 97  4 22 17 21 30.0000000  0  6 19 27 15  7  2 26                   0.000330211
  14621006.625 9  11387868.07746  23559989.666    23559991.2144   23559998.8294
     -3096.758       -2413.058
  -1555797.075 9  -1194527.11048  20555282.785    20555283.6954   20555289.6194
     -1361.439       -1060.861
  -6587401.927 9  -5125511.44847  23663459.136    23663459.8414   23663466.8654
       339.788         264.770
 -20809085.052 9 -16196274.05548  20855740.204    20855741.4724   20855748.4144
      1685.341        1313.253
  -4968666.648 9  -3862001.79548  21143708.110    21143708.9024   21143715.2084
       -50.182         -39.103
 -15567418.161 9 -11873940.83047  22849332.177    22849333.4584   22849339.6004
      1005.634         783.611
 97  4 22 17 22  0.0000000  0  6 19 27 15  7  2 26                   0.000331173
  14714021.848 9  11460347.38246  23577689.874    23577691.4974   23577699.1374
     -3103.737       -2418.496
  -1514718.808 9  -1162518.08548  20563099.706    20563100.6414   20563106.5924
     -1376.721       -1072.770
  -6597326.215 9  -5133244.63947  23661570.401    23661571.2884   23661578.2554
       322.172         251.043
 -20859417.357 9 -16235494.00748  20846162.296    20846163.5234   20846170.4194
      1670.683        1301.831
  -4967093.015 9  -3860775.58148  21144007.608    21144008.3734   21144014.6684
       -54.483         -42.454
 -15597322.920 9 -11897243.23947  22843641.411    22843642.7354   22843648.8944
       988.479         770.243
 97  4 22 17 22 30.0000000  0  6 19 27 15  7  2 26                   0.000332136
  14807247.528 9  11532990.68346  23595430.141    23595431.8544   23595439.4934
     -3111.179       -2424.295
  -1473167.488 9  -1130140.44748  20571006.653    20571007.5984   20571013.5824
     -1393.332       -1085.713
  -6606710.087 9  -5140556.71447  23659784.989    23659785.5594   23659792.5434
       303.619         236.586
 -20909311.198 9 -16274372.30048  20836667.838    20836669.0504   20836675.9114
      1655.787        1290.224
  -4965365.786 9  -3859429.68248  21144336.429    21144337.0584   21144343.3374
       -60.488         -47.134
 -15626703.440 9 -11920137.15247  22838050.573    22838051.7934   22838057.9404
       970.466         756.207
 97  4 22 17 23  0.0000000  0  6 19 27 15  7  2 26                   0.000333091
  14900688.400 9  11605801.66346  23613211.484    23613213.1494   23613220.7284
     -3118.214       -2429.777
  -1431128.010 9  -1097382.42448  20579006.549    20579007.4734   20579013.4544
     -1409.039       -1097.952
  -6615553.839 9  -5147447.92947  23658102.206    23658102.6454   23658109.5914
       285.967         222.831
 -20958778.315 9 -16312918.08448  20827254.613    20827255.7994   20827262.6284
      1642.003        1279.483
  -4963467.043 9  -3857950.13848  21144697.604    21144698.3304   21144704.6254
       -66.058         -51.474
 -15655557.846 9 -11942621.10747  22832559.792    22832560.9644   22832567.1474
       953.288         742.822
 97  4 22 17 23 30.0000000  0  6 19 27 15  7  2 26                   0.000334046
  14994359.385 9  11678791.96146  23631036.544    23631038.2664   23631045.7754
     -3126.116       -2435.935
  -1388624.667 9  -1064262.95148  20587094.681    20587095.6194   20587101.5874
     -1424.079       -1109.672
  -6623854.822 9  -5153916.21047  23656522.455    23656523.0934   23656529.9404
       267.672         208.576
 -21007820.097 9 -16351132.43848  20817922.297    20817923.4594   20817930.2554
      1627.550        1268.221
  -4961391.060 9  -3856332.48248  21145092.637    21145093.3834   21145099.6674
       -72.072         -56.160
 -15683891.846 9 -11964699.54647  22827168.020    22827169.1804   22827175.3904
       936.024         729.369
 97  4 22 17 24  0.0000000  0  6 19 27 15  7  2 26                   0.000334990
  15088243.654 9  11751948.43946  23648902.168    23648903.9484   23648911.4144
     -3133.041       -2441.331
  -1345690.254 9  -1030807.57448  20595264.852    20595265.7724   20595271.7404
     -1438.743       -1121.098
  -6631616.938 9  -5159964.59547  23655045.310    23655046.0014   23655052.7654
       249.430         194.361
 -21056426.790 9 -16389007.75748  20808672.687    20808673.9274   20808680.6874
      1612.456        1256.459
  -4959140.297 9  -3854578.63448  21145521.079    21145521.7274   21145527.9624
       -78.210         -60.943
 -15711726.442 9 -11986388.83147  22821871.226    22821872.4484   22821878.6704
       919.347         716.374
 97  4 22 17 24 30.0000000  0  6 19 27 15  7  2 26                   0.000335929
  15182335.396 9  11825266.60246  23666807.565    23666809.0694   23666816.5434
     -3139.755       -2446.562
  -1302310.756 9   -997005.38248  20603519.728    20603520.6314   20603526.6384
     -1453.105       -1132.290
  -6638828.901 9  -5165584.29247  23653672.960    23653673.6154   23653680.3474
       231.434         180.338
 -21104571.641 9 -16426523.20348  20799510.999    20799512.2374   20799519.0004
      1597.212        1244.581
  -4956717.084 9  -3852690.41148  21145982.181    21145982.8674   21145989.0994
       -83.070         -64.730
 -15739054.288 9 -12007683.25947  22816670.986    22816672.1504   22816678.3834
       902.643         703.358
 97  4 22 17 25  0.0000000  0  6 19 27 15  7  2 26                   0.000336879
  15276649.158 9  11898757.75446  23684754.880    23684756.4634   23684763.9794
     -3147.289       -2452.433
  -1258496.033 9   -962864.05548  20611857.412    20611858.3024   20611864.3314
     -1467.462       -1143.477
  -6645487.819 9  -5170773.05247  23652405.622    23652406.4374   23652413.1414
       212.739         165.771
 -21152244.034 9 -16463670.50248  20790439.303    20790440.4464   20790447.2254
      1581.229        1232.126
  -4954142.861 9  -3850684.51848  21146472.033    21146472.6974   21146478.9294
       -88.298         -68.804
 -15765866.978 9 -12028576.27147  22811568.631    22811569.8824   22811576.1204
       885.235         689.793
 97  4 22 17 25 30.0000000  0  6 19 27 15  7  2 26                   0.000337834
  15371163.905 9  11972405.52446  23702740.931    23702742.1374   23702749.7394
     -3153.847       -2457.543
  -1214264.600 9   -928398.02048  20620274.386    20620275.2554   20620281.3134
     -1481.639       -1154.524
  -6651599.435 9  -5175535.33047  23651242.779    23651243.4204   23651250.1494
       194.486         151.548
 -21199446.698 9 -16500451.77548  20781456.843    20781458.0254   20781464.7934
      1565.494        1219.865
  -4951424.423 9  -3848566.24948  21146989.303    21146989.9944   21146996.2214
       -93.096         -72.542
 -15792175.061 9 -12049076.07647  22806562.267    22806563.6404   22806569.8664
       868.391         676.668
 97  4 22 17 26  0.0000000  0  6 19 27 15  7  2 26                   0.000338786
  15465871.018 9  12046203.17946  23720763.179    23720764.3694   23720772.0364
     -3160.097       -2462.413
  -1169595.708 9   -893591.10748  20628774.545    20628775.4704   20628781.5504
     -1496.424       -1166.045
  -6657161.448 9  -5179869.36547  23650184.398    23650184.9904   23650191.7124
       176.408         137.461
 -21246186.040 9 -16536872.02248  20772562.666    20772563.8224   20772570.5864
      1550.719        1208.352
  -4948563.271 9  -3846336.77548  21147533.754    21147534.4604   21147540.6814
       -97.548         -76.011
 -15817972.955 9 -12069178.33647  22801653.032    22801654.4784   22801660.6914
       851.509         663.514
 97  4 22 17 26 30.0000000  0  6 19 27 15  7  2 26                   0.000339739
  15560786.906 9  12120163.52546  23738825.031    23738826.3174   23738833.9524
     -3167.685       -2468.326
  -1124468.705 9   -858427.21948  20637361.978    20637362.8564   20637368.9414
     -1512.114       -1178.271
  -6662174.358 9  -5183775.50747  23649230.252    23649231.0254   23649237.8294
       157.737         122.912
 -21292488.494 9 -16572951.82948  20763751.573    20763752.7534   20763759.5014
      1536.096        1196.958
  -4945565.707 9  -3844001.00448  21148104.151    21148104.8964   21148111.0764
      -102.395         -79.788
 -15843257.470 9 -12088880.55247  22796841.570    22796843.0124   22796849.2024
       833.998         649.869
 97  4 22 17 27  0.0000000  0  6 19 27 15  7  2 26                   0.000340694
  15655917.283 9  12194291.00146  23756927.561    23756928.9954   23756936.7604
     -3174.146       -2473.361
  -1078873.866 9   -822898.78748  20646038.411    20646039.2904   20646045.3714
     -1527.560       -1190.306
  -6666638.140 9  -5187253.74847  23648381.043    23648381.4994   23648388.3374
       139.860         108.982
 -21338367.245 9 -16608701.48648  20755021.166    20755022.2934   20755029.0374
      1522.370        1186.262
  -4942425.570 9  -3841554.14148  21148701.731    21148702.4734   21148708.6234
      -106.951         -83.338
 -15868027.441 9 -12108181.83148  22792128.091    22792129.4504   22792135.6254
       817.421         636.951
 97  4 22 17 27 30.0000000  0  6 19 27 15  7  2 26                   0.000341633
  15751249.244 9  12268575.55046  23775068.639    23775070.1234   23775077.9184
     -3181.518       -2479.105
  -1032789.395 9   -786988.82148  20654808.064    20654808.8724   20654814.9674
     -1544.837       -1203.769
  -6670551.336 9  -5190302.97747  23647636.316    23647636.8314   23647643.6334
       120.833          94.156
 -21383813.275 9 -16644113.95348  20746373.011    20746374.1614   20746380.8964
      1507.156        1174.407
  -4939137.370 9  -3838991.89948  21149327.524    21149328.2134   21149334.3414
      -112.302         -87.508
 -15892290.383 9 -12127088.01648  22787511.029    22787512.4194   22787518.5344
       799.842         623.254
 97  4 22 17 28  0.0000000  0  6 19 27 15  7  2 26                   0.000342572
  15846789.128 9  12343022.12446  23793249.118    23793250.8104   23793258.6224
     -3187.887       -2484.068
   -986200.106 9   -750685.49348  20663673.641    20663674.5174   20663680.6204
     -1561.252       -1216.560
  -6673905.691 9  -5192916.75447  23646997.857    23646998.4814   23647005.2914
       102.567          79.922
 -21428815.837 9 -16679180.86448  20737809.351    20737810.4564   20737817.1924
      1492.727        1163.164
  -4935711.402 9  -3836322.30848  21149979.482    21149980.1464   21149986.2494
      -116.387         -90.691
 -15916030.825 9 -12145587.06248  22782993.326    22782994.7644   22783000.8424
       782.702         609.898
 97  4 22 17 28 30.0000000  0  6 19 27 15  7  2 26                   0.000343510
  15942526.531 9  12417622.60646  23811467.530    23811468.9904   23811476.9914
     -3194.686       -2489.366
   -939112.824 9   -713994.11648  20672633.998    20672634.9404   20672641.0244
     -1577.989       -1229.602
  -6676704.708 9  -5195097.79147  23646465.236    23646465.8214   23646472.6824
        83.760          65.267
 -21473369.084 9 -16713897.65648  20729331.122    20729332.2534   20729339.0034
      1477.179        1151.049
  -4932148.947 9  -3833546.36248  21150657.306    21150658.0454   21150664.1384
      -121.362         -94.568
 -15939248.712 9 -12163678.92148  22778575.340    22778576.5864   22778582.6094
       764.862         595.996
 97  4 22 17 29  0.0000000  0  6 19 27 15  7  2 26                   0.000344439
  16038445.873 9  12492364.85546  23829720.274    23829721.7684   23829729.9654
     -3200.882       -2494.194
   -891533.855 9   -676919.61348  20681688.010    20681688.9194   20681695.0054
     -1594.690       -1242.616
  -6678946.096 9  -5196844.31247  23646038.349    23646039.2884   23646046.2344
        64.710          50.423
 -21517458.374 9 -16748252.93348  20720941.146    20720942.3444   20720949.0714
      1461.099        1138.519
  -4928436.736 9  -3830653.72948  21151363.901    21151364.4394   21151370.5284
      -127.199         -99.116
 -15961935.342 9 -12181356.82048  22774258.120    22774259.4794   22774265.5034
       746.704         581.847
 97  4 22 17 29 30.0000000  0  6 19 27 15  7  2 26                   0.000345374
  16134560.096 9  12567258.96446  23848010.273    23848011.7434   23848019.9244
     -3207.097       -2499.037
   -843458.716 9   -639458.48148  20690836.360    20690837.3104   20690843.3934
     -1610.473       -1254.914
  -6680604.579 9  -5198136.61547  23645722.659    23645723.6934   23645730.6044
        45.566          35.506
 -21561054.098 9 -16782223.59948  20712645.290    20712646.3684   20712653.0584
      1445.107        1126.057
  -4924534.009 9  -3827612.63548  21152106.396    21152107.0994   21152113.1654
      -133.257        -103.837
 -15984063.354 9 -12198599.42348  22770047.344    22770048.6484   22770054.6824
       728.159         567.397
 97  4 22 17 30  0.0000000  0  6 19 27 15  7  2 26                   0.000346305
  16230842.507 9  12642284.12446  23866332.746    23866333.7944   23866342.0104
     -3212.485       -2503.235
   -794937.583 9   -601649.82048  20700069.564    20700070.5924   20700076.6444
     -1624.963       -1266.205
  -6681705.850 9  -5198994.71247  23645513.017    23645514.0654   23645521.0354
        27.169          21.171
 -21604193.085 9 -16815838.37448  20704436.217    20704437.3134   20704443.9744
      1430.164        1114.414
  -4920457.662 9  -3824436.25548  21152882.063    21152882.7734   21152888.8404
      -139.186        -108.457
 -16005650.716 9 -12215420.74848  22765939.358    22765940.7024   22765946.7714
       710.546         553.672
 97  4 22 17 30 30.0000000  0  6 19 27 15  7  2 26                   0.000347214
  16327291.427 9  12717439.01946  23884686.243    23884687.4704   23884695.7834
     -3217.868       -2507.430
   -745980.439 9   -563501.41148  20709385.844    20709386.8604   20709392.8804
     -1639.124       -1277.239
  -6682252.898 9  -5199420.95747  23645408.718    23645409.9614   23645416.9144
         8.897           6.933
 -21646882.880 9 -16849103.12748  20696312.560    20696313.7424   20696320.3834
      1415.467        1102.961
  -4916192.807 9  -3821112.98748  21153693.691    21153694.3134   21153700.4054
      -145.318        -113.235
 -16026714.469 9 -12231834.06848  22761931.169    22761932.4074   22761938.4634
       693.331         540.258
 97  4 22 17 31  0.0000000  0  6 19 27 15  7  2 26                   0.000348116
  16423925.828 9  12792738.45346  23903075.574    23903076.5034   23903084.8534
     -3224.100       -2512.286
   -696585.669 9   -525011.99548  20718785.371    20718786.3914   20718792.3794
     -1653.646       -1288.555
  -6682232.065 9  -5199404.72447  23645412.379    23645413.9324   23645420.8634
       -10.053          -7.834
 -21689111.303 9 -16882008.36948  20688276.782    20688277.9434   20688284.5594
      1399.941        1090.863
  -4911728.509 9  -3817634.30748  21154543.122    21154543.8394   21154549.9024
      -151.948        -118.401
 -16047243.749 9 -12247830.90948  22758024.599    22758025.8224   22758031.8794
       675.706         526.524
 97  4 22 17 31 30.0000000  0  6 19 27 15  7  2 26                   0.000349006
  16520742.240 9  12868179.70246  23921499.012    23921500.1794   23921508.4904
     -3230.045       -2516.918
   -646761.702 9   -486188.14248  20728266.582    20728267.5814   20728273.5924
     -1667.888       -1299.653
  -6681651.245 9  -5198952.10547  23645523.118    23645524.4304   23645531.3304
       -28.380         -22.114
 -21730879.080 9 -16914554.66148  20680328.671    20680329.7704   20680336.3694
      1384.936        1079.171
  -4907088.498 9  -3814018.71048  21155426.022    21155426.8114   21155432.8754
      -156.837        -122.211
 -16067254.145 9 -12263423.42948  22754216.712    22754217.9304   22754224.0784
       658.720         513.288
 97  4 22 17 32  0.0000000  0  6 19 27 15  7  2 26                   0.000349888
  16617743.205 9  12943764.76046  23939957.709    23939959.0004   23939967.2344
     -3236.068       -2521.611
   -596493.128 9   -447017.84548  20737832.363    20737833.3854   20737839.3994
     -1682.847       -1311.309
  -6680517.087 9  -5198068.33647  23645738.932    23645740.1964   23645747.1324
       -46.670         -36.366
 -21772197.110 9 -16946750.50648  20672466.071    20672467.1854   20672473.7764
      1370.236        1067.716
  -4902307.508 9  -3810293.26148  21156335.833    21156336.6324   21156342.6654
      -161.276        -125.670
 -16086756.169 9 -12278619.81648  22750505.490    22750506.8294   22750512.9694
       641.982         500.246
 97  4 22 17 32 30.0000000  0  6 19 27 15  7  2 26                   0.000350769
  16714933.348 8  13019497.21846  23958452.274    23958453.7784   23958461.9954
     -3243.007       -2527.018
   -545765.146 9   -407489.56348  20747485.583    20747486.6074   20747492.6174
     -1698.636       -1323.612
  -6678825.718 9  -5196750.37147  23646060.959    23646062.0554   23646069.0064
       -65.828         -51.294
 -21813068.073 9 -16978597.98648  20664688.580    20664689.6724   20664696.2484
      1354.821        1055.705
  -4897392.407 9  -3806463.30548  21157271.193    21157271.9354   21157277.9784
      -166.100        -129.429
 -16105742.371 9 -12293414.26348  22746892.582    22746893.8584   22746900.0174
       623.977         486.216
 97  4 22 17 33  0.0000000  0  6 19 27 15  7  2 26                   0.000351669
  16812326.964 9  13095388.23446  23976985.812    23976987.3454   23976995.4314
     -3249.443       -2532.034
   -494569.048 9   -367596.52448  20757227.935    20757228.9224   20757234.9414
     -1714.296       -1335.815
  -6676567.756 9  -5194990.89547  23646490.773    23646491.7314   23646498.6354
       -84.453         -65.808
 -21853481.413 9 -17010088.87648  20656998.130    20656999.2094   20657005.7704
      1339.640        1043.875
  -4892343.178 9  -3802528.83948  21158231.909    21158232.7624   21158238.8174
      -170.367        -132.754
 -16124192.776 9 -12307791.20548  22743381.496    22743382.8654   22743389.0444
       606.320         472.457
 97  4 22 17 33 30.0000000  0  6 19 27 15  7  2 26                   0.000352580
  16909914.418 9  13171430.29346  23995556.206    23995557.7304   23995565.8424
     -3256.477       -2537.515
   -442895.527 9   -327331.46148  20767061.147    20767062.0864   20767068.1124
     -1730.668       -1348.572
  -6673746.469 9  -5192792.46447  23647027.621    23647028.5444   23647035.4684
      -103.792         -80.877
 -21893438.883 9 -17041224.54548  20649394.442    20649395.5414   20649402.0784
      1324.075        1031.747
  -4887162.760 9  -3798492.14648  21159217.798    21159218.5384   21159224.6094
      -175.133        -136.467
 -16142107.214 9 -12321750.51048  22739972.446    22739973.8664   22739980.0484
       587.813         458.036
 97  4 22 17 34  0.0000000  0  6 19 27 15  7  2 26                   0.000353510
  17007698.510 9  13247625.56846  24014163.941    24014165.4164   24014173.6744
     -3262.670       -2542.340
   -390754.602 9   -286702.18948  20776983.206    20776984.1774   20776990.2404
     -1745.639       -1360.238
  -6670354.906 9  -5190149.67747  23647673.155    23647673.9254   23647680.8064
      -122.611         -95.541
 -21932943.156 9 -17072007.07548  20641877.034    20641878.1454   20641884.6494
      1309.047        1020.037
  -4881840.514 9  -3794344.94148  21160230.498    21160231.3244   21160237.3934
      -180.117        -140.351
 -16159478.770 9 -12335286.79248  22736666.746    22736668.1894   22736674.3534
       569.969         444.132
 97  4 22 17 34 30.0000000  0  6 19 27 15  7  2 26                   0.000354441
  17105660.824 9  13323959.71546  24032805.787    24032807.1404   24032815.3804
     -3268.257       -2546.694
   -338176.693 9   -245732.41448  20786988.463    20786989.4084   20786995.5154
     -1759.690       -1371.187
  -6666403.696 9  -5187070.78747  23648424.918    23648425.8444   23648432.6634
      -140.923        -109.810
 -21971984.429 9 -17102428.82448  20634447.674    20634448.8204   20634455.3204
      1293.457        1007.889
  -4876368.786 9  -3790081.25848  21161271.764    21161272.5784   21161278.6084
      -184.828        -144.022
 -16176321.111 9 -12348410.70148  22733461.766    22733463.2104   22733469.3704
       552.870         430.808
 97  4 22 17 35  0.0000000  0  6 19 27 15  7  2 26                   0.000355357
  17203793.516 9  13400426.62546  24051479.953    24051481.2224   24051489.4634
     -3273.444       -2550.736
   -285170.816 9   -204429.15648  20797075.079    20797076.1074   20797082.2414
     -1773.936       -1382.288
  -6661902.757 9  -5183563.53847  23649281.936    23649282.3784   23649289.1204
      -158.960        -123.865
 -22010542.444 9 -17132474.00848  20627110.263    20627111.4424   20627117.9074
      1277.234         995.247
  -4870753.003 9  -3785705.32348  21162340.484    21162341.2324   21162347.2714
      -189.454        -147.626
 -16192652.137 9 -12361136.18248  22730354.121    22730355.5174   22730361.7104
       536.057         417.707
 97  4 22 17 35 30.0000000  0  6 19 27 15  7  2 26                   0.000356253
  17302089.978 9  13477021.14946  24070185.031    24070186.5694   24070194.7514
     -3279.487       -2555.444
   -231727.667 9   -162785.16548  20807244.999    20807246.0294   20807252.1694
     -1788.818       -1393.884
  -6656842.831 9  -5179620.72047  23650244.411    23650245.1934   23650251.9644
      -178.268        -138.910
 -22048604.359 9 -17162132.62448  20619867.332    20619868.5184   20619874.9334
      1260.415         982.142
  -4864976.264 9  -3781203.96848  21163439.829    21163440.5434   21163446.5564
      -195.499        -152.337
 -16208464.133 9 -12373457.22248  22727345.184    22727346.6164   22727352.8254
       518.173         403.771
 97  4 22 17 36  0.0000000  0  6 19 27 15  7  2 26                   0.000357131
  17400556.378 9  13553748.08946  24088922.230    24088924.1854   24088932.4154
     -3285.161       -2559.866
   -177841.252 9   -120795.76848  20817499.292    20817500.2784   20817506.4494
     -1804.113       -1405.802
  -6651213.025 9  -5175233.84947  23651315.639    23651316.4494   23651323.2694
      -197.381        -153.803
 -22086175.288 9 -17191408.65348  20612717.881    20612719.0214   20612725.4184
      1244.096         969.425
  -4859021.978 9  -3776564.26448  21164572.905    21164573.6014   21164579.6534
      -201.825        -157.266
 -16223749.952 9 -12385368.25248  22724436.460    22724437.8154   22724444.0454
       500.474         389.980
 97  4 22 17 36 30.0000000  0  6 19 27 15  7  2 26                   0.000357991
  17499183.755 9  13630600.46946  24107690.849    24107692.5594   24107700.7614
     -3290.326       -2563.890
   -123491.293 9    -78445.17448  20827841.823    20827842.7554   20827848.9464
     -1819.520       -1417.808
  -6645016.945 9  -5170405.71947  23652494.643    23652495.4854   23652502.3404
      -216.050        -168.351
 -22123274.855 9 -17220317.38748  20605658.139    20605659.1844   20605665.5754
      1229.078         957.723
  -4852891.499 9  -3771787.27048  21165739.477    21165740.1884   21165746.2404
      -207.107        -161.382
 -16238510.421 9 -12396869.91748  22721627.765    22721628.9684   22721635.2144
       483.263         376.569
 97  4 22 17 37  0.0000000  0  6 19 27 15  7  2 26                   0.000358838
  17597974.966 9  13707580.50946  24126490.573    24126491.9914   24126500.2584
     -3295.825       -2568.175
    -68661.789 9    -35720.90648  20838275.557    20838276.4974   20838282.7084
     -1835.806       -1430.498
  -6638250.929 9  -5165133.47347  23653782.108    23653782.9454   23653789.8044
      -235.175        -183.253
 -22159930.693 9 -17248880.35848  20598682.760    20598683.8144   20598690.1874
      1214.608         946.448
  -4846592.144 9  -3766878.68048  21166938.181    21166938.9244   21166944.9684
      -212.911        -165.905
 -16252741.104 9 -12407958.76548  22718919.583    22718920.9524   22718927.1864
       465.353         362.613
 97  4 22 17 37 30.0000000  0  6 19 27 15  7  2 26                   0.000359663
  17696900.733 9  13784665.40146  24145315.741    24145317.0914   24145325.3514
     -3300.631       -2571.920
    -13384.491 9      7352.29448  20848794.467    20848795.4464   20848801.6604
     -1850.601       -1442.027
  -6630943.247 9  -5159439.14547  23655172.691    23655173.4934   23655180.4314
      -253.288        -197.367
 -22196203.183 9 -17277144.61548  20591780.345    20591781.3844   20591787.7654
      1202.201         936.780
  -4840158.317 9  -3761865.30548  21168162.507    21168163.2444   21168169.2994
      -217.154        -169.211
 -16266474.987 9 -12418660.49248  22716306.070    22716307.4884   22716313.7044
       448.975         349.851
 97  4 22 17 38  0.0000000  0  6 19 27 15  7  2 26                   0.000360486
  17795994.826 9  13861881.45246  24164173.031    24164174.1854   24164182.4074
     -3306.298       -2576.336
     42358.067 9     50788.02948  20859401.910    20859402.9144   20859409.1404
     -1866.169       -1454.158
  -6623074.271 9  -5153307.46647  23656669.949    23656670.8744   23656677.8834
      -271.946        -211.906
 -22232077.483 9 -17305098.59748  20584953.583    20584954.7194   20584961.1064
      1188.576         926.163
  -4833591.371 9  -3756748.20348  21169412.138    21169412.8994   21169418.9834
      -221.304        -172.445
 -16279700.024 9 -12428965.72148  22713789.414    22713790.8384   22713797.0754
       432.059         336.669
 97  4 22 17 38 30.0000000  0  6 19 27 15  7  2 26                   0.000361323
  17895278.986 9  13939245.60246  24183066.453    24183067.4034   24183075.6934
     -3312.844       -2581.437
     98574.749 9     94593.21648  20870099.562    20870100.6054   20870106.8394
     -1881.586       -1466.171
  -6614632.967 9  -5146729.82647  23658276.393    23658277.2374   23658284.2004
      -290.890        -226.668
 -22267511.710 9 -17332709.66548  20578210.733    20578211.7994   20578218.1814
      1173.460         914.384
  -4826889.529 9  -3751525.98748  21170687.437    21170688.2054   21170694.2824
      -225.658        -175.837
 -16292399.657 9 -12438861.54548  22711372.598    22711374.1924   22711380.4314
       414.498         322.985
 97  4 22 17 39  0.0000000  0  6 19 27 15  7  2 26                   0.000362177
  17994768.001 9  14016769.38546  24201998.484    24201999.6284   24202007.8904
     -3319.785       -2586.845
    155250.236 9    138755.91648  20880884.582    20880885.5944   20880891.8364
     -1896.812       -1478.035
  -6605619.934 9  -5139706.67247  23659991.410    23659992.3194   23659999.2724
      -310.132        -241.661
 -22302473.685 9 -17359952.74048  20571557.622    20571558.7474   20571565.1444
      1157.020         901.574
  -4820046.768 9  -3746193.96348  21171989.516    21171990.3374   21171996.4014
      -230.631        -179.712
 -16304565.955 9 -12448341.78148  22709057.449    22709059.0484   22709065.3014
       396.376         308.864
 97  4 22 17 39 30.0000000  0  6 19 27 15  7  2 26                   0.000363052
  18094455.503 9  14094447.83046  24220968.638    24220969.5564   24220977.9084
     -3325.848       -2591.570
    212369.875 9    183264.70648  20891754.160    20891755.1244   20891761.3544
     -1911.266       -1489.298
  -6596036.271 9  -5132238.86547  23661815.127    23661815.9964   23661822.9434
      -328.784        -256.195
 -22336944.515 9 -17386813.10948  20564998.013    20564999.1304   20565005.5504
      1140.961         889.061
  -4813068.476 9  -3740756.33148  21173317.482    21173318.2804   21173324.3214
      -234.626        -182.825
 -16316190.341 9 -12457399.74948  22706845.450    22706846.9944   22706853.2634
       378.550         294.974
 97  4 22 17 40  0.0000000  0  6 19 27 15  7  2 26                   0.000363945
  18194333.082 9  14172274.36746  24239974.680    24239975.7304   24239984.0774
     -3332.215       -2596.531
    269941.520 9    228125.70948  20902709.705    20902710.6894   20902716.9074
     -1926.544       -1501.203
  -6585879.357 9  -5124324.38247  23663747.779    23663748.7714   23663755.7094
      -348.052        -271.209
 -22370906.795 9 -17413277.20748  20558535.196    20558536.3234   20558542.7554
      1123.567         875.507
  -4805946.248 9  -3735206.54148  21174672.816    21174673.6104   21174679.6544
      -239.912        -186.944
 -16327257.724 9 -12466023.68848  22704739.414    22704740.9564   22704747.2244
       359.674         280.265
 97  4 22 17 40 30.0000000  0  6 19 27 15  7  2 26                   0.000364844
  18294383.936 9  14250235.93546  24259013.880    24259014.8834   24259023.2424
     -3337.766       -2600.857
    327956.138 9    273331.88348  20913749.543    20913750.5114   20913756.7514
     -1941.048       -1512.505
  -6575158.275 9  -5115970.30347  23665787.923    23665788.9174   23665795.8604
      -366.689        -285.732
 -22404359.944 9 -17439344.57948  20552169.293    20552170.3944   20552176.8224
      1106.848         862.479
  -4798673.033 9  -3729539.10048  21176056.786    21176057.6354   21176063.6734
      -245.000        -190.909
 -16337771.538 9 -12474216.27748  22702738.626    22702740.2354   22702746.5324
       341.382         266.012
 97  4 22 17 41  0.0000000  0  6 19 27 15  7  2 26                   0.000365745
  18394594.930 9  14328322.27346  24278083.590    24278084.5074   24278092.9134
     -3342.737       -2604.730
    386409.359 9    318879.82848  20924872.766    20924873.8214   20924880.0604
     -1955.800       -1524.000
  -6563871.664 9  -5107175.53147  23667935.897    23667936.5934   23667943.6164
      -385.638        -300.497
 -22437322.966 9 -17465030.03448  20545896.625    20545897.7434   20545904.1704
      1090.739         849.926
  -4791250.686 9  -3723755.44948  21177469.251    21177470.0514   21177476.1114
      -249.662        -194.542
 -16347741.448 9 -12481985.04548  22700841.526    22700843.0244   22700849.3144
       323.444         252.034
 97  4 22 17 41 30.0000000  0  6 19 27 15  7  2 26                   0.000366639
  18494951.288 9  14406521.87846  24297180.959    24297181.8234   24297190.2084
     -3347.681       -2608.582
    445306.878 9    364773.97748  20936080.631    20936081.6694   20936087.9004
     -1970.683       -1535.597
  -6552016.671 9  -5097937.86247  23670191.468    23670192.5054   23670199.5794
      -404.600        -315.273
 -22469813.953 9 -17490347.66848  20539713.823    20539714.8804   20539721.3114
      1075.322         837.913
  -4783689.184 9  -3717863.36648  21178908.261    21178908.9704   21178914.9894
      -254.537        -198.341
 -16357180.886 9 -12489340.45248  22699045.151    22699046.7654   22699053.0144
       306.055         238.484
 97  4 22 17 42  0.0000000  0  6 19 27 15  7  2 26                   0.000367516
  18595458.854 9  14484839.30746  24316307.037    24316307.9094   24316316.2714
     -3352.744       -2612.528
    504646.823 9    411012.87748  20947372.704    20947373.7224   20947379.9594
     -1985.140       -1546.862
  -6539592.790 9  -5088256.92347  23672555.739    23672556.6604   23672563.7354
      -423.510        -330.008
 -22501834.432 9 -17515298.67448  20533620.475    20533621.5664   20533628.0014
      1059.529         825.607
  -4775968.095 9  -3711846.93048  21180377.436    21180378.2404   21180384.2404
      -260.033        -202.623
 -16366104.531 9 -12496293.94048  22697347.189    22697348.6864   22697354.9204
       289.031         225.219
 97  4 22 17 42 30.0000000  0  6 19 27 15  7  2 26                   0.000368372
  18696117.821 9  14563274.70446  24335461.573    24335462.7524   24335471.1544
     -3357.688       -2616.380
    564417.662 9    457587.53548  20958746.713    20958747.7664   20958753.9944
     -1999.436       -1558.002
  -6526602.354 9  -5078134.49747  23675027.758    23675028.7124   23675035.7794
      -442.366        -344.701
 -22533388.946 9 -17539886.58948  20527615.766    20527616.9434   20527623.3804
      1044.334         813.767
  -4768087.038 9  -3705705.84548  21181877.174    21181877.9644   21181883.9494
      -265.338        -206.757
 -16374518.986 9 -12502850.65748  22695745.925    22695747.4704   22695753.6824
       272.068         212.001
 97  4 22 17 43  0.0000000  0  6 19 27 15  7  2 26                   0.000369212
  18796928.321 9  14641828.16946  24354645.430    24354646.4244   24354654.8354
     -3362.965       -2620.492
    624623.765 9    504501.36548  20970203.526    20970204.6184   20970210.8794
     -2014.280       -1569.569
  -6513041.958 9  -5067567.95347  23677608.639    23677609.2114   23677616.2374
      -461.630        -359.712
 -22564489.444 9 -17564120.72948  20521697.624    20521698.6924   20521705.1374
      1028.997         801.816
  -4760035.766 9  -3699432.12448  21183409.326    21183410.0904   21183416.0424
      -271.408        -211.487
 -16382418.601 9 -12509006.20748  22694242.749    22694244.2424   22694250.4314
       254.570         198.366
 97  4 22 17 43 30.0000000  0  6 19 27 15  7  2 26                   0.000370036
  18897899.519 9  14720506.85446  24373859.487    24373860.7024   24373869.2014
     -3368.156       -2624.537
    685270.694 9    551758.69148  20981744.274    20981745.3674   20981751.6124
     -2028.574       -1580.707
  -6498907.700 9  -5056554.25547  23680298.370    23680298.9254   23680305.8164
      -480.420        -374.353
 -22595136.250 9 -17588001.33948  20515865.694    20515866.7624   20515873.2234
      1014.263         790.335
  -4751793.078 9  -3693009.25048  21184977.876    21184978.6164   21184984.5804
      -277.760        -216.436
 -16389795.184 9 -12514754.19548  22692838.999    22692840.4884   22692846.6504
       237.423         185.005
 97  4 22 17 44  0.0000000  0  6 19 27 15  7  2 26                   0.000370842
  18999021.530 9  14799303.03746  24393102.439    24393103.6254   24393112.2654
     -3373.209       -2628.475
    746349.447 9    599352.50448  20993367.185    20993368.2684   20993374.5264
     -2043.346       -1592.218
  -6484211.751 9  -5045102.87247  23683095.238    23683095.5174   23683102.3244
      -499.312        -389.074
 -22625334.334 9 -17611532.29348  20510119.109    20510120.2194   20510126.6794
       999.064         778.491
  -4743369.038 9  -3686445.06448  21186580.960    21186581.6554   21186587.6004
      -283.590        -220.979
 -16396653.034 9 -12520097.97548  22691533.997    22691535.4364   22691541.6084
       219.740         171.226
 97  4 22 17 44 30.0000000  0  6 19 27 15  7  2 26                   0.000371646
  19100293.685 9  14878216.22046  24412374.023    24412375.1774   24412383.9464
     -3378.417       -2632.533
    807875.397 9    647294.78448  21005075.205    21005076.2584   21005082.5424
     -2058.486       -1604.015
  -6468949.071 9  -5033209.89447  23685999.673    23685999.9244   23686006.6834
      -518.435        -403.975
 -22655079.448 9 -17634710.28548  20504458.832    20504459.8694   20504466.3444
       983.598         766.440
  -4734782.862 9  -3679754.53548  21188214.737    21188215.5744   21188221.5104
      -289.011        -225.203
 -16402978.574 9 -12525026.96948  22690330.499    22690331.6864   22690337.8334
       201.911         157.333
 97  4 22 17 45  0.0000000  0  6 19 27 15  7  2 26                   0.000372436
  19201709.819 9  14957241.59646  24431672.968    24431674.1884   24431682.9784
     -3382.790       -2635.940
    869846.226 9    695583.72548  21016867.874    21016868.9504   21016875.2414
     -2073.104       -1615.406
  -6453119.951 9  -5020875.52147  23689011.804    23689012.1624   23689018.9044
      -537.026        -418.462
 -22684357.187 9 -17657524.09148  20498887.472    20498888.4744   20498894.9444
       968.028         754.308
  -4726046.866 9  -3672947.26548  21189877.232    21189877.9704   21189883.9264
      -293.334        -228.572
 -16408787.468 9 -12529553.38548  22689224.999    22689226.2404   22689232.4284
       185.279         144.373
 97  4 22 17 45 30.0000000  0  6 19 27 15  7  2 26                   0.000373209
  19303264.263 9  15036374.73146  24450998.450    24450999.4764   24451008.3374
     -3387.510       -2639.618
    932270.389 9    744225.90748  21028746.846    21028747.8924   21028754.1764
     -2088.388       -1627.315
  -6436723.911 9  -5008099.40447  23692132.008    23692132.1974   23692138.9404
      -556.080        -433.309
 -22713151.630 9 -17679961.29948  20493407.998    20493409.0464   20493415.5234
       951.540         741.460
  -4717183.242 9  -3666040.54448  21191564.034    21191564.6454   21191570.6124
      -297.475        -231.799
 -16414090.441 9 -12533685.57648  22688215.803    22688217.1114   22688223.2914
       168.221         131.081
 97  4 22 17 46  0.0000000  0  6 19 27 15  7  2 26                   0.000373968
  19404954.738 9  15115613.86846  24470349.552    24470350.7364   24470359.5914
     -3392.505       -2643.510
    995149.042 9    793222.24848  21040712.308    21040713.3134   21040719.6214
     -2104.120       -1639.574
  -6419761.189 9  -4994881.68147  23695359.393    23695360.0894   23695366.8794
      -575.486        -448.431
 -22741446.091 9 -17702008.91348  20488023.810    20488024.7814   20488031.2514
       934.232         727.973
  -4708208.786 9  -3659047.45948  21193271.725    21193272.4214   21193278.4134
      -301.621        -235.029
 -16418883.334 9 -12537420.29748  22687303.777    22687305.0904   22687311.2824
       150.668         117.404
 97  4 22 17 46 30.0000000  0  6 19 27 15  7  2 26                   0.000374713
  19506782.257 9  15194959.78346  24489726.949    24489728.0224   24489736.9574
     -3396.720       -2646.795
   1058480.512 9    842571.42548  21052763.903    21052764.9054   21052771.2034
     -2118.686       -1650.924
  -6402226.968 9  -4981218.64247  23698696.415    23698696.7564   23698703.6334
      -594.211        -463.022
 -22769235.738 9 -17723663.16848  20482735.631    20482736.6104   20482743.0584
       917.826         715.189
  -4699111.317 9  -3651958.52448  21195002.848    21195003.5984   21195009.5584
      -305.772        -238.264
 -16423162.977 9 -12540755.08848  22686489.344    22686490.7174   22686496.9274
       133.873         104.317
 97  4 22 17 47  0.0000000  0  6 19 27 15  7  2 26                   0.000375448
  19608748.268 9  15274413.61746  24509130.601    24509131.6554   24509140.6164
     -3401.108       -2650.214
   1122264.481 9    892273.20348  21064901.623    21064902.5634   21064908.8814
     -2133.590       -1662.538
  -6384118.240 9  -4967107.95747  23702142.279    23702142.7504   23702149.6394
      -613.029        -477.685
 -22796536.027 9 -17744936.10048  20477540.536    20477541.5624   20477547.9804
       902.492         703.240
  -4689868.560 9  -3644756.37148  21196761.674    21196762.4434   21196768.3564
      -310.387        -241.860
 -16426915.431 9 -12543679.08048  22685775.231    22685776.6294   22685782.8634
       116.175          90.526
 97  4 22 17 47 30.0000000  0  6 19 27 15  7  2 26                   0.000376208
  19710875.295 9  15353992.90646  24528564.874    24528565.9774   24528574.9114
     -3407.014       -2654.816
   1186512.514 9    942336.58548  21077127.547    21077128.5394   21077134.8864
     -2149.132       -1674.648
  -6365421.673 9  -4952539.18147  23705700.066    23705700.6544   23705707.4654
      -633.107        -493.330
 -22823371.778 9 -17765847.06048  20472433.869    20472434.8744   20472441.2804
       886.876         691.072
  -4680452.134 9  -3637418.89648  21198553.555    21198554.3524   21198560.2664
      -317.080        -247.075
 -16430101.254 9 -12546161.53948  22685169.024    22685170.4254   22685176.6614
        96.478          75.178
 97  4 22 17 48  0.0000000  0  6 19 27 15  7  2 26                   0.000376988
  19813151.214 9  15433688.22446  24548027.444    24548028.5314   24548037.5024
     -3411.390       -2658.226
   1251190.340 9    992734.87048  21089435.402    21089436.3184   21089442.6884
     -2162.959       -1685.423
  -6346151.116 9  -4937523.15247  23709367.179    23709367.7494   23709374.5164
      -651.828        -507.918
 -22849769.400 9 -17786416.62048  20467410.558    20467411.5454   20467417.9864
       872.841         680.136
  -4670856.959 9  -3629942.14148  21200379.469    21200380.2504   21200386.1704
      -322.712        -251.464
 -16432722.092 9 -12548203.76048  22684670.380    22684671.7274   22684677.9554
        78.196          60.932
 97  4 22 17 48 30.0000000  0  6 19 27 15  7  2 26                   0.000377784
  19915558.497 9  15513485.89346  24567515.018    24567516.2064   24567525.1274
     -3415.911       -2661.749
   1316284.992 9   1043457.95548  21101822.493    21101823.3984   21101829.7954
     -2176.867       -1696.260
  -6326313.527 9  -4922065.28147  23713142.058    23713142.7104   23713149.4454
      -670.837        -522.730
 -22875749.791 9 -17806661.05448  20462466.640    20462467.6194   20462474.1034
       858.999         669.350
  -4661088.715 9  -3622330.51948  21202238.197    21202239.0834   21202244.9814
      -328.559        -256.020
 -16434786.216 9 -12549812.17148  22684277.532    22684278.9724   22684285.2044
        59.367          46.260
 97  4 22 17 49  0.0000000  0  6 19 27 15  7  2 26                   0.000378603
  20018100.365 9  15593388.43146  24587028.210    24587029.4394   24587038.3944
     -3420.428       -2665.269
   1381794.449 9   1094504.25948  21114288.492    21114289.4734   21114295.8544
     -2190.626       -1706.981
  -6305910.668 9  -4906166.93447  23717024.533    23717025.2364   23717031.9534
      -689.549        -537.311
 -22901319.526 9 -17826585.50848  20457600.928    20457601.8564   20457608.3244
       845.229         658.620
  -4651158.946 9  -3614593.03848  21204127.830    21204128.6724   21204134.5644
      -333.568        -259.923
 -16436293.519 9 -12550986.70148  22683990.602    22683992.1294   22683998.3574
        41.214          32.115
 97  4 22 17 49 30.0000000  0  6 19 27 15  7  2 26                   0.000379428
  20120775.512 9  15673394.81546  24606566.538    24606567.9094   24606577.0174
     -3424.638       -2668.549
   1447714.025 9   1145870.14448  21126832.604    21126833.5894   21126839.9384
     -2204.109       -1717.488
  -6284942.203 9  -4889827.85047  23721014.603    23721015.4214   23721022.1734
      -708.333        -551.948
 -22926457.317 9 -17846173.37848  20452817.318    20452818.2614   20452824.7224
       830.293         646.981
  -4641081.786 9  -3606740.70648  21206045.452    21206046.2724   21206052.1884
      -338.263        -263.582
 -16437271.076 9 -12551748.44148  22683804.485    22683806.0984   22683812.3364
        24.043          18.735
 97  4 22 17 50  0.0000000  0  6 19 27 15  7  2 26                   0.000380245
  20223581.956 9  15753503.51546  24626130.514    24626131.4734   24626140.5954
     -3429.475       -2672.318
   1514050.285 9   1197560.71648  21139455.980    21139456.9854   21139463.3094
     -2218.776       -1728.916
  -6263404.545 9  -4873045.24147  23725113.313    23725113.8154   23725120.6404
      -727.831        -567.141
 -22951124.977 9 -17865394.91348  20448123.251    20448124.1564   20448130.6064
       813.940         634.239
  -4630869.079 9  -3598782.75148  21207988.877    21207989.7024   21207995.6244
      -343.039        -267.303
 -16437737.078 9 -12552111.56748  22683715.775    22683717.3984   22683723.6424
         6.745           5.256
 97  4 22 17 50 30.0000000  0  6 19 27 15  7  2 26                   0.000381050
  20326529.374 9  15833722.06246  24645720.756    24645721.8954   24645731.0774
     -3433.815       -2675.700
   1580822.381 9   1249590.90148  21152162.368    21152163.3124   21152169.6424
     -2232.771       -1739.822
  -6241294.554 9  -4855816.66947  23729320.694    23729321.1604   23729328.0364
      -746.286        -581.522
 -22975318.648 9 -17884247.10948  20443519.286    20443520.2254   20443526.6634
       798.757         622.408
  -4620516.596 9  -3590715.88248  21209958.859    21209959.6874   21209965.6384
      -347.268        -270.598
 -16437697.632 9 -12552080.83748  22683723.191    22683724.8634   22683731.1144
        -9.408          -7.331
 97  4 22 17 51  0.0000000  0  6 19 27 15  7  2 26                   0.000381840
  20429631.625 8  15914061.24146  24665340.600    24665341.8344   24665351.0424
     -3439.074       -2679.798
   1648036.777 9   1301965.74248  21164952.835    21164953.7804   21164960.1254
     -2247.742       -1751.487
  -6218611.364 9  -4838141.43547  23733637.176    23733637.5934   23733644.5024
      -765.463        -596.465
 -22999027.431 9 -17902721.46948  20439007.603    20439008.5924   20439015.0414
       782.278         609.567
  -4610017.504 9  -3582534.77148  21211956.778    21211957.6084   21211963.5394
      -352.199        -274.441
 -16437162.238 9 -12551663.65748  22683825.170    22683826.7364   22683833.0104
       -25.927         -20.203
 97  4 22 17 51 30.0000000  0  6 19 27 15  7  2 26                   0.000382633
  20532878.174 8  15994512.87146  24684987.941    24684989.1314   24684998.4174
     -3443.746       -2683.438
   1715694.712 9   1354686.19148  21177827.605    21177828.6734   21177835.0264
     -2262.519       -1763.002
  -6195364.374 9  -4820026.90447  23738060.470    23738061.3294   23738068.2354
      -784.143        -611.021
 -23022249.766 9 -17920816.77748  20434588.617    20434589.5174   20434595.9614
       766.175         597.019
  -4599377.343 9  -3574243.73648  21213981.595    21213982.3804   21213988.2874
      -356.907        -278.109
 -16436134.729 9 -12550863.00548  22684020.840    22684022.2644   22684028.5134
       -42.597         -33.192
 97  4 22 17 52  0.0000000  0  6 19 27 15  7  2 26                   0.000383395
  20636263.363 8  16075072.52745  24704661.773    24704662.8194   24704672.1954
     -3448.553       -2687.184
   1783801.245 9   1407756.19948  21190787.801    21190788.9094   21190795.2954
     -2277.860       -1774.956
  -6171553.149 9  -4801472.69647  23742591.658    23742592.4134   23742599.3294
      -803.255        -625.913
 -23044991.609 9 -17938537.68148  20430260.981    20430261.9034   20430268.3184
       750.028         584.437
  -4588590.412 9  -3565838.33948  21216034.277    21216035.0994   21216040.9724
      -362.313        -282.322
 -16434588.005 9 -12549657.77648  22684315.193    22684316.6254   22684322.8764
       -60.494         -47.138
 97  4 22 17 52 30.0000000  0  6 19 27 15  7  2 26                   0.000384153
  20739781.660 8  16155735.91445  24724360.137    24724362.0154   24724371.3174
     -3453.059       -2690.695
   1852354.542 9   1461174.33648  21203833.147    21203834.1624   21203840.5874
     -2292.759       -1786.565
  -6147182.865 9  -4782482.86647  23747229.285    23747229.9224   23747236.8284
      -821.896        -640.438
 -23067264.113 9 -17955892.86648  20426022.595    20426023.6104   20426029.9844
       734.223         572.122
  -4577646.060 9  -3557310.27748  21218116.991    21218117.7534   21218123.5934
      -367.651        -286.481
 -16432518.591 9 -12548045.25848  22684708.979    22684710.4564   22684716.7074
       -77.886         -60.690
 97  4 22 17 53  0.0000000  0  6 19 27 15  7  2 26                   0.000384910
  20843424.972 8  16236496.71545  24744083.287    24744084.8674   24744094.2714
     -3456.597       -2693.452
   1921354.292 9   1514940.35248  21216963.341    21216964.3874   21216970.8404
     -2307.300       -1797.896
  -6122249.358 9  -4763054.15447  23751974.007    23751974.6184   23751981.4904
      -840.431        -654.881
 -23089057.897 9 -17972875.02448  20421875.400    20421876.3744   20421882.7474
       718.752         560.066
  -4566547.896 9  -3548662.36048  21220228.862    21220229.6814   21220235.4834
      -372.451        -290.221
 -16429921.740 9 -12546021.74748  22685203.133    22685204.6504   22685210.8824
       -95.436         -74.366
 97  4 22 17 53 30.0000000  0  7 19  4 27 15  7  2 26                0.000385674
  20947181.322 8  16317345.59245  24763827.694    24763829.1324   24763838.6444
     -3460.492       -2696.487
   -285698.99818   -210035.48355  25045762.354           0.0005   25045774.7885
      3363.010        2620.527
   1990797.620 9   1569052.02148  21230178.019    21230179.0204   21230185.5204
     -2322.005       -1809.355
  -6096748.403 9  -4743183.30547  23756826.633    23756827.3494   23756834.1364
      -859.566        -669.792
 -23110385.641 9 -17989494.02848  20417817.009    20417817.8394   20417824.1754
       703.228         547.970
  -4555280.756 9  -3539882.77248  21222373.020    21222373.7894   21222379.5544
      -378.704        -295.094
 -16426784.225 9 -12543576.94148  22685800.293    22685801.7334   22685807.9494
      -113.583         -88.506
 97  4 22 17 54  0.0000000  0  7 19  4 27 15  7  2 26                0.000386411
  21051033.315 8  16398269.00145  24783590.295    24783591.6434   24783601.1874
     -3463.165       -2698.570
   -386670.304 8   -288714.34445  25026550.119    25026549.1045   25026559.2684
      3368.252        2624.612
   2060650.300 9   1623482.66748  21243470.544    21243471.5704   21243478.0594
     -2334.977       -1819.463
  -6070694.407 9  -4722881.50446  23761784.498    23761785.2534   23761792.0154
      -877.456        -683.732
 -23131265.194 9 -18005763.79948  20413843.758    20413844.5654   20413850.8794
       688.618         536.585
  -4543840.658 9  -3530968.41048  21224550.028    21224550.7854   21224556.5184
      -384.061        -299.268
 -16423131.546 9 -12540730.70548  22686495.388    22686496.8344   22686503.0144
      -129.946        -101.257
 97  4 22 17 54 30.0000000  0  7 19  4 27 15  7  2 26                0.000387108
  21154984.302 8  16479269.53445  24803371.967    24803373.0044   24803382.7074
     -3467.098       -2701.635
   -487784.609 8   -367504.58455  25007307.107    25007308.0624   25007318.3785
      3372.547        2627.959
   2130906.009 9   1678227.36248  21256839.800    21256840.8204   21256847.3054
     -2349.049       -1830.428
  -6044089.443 9  -4702150.35646  23766847.280    23766847.9594   23766854.7514
      -896.537        -698.600
 -23151693.043 9 -18021681.59248  20409956.444    20409957.2564   20409963.5504
       673.011         524.424
  -4532225.491 9  -3521917.63348  21226760.338    21226761.0754   21226766.8094
      -390.388        -304.198
 -16418978.911 9 -12537494.89648  22687285.509    22687287.0534   22687293.2294
      -147.268        -114.754
 97  4 22 17 55  0.0000000  0  7 19  4 27 15  7  2 26                0.000387792
  21259045.297 8  16560355.80745  24823174.073    24823175.2724   24823185.1004
     -3470.917       -2704.611
   -589034.416 8   -446400.40145  24988038.818    24988040.1335   24988050.9614
      3377.046        2631.464
   2201579.787 9   1733297.81748  21270288.549    21270289.6134   21270296.1144
     -2362.929       -1841.243
  -6016913.522 9  -4680974.33747  23772018.921    23772019.3584   23772026.1534
      -915.645        -713.490
 -23171658.157 9 -18037238.81248  20406157.150    20406158.0124   20406164.2904
       657.493         512.332
  -4520426.560 9  -3512723.66348  21229005.529    21229006.3204   21229012.0784
      -396.621        -309.055
 -16414301.374 9 -12533850.07148  22688175.607    22688177.1454   22688183.3064
      -164.992        -128.565
 97  4 22 17 55 30.0000000  0  7 19  4 27 15  7  2 26                0.000388459
  21363234.994 8  16641542.36645  24843001.211    24843002.2364   24843012.0314
     -3475.082       -2707.856
   -690417.961 8   -525400.39045  24968746.558    24968747.5264   24968758.4504
      3381.636        2635.041
   2272671.596 9   1788694.01348  21283816.988    21283817.9504   21283824.4514
     -2376.568       -1851.871
  -5989163.498 9  -4659350.97447  23777299.419    23777300.0214   23777306.7644
      -934.334        -728.052
 -23191145.916 9 -18052424.06948  20402448.729    20402449.6034   20402455.8724
       641.671         500.003
  -4508436.814 9  -3503381.00748  21231287.095    21231287.9064   21231293.6674
      -402.484        -313.624
 -16409090.313 9 -12529789.51348  22689167.360    22689168.7804   22689174.9044
      -182.292        -142.046
 97  4 22 17 56  0.0000000  0  8 19  4 27 15  9  7  2 26             0.000389112
  21467560.869 8  16722835.03445  24862853.846    24862855.1154   24862864.6844
     -3480.390       -2711.992
   -791917.199 8   -604490.48745  24949432.030    24949432.8844   24949443.7664
      3384.631        2637.375
   2344183.123 9   1844417.26248  21297425.111    21297426.1564   21297432.6264
     -2391.573       -1863.563
  -5960846.748 9  -4637285.98746  23782687.762    23782688.5404   23782695.2044
      -953.974        -743.356
  -2146400.01518  -1113659.48055  25251905.855    25251907.3475   25251914.1605
      3317.883        2585.363
 -23210151.177 9 -18067233.35048  20398832.162    20398833.0524   20398839.2914
       624.927         486.956
  -4496284.986 9  -3493912.05048  21233599.446    21233600.2964   21233606.0784
      -408.055        -317.965
 -16403357.831 9 -12525322.65448  22690258.210    22690259.6714   22690265.7644
      -200.432        -156.181
 97  4 22 17 56 30.0000000  0  8 19  4 27 15  9  7  2 26             0.000389786
  21572029.223 8  16804238.74545  24882733.575    24882734.9174   24882744.7024
     -3484.560       -2715.242
   -893521.257 9   -683662.25845  24930097.385    24930098.2134   24930109.0854
      3388.603        2640.470
   2416141.012 9   1900488.33248  21311118.236    21311119.3074   21311125.7544
     -2406.029       -1874.828
  -5931951.060 9  -4614769.85346  23788186.443    23788187.2344   23788193.9044
      -972.839        -758.056
  -2245950.748 9  -1191231.45846  25232961.981    25232963.5364   25232970.3984
      3318.367        2585.741
 -23228673.914 9 -18081666.63948  20395307.403    20395308.2954   20395314.5234
       609.573         474.992
  -4483981.263 9  -3484324.73948  21235940.751    21235941.6194   21235947.4154
      -412.599        -321.506
 -16397089.825 9 -12520438.50048  22691450.995    22691452.4944   22691458.5584
      -217.813        -169.724
 97  4 22 17 57  0.0000000  0  8 19  4 27 15  9  7  2 26             0.000390458
  21676601.890 8  16885723.71845  24902633.256    24902634.6624   24902644.3974
     -3488.070       -2717.977
   -995261.918 9   -762940.47345  24910736.613    24910737.6994   24910748.5324
      3392.986        2643.885
   2488505.458 9   1956876.19548  21324888.666    21324889.8064   21324896.2294
     -2419.278       -1885.152
  -5902512.729 9  -4591830.95946  23793788.530    23793789.1184   23793795.8484
      -990.819        -772.067
  -2345529.817 8  -1268825.52945  25214012.824    25214013.9924   25214020.8704
      3319.025        2586.253
 -23246758.220 9 -18095758.29148  20391866.115    20391866.9504   20391873.1964
       594.895         463.555
  -4471564.480 9  -3474649.32448  21238303.735    21238304.4664   21238310.2544
      -416.275        -324.370
 -16390325.757 9 -12515167.80048  22692738.159    22692739.7014   22692745.7384
      -234.168        -182.469
 97  4 22 17 57 30.0000000  0  8 19  4 27 15  9  7  2 26             0.000391138
  21781310.580 8  16967314.70245  24922559.069    24922560.2934   24922569.9244
     -3492.518       -2721.443
  -1097104.073 9   -842297.77045  24891356.556    24891357.6574   24891368.4684
      3396.212        2646.399
   2561285.367 9   2013587.79648  21338738.281    21338739.3534   21338745.7564
     -2432.946       -1895.802
  -5872511.550 9  -4568453.40646  23799497.899    23799498.1744   23799504.8454
     -1009.534        -786.650
  -2445088.692 9  -1346403.81246  25195067.317    25195068.6054   25195075.5754
      3318.099        2585.532
 -23264382.635 9 -18109491.59048  20388512.231    20388513.0874   20388519.3514
       579.911         451.879
  -4459013.334 9  -3464869.21348  21240692.147    21240692.8644   21240698.6154
      -420.713        -327.828
 -16383043.723 9 -12509493.50048  22694124.020    22694125.4434   22694131.4944
      -251.363        -195.867
 97  4 22 17 58  0.0000000  0  8 19  4 27 15  9  7  2 26             0.000391830
  21886139.786 8  17048999.57745  24942507.348    24942508.6674   24942518.3564
     -3496.200       -2724.312
  -1199027.954 8   -921718.76345  24871960.983    24871962.1214   24871972.8334
      3398.653        2648.301
   2634478.258 9   2070621.19748  21352666.425    21352667.5194   21352673.8934
     -2446.790       -1906.590
  -5841940.282 9  -4544631.73546  23805315.303    23805315.7614   23805322.4324
     -1028.738        -801.614
  -2544607.732 8  -1423951.15545  25176129.759    25176130.7034   25176137.6374
      3316.425        2584.227
 -23281554.047 9 -18122871.89448  20385244.573    20385245.4454   20385251.7174
       564.557         439.915
  -4446323.391 9  -3454980.95248  21243106.907    21243107.6854   21243113.4254
      -425.582        -331.622
 -16375238.082 9 -12503411.18848  22695609.464    22695610.7864   22695616.8854
      -269.228        -209.788
 97  4 22 17 58 30.0000000  0  8 19  4 27 15  9  7  2 26             0.000392529
  21991074.027 8  17130766.32545  24962476.507    24962476.9204   24962486.8634
     -3499.823       -2727.135
  -1301038.114 9  -1001206.98046  24852548.923    24852550.0594   24852560.7014
      3401.679        2650.659
   2708079.728 9   2127972.97348  21366672.414    21366673.4524   21366679.8114
     -2460.284       -1917.104
  -5810798.499 9  -4520365.39946  23811241.420    23811241.9214   23811248.5364
     -1047.688        -816.380
  -2644083.854 9  -1501464.93246  25157200.002    25157200.9334   25157207.9814
      3315.089        2583.186
 -23298260.869 9 -18135890.18348  20382065.405    20382066.2314   20382072.5004
       548.869         427.690
  -4433479.853 9  -3444972.99948  21245550.994    21245551.7114   21245557.4294
      -431.008        -335.850
 -16366900.286 9 -12496914.21348  22697196.135    22697197.4014   22697203.5364
      -286.948        -223.596
 97  4 22 17 59  0.0000000  0  8 19  4 27 15  9  7  2 26             0.000393220
  22096115.468 8  17212616.59145  24982464.752    24982465.1164   24982476.1364
     -3502.944       -2729.567
  -1403142.667 9  -1080768.73146  24833119.017    24833120.1224   24833130.5914
      3405.112        2653.334
   2782080.770 9   2185636.09848  21380754.355    21380755.3944   21380761.7594
     -2473.333       -1927.272
  -5779096.611 9  -4495662.70346  23817274.079    23817274.5534   23817281.3384
     -1065.948        -830.609
  -2743527.794 9  -1578953.73445  25138276.251    25138277.4675   25138284.5974
      3314.393        2582.644
 -23314500.595 9 -18148544.50048  20378975.013    20378975.9094   20378982.2054
       533.597         415.790
  -4420478.978 9  -3434842.45048  21248024.865    21248025.6774   21248031.4094
      -435.846        -339.620
 -16358035.151 9 -12490006.32948  22698882.993    22698884.3504   22698890.5524
      -304.271        -237.094
 97  4 22 17 59 30.0000000  0  8 19  4 27 15  9  7  2 26             0.000393917
  22201266.501 8  17294552.25145  25002474.343    25002474.9414   25002485.7474
     -3506.852       -2732.612
  -1505332.856 9  -1160397.21446  24813672.447    24813673.8234   24813684.2874
      3407.522        2655.212
   2856501.347 9   2243626.13748  21394916.137    21394917.1524   21394923.5514
     -2488.166       -1938.831
  -5746826.986 9  -4470517.53247  23823414.637    23823415.3454   23823422.0694
     -1085.332        -845.713
  -2842939.823 9  -1656417.64745  25119359.158    25119359.9574   25119366.9674
      3313.310        2581.800
 -23330264.878 9 -18160828.34348  20375975.234    20375976.0804   20375982.3744
       517.416         403.181
  -4407310.031 9  -3424580.93648  21250530.900    21250531.6414   21250537.3884
      -442.106        -344.498
 -16348627.058 9 -12482675.36348  22700673.271    22700674.6514   22700680.8824
      -322.701        -251.455
 97  4 22 18  0  0.0000000  0  8 19  4 27 15  9  7  2 26             0.000394620
  22306508.528 7  17376558.83045  25022500.887    25022501.8364   25022513.2364
     -3509.833       -2734.935
  -1607610.907 9  -1240094.15746  24794209.479    24794210.7654   24794221.2304
      3410.707        2657.694
   2931359.223 9   2301956.92848  21409161.210    21409162.1674   21409168.5524
     -2502.772       -1950.212
  -5713996.049 9  -4444935.04447  23829662.117    23829662.8224   23829669.6234
     -1103.703        -860.028
  -2942356.699 8  -1733885.35646  25100441.356    25100441.6974   25100448.5264
      3314.194        2582.489
 -23345561.975 9 -18172748.14448  20373064.280    20373065.1534   20373071.4554
       502.049         391.207
  -4393975.179 9  -3414190.14948  21253068.369    21253069.1774   21253074.9554
      -447.159        -348.435
 -16338701.302 9 -12474941.02348  22702562.012    22702563.4534   22702569.6794
      -339.437        -264.496
 97  4 22 18  0 30.0000000  0  8 19  4 27 15  9  7  2 26             0.000395331
  22411857.571 7  17458648.82045  25042548.477    25042549.1874   25042560.6844
     -3513.700       -2737.948
  -1709978.848 9  -1319861.16046  24774729.217    24774730.6084   24774741.0844
      3413.411        2659.801
   3006671.476 9   2360641.78248  21423492.613    21423493.6174   21423500.0324
     -2518.267       -1962.286
  -5680603.523 9  -4418914.90147  23836016.577    23836017.1804   23836024.0034
     -1122.786        -874.898
  -3041790.880 9  -1811366.45245  25081519.543    25081519.8694   25081527.0264
      3314.417        2582.662
 -23360391.496 9 -18184303.60448  20370242.408    20370243.1914   20370249.5114
       486.403         379.015
  -4380474.965 9  -3403670.50648  21255637.354    21255638.1864   21255643.9724
      -453.077        -353.047
 -16328266.140 9 -12466809.73948  22704547.766    22704549.1934   22704555.4354
      -356.556        -277.836
 97  4 22 18  1  0.0000000  0  8 19  4 27 15  9  7  2 26             0.000396057
  22517323.26217  17540829.72755  25062617.780    25062618.3865          0.0005
     -3517.207       -2740.681
  -1812424.565 9  -1399688.74846  24755234.129    24755235.7354   24755246.0294
      3416.088        2661.887
   3082436.824 9   2419679.69248  21437910.280    21437911.2934   21437917.6794
     -2532.746       -1973.568
  -5646642.542 9  -4392451.83446  23842478.749    23842479.7914   23842486.5554
     -1141.460        -889.449
  -3141232.066 9  -1888853.14446  25062596.881    25062596.9954   25062604.0394
      3314.751        2582.923
 -23374761.486 9 -18195500.98748  20367507.903    20367508.6784   20367514.9964
       471.433         367.350
  -4366809.727 9  -3393022.27248  21258237.688    21258238.6024   21258244.3924
      -458.095        -356.957
 -16317320.020 9 -12458280.30748  22706630.722    22706632.1574   22706638.3874
      -373.248        -290.843
 97  4 22 18  1 30.0000000  0  8 19  4 27 15  9  7  2 26             0.000396784
  22622874.30417  17623077.09755  25082704.648    25082704.7495   25082716.1855
     -3519.665       -2742.596
  -1914951.613 9  -1479579.73146  24735724.075    24735725.3654   24735735.5554
      3418.837        2664.029
   3158624.034 9   2479046.32848  21452408.213    21452409.2494   21452415.6224
     -2546.444       -1984.242
  -5612127.450 9  -4365556.96046  23849046.770    23849047.8354   23849054.5294
     -1159.651        -903.624
  -3240686.441 9  -1966349.99646  25043671.007    25043671.3804   25043678.6254
      3315.397        2583.426
 -23388688.172 9 -18206352.93848  20364857.771    20364858.5304   20364864.8484
       456.808         355.954
  -4352995.918 9  -3382258.26648  21260866.366    21260867.2874   21260873.0744
      -462.889        -360.693
 -16305883.953 9 -12449369.10248  22708807.073    22708808.3954   22708814.5884
      -389.165        -303.245
 97  4 22 18  2  0.0000000  0  8 19  4 27 15  9  7  2 26             0.000397505
  22728526.19817  17705403.03455  25102809.049    25102809.8935          0.0005
     -3522.864       -2745.089
  -2017533.808 9  -1559513.68146  24716203.290    24716204.5064   24716214.4984
      3420.665        2665.453
   3235227.883 9   2538737.61248  21466985.396    21466986.4654   21466992.8394
     -2559.795       -1994.645
  -5577046.680 9  -4338221.31746  23855723.008    23855723.4734   23855730.1844
     -1178.407        -918.239
  -3340140.152 9  -2043846.39246  25024745.859    25024746.1104   25024753.2054
      3315.208        2583.279
 -23402148.019 9 -18216841.12248  20362296.373    20362297.1674   20362303.5134
       441.176         343.774
  -4339022.696 9  -3371370.04648  21263525.355    21263526.3064   21263532.1054
      -468.087        -364.743
 -16293947.609 9 -12440068.06848  22711078.454    22711079.8044   22711086.0124
      -406.099        -316.441
 97  4 22 18  2 30.0000000  0  8 19  4 27 15  9  7  2 26             0.000398172
  22834271.00417  17787801.43054  25122931.275           0.0005          0.0005
     -3526.581       -2747.985
  -2120177.246 9  -1639495.35646  24696670.414    24696671.9614   24696681.9164
      3422.187        2666.639
   3312211.934 9   2598725.15848  21481634.959    21481636.0704   21481642.4194
     -2572.472       -2004.524
  -5541409.430 9  -4310452.07546  23862504.462    23862504.9634   23862511.7104
     -1197.409        -933.046
  -3439586.674 9  -2121337.11846  25005821.578    25005821.6884   25005829.0914
      3314.425        2582.669
 -23415144.319 9 -18226968.09748  20359823.220    20359824.0204   20359830.4004
       425.196         331.322
  -4324887.907 9  -3360355.92848  21266215.243    21266216.0484   21266221.8764
      -474.217        -369.520
 -16281498.291 9 -12430367.31648  22713447.441    22713448.8524   22713455.0184
      -423.903        -330.314
 97  4 22 18  3  0.0000000  0  7  4 27 15  9  7  2 26                0.000398867
  -2222874.170 9  -1719518.70846  24677127.569    24677129.1454   24677139.1204
      3424.281        2668.271
   3389563.959 9   2658999.43448  21496354.664    21496355.6874   21496362.0514
     -2584.508       -2013.902
  -5505212.726 9  -4282246.88046  23869392.117    23869392.9754   23869399.7124
     -1215.838        -947.406
  -3539015.010 8  -2198813.73745  24986901.491    24986901.2054   24986908.5644
      3314.029        2582.360
 -23427667.597 9 -18236726.48348  20357440.033    20357440.8784   20357447.2784
       409.592         319.163
  -4310576.220 9  -3349203.96748  21268938.670    21268939.4714   21268945.3444
      -480.075        -374.084
 -16268517.938 9 -12420252.77448  22715917.428    22715918.9054   22715925.0634
      -441.542        -344.059
 97  4 22 18  3 30.0000000  0  7  4 27 15  9  7  2 26                0.000399564
  -2325633.820 9  -1799590.93446  24657572.725    24657574.4714   24657584.5014
      3426.819        2670.249
   3467289.155 9   2719564.49848  21511145.295    21511146.3264   21511152.6984
     -2596.972       -2023.615
  -5468462.540 9  -4253610.38346  23876385.484    23876386.3464   23876393.1684
     -1233.841        -961.435
  -3638430.352 9  -2276280.19546  24967983.597    24967982.8814   24967990.3044
      3313.985        2582.326
 -23439726.607 9 -18246123.10648  20355145.226    20355146.0594   20355152.4674
       394.617         307.494
  -4296079.626 9  -3337907.92248  21271697.278    21271698.0724   21271703.9554
      -485.907        -378.629
 -16255009.106 9 -12409726.42248  22718488.071    22718489.5244   22718495.6864
      -458.766        -357.480
 97  4 22 18  4  0.0000000  0  7  4 27 15  9  7  2 26                0.000400272
  -2428456.386 9  -1879712.19146  24638006.511    24638007.7484   24638017.8304
      3428.760        2671.761
   3545414.700 9   2780441.51948  21526012.098    21526013.1494   21526019.5214
     -2610.913       -2034.478
  -5431152.353 9  -4224537.51046  23883485.329    23883486.2094   23883493.1184
     -1252.987        -976.354
  -3737826.263 8  -2353731.52246  24949069.135    24949068.6624   24949076.0184
      3312.826        2581.423
 -23451318.791 9 -18255155.96548  20352939.174    20352940.0904   20352946.4964
       378.840         295.200
  -4281394.912 9  -3326465.28648  21274491.635    21274492.4604   21274498.3334
      -492.551        -383.806
 -16240959.515 9 -12398778.70348  22721161.730    22721163.0944   22721169.2184
      -477.182        -371.830
 97  4 22 18  4 30.0000000  0  7  4 27 15  9  7  2 26                0.000400984
  -2531357.773 9  -1959894.86746  24618424.619    24618425.9974   24618436.1364
      3431.136        2673.612
   3623951.208 9   2841638.76648  21540957.079    21540958.1584   21540964.5484
     -2625.089       -2045.524
  -5393285.843 9  -4195031.15946  23890691.124    23890691.9284   23890698.8934
     -1271.705        -990.939
  -3837196.272 9  -2431162.65946  24930159.242    24930159.1224   24930166.4994
      3311.556        2580.433
 -23462453.899 9 -18263832.66748  20350820.187    20350821.1314   20350827.5664
       363.227         283.034
  -4266529.844 9  -3314882.12048  21277320.401    21277321.2054   21277327.0804
      -498.473        -388.421
 -16226384.360 9 -12387421.45748  22723935.297    22723936.7154   22723942.8104
      -494.617        -385.416
 97  4 22 18  5  0.0000000  0  7  4 27 15  9  7  2 26                0.000401691
  -2634340.832 9  -2040141.17046  24598826.874    24598828.8834   24598838.8844
      3434.226        2676.020
   3702917.279 9   2903170.73948  21555983.854    21555984.9304   21555991.3104
     -2639.311       -2056.606
  -5354865.266 9  -4165093.06746  23898002.117    23898003.0954   23898010.0734
     -1289.815       -1005.051
  -3936529.497 8  -2508565.11246  24911256.057    24911256.7044   24911263.9294
      3310.504        2579.613
 -23473128.196 9 -18272150.29148  20348789.003    20348789.9014   20348796.2954
       348.296         271.399
  -4251505.607 9  -3303174.92748  21280179.442    21280180.2474   21280186.1014
      -503.176        -392.085
 -16211302.230 9 -12375669.16648  22726805.338    22726806.7774   22726812.8474
      -510.952        -398.144
 97  4 22 18  5 30.0000000  0  7  4 27 15  9  7  2 26                0.000402392
  -2737395.840 9  -2120443.53846  24579216.177    24579217.9914   24579227.9764
      3436.037        2677.431
   3782321.842 9   2965044.39448  21571094.131    21571095.1284   21571101.5444
     -2654.231       -2068.232
  -5315888.181 9  -4134721.31146  23905419.598    23905420.1954   23905427.1874
     -1308.655       -1019.731
  -4035809.637 9  -2585926.25446  24892362.931    24892364.3674   24892371.5904
      3308.307        2577.901
 -23483338.774 9 -18280106.57848  20346846.016    20346846.9334   20346853.2864
       332.263         258.906
  -4236338.152 9  -3291356.12948  21283065.729    21283066.5144   21283072.3494
      -507.929        -395.789
 -16195727.796 9 -12363533.26348  22729769.053    22729770.5374   22729776.5934
      -527.429        -410.984
 97  4 22 18  6  0.0000000  0  7  4 27 15  9  7  2 26                0.000403068
  -2840523.510 9  -2200802.51946  24559591.503    24559593.2824   24559603.2574
      3438.713        2679.517
   3862142.828 9   3027242.52948  21586283.594    21586284.5954   21586291.0094
     -2667.233       -2078.363
  -5276366.649 9  -4103925.34046  23912940.215    23912940.8104   23912947.8624
     -1326.383       -1033.545
  -4135046.054 8  -2663253.28846  24873478.580    24873480.0384   24873487.1994
      3307.273        2577.096
 -23493080.843 9 -18287697.79548  20344992.159    20344993.0914   20344999.4304
       316.986         247.002
  -4221055.155 9  -3279447.30348  21285974.057    21285974.7874   21285980.6094
      -511.213        -398.348
 -16179677.020 9 -12351026.18648  22732823.434    22732824.9274   22732830.9994
      -542.806        -422.966
 97  4 22 18  6 30.0000000  0  7  4 27 15  9  7  2 26                0.000403718
  -2943711.927 9  -2281208.82846  24539955.328    24539957.0014   24539966.9074
      3440.180        2680.660
   3942357.863 9   3089747.71748  21601548.092    21601549.0374   21601555.4754
     -2680.447       -2088.660
  -5236301.514 9  -4072705.75446  23920564.522    23920565.0384   23920572.0534
     -1344.814       -1047.907
  -4234232.923 9  -2740541.69846  24854603.933    24854605.4314   24854612.7234
      3305.091        2575.396
 -23502347.751 9 -18294918.75948  20343228.704    20343229.6814   20343235.9814
       300.716         234.324
  -4205658.462 9  -3267449.88348  21288903.971    21288904.6954   21288910.5084
      -515.494        -401.684
 -16163150.318 9 -12338148.25848  22735968.383    22735969.8714   22735975.9334
      -559.343        -435.852
 97  4 22 18  7  0.0000000  0  7  4 27 15  9  7  2 26                0.000404355
  -3046941.965 9  -2361647.57846  24520311.338    24520312.7734   24520322.6574
      3441.265        2681.505
   4022955.077 9   3152550.70648  21616885.258    21616886.2024   21616892.6454
     -2693.117       -2098.533
  -5195688.672 9  -4041059.37646  23928292.708    23928293.3704   23928300.3584
     -1363.188       -1062.224
  -4333367.510 8  -2817789.40245  24835739.969    24835740.4734   24835747.8504
      3303.529        2574.178
 -23511138.275 9 -18301768.51048  20341556.041    20341556.8914   20341563.1774
       284.983         222.065
  -4190127.579 9  -3255347.89648  21291859.384    21291860.1404   21291865.9624
      -520.468        -405.559
 -16146122.630 9 -12324879.95048  22739208.663    22739210.1414   22739216.2384
      -576.395        -449.139
 97  4 22 18  7 30.0000000  0  7  4 27 15  9  7  2 26                0.000404986
  -3150215.600 9  -2442120.30046  24500658.653    24500660.2774   24500670.0834
      3443.165        2682.986
   4103919.563 9   3215639.88648  21632292.261    21632293.2554   21632299.6954
     -2704.999       -2107.791
  -5154532.130 9  -4008989.37946  23936123.707    23936125.1804   23936132.3184
     -1380.963       -1076.075
  -4432467.452 9  -2895010.10546  24816882.223    24816882.6154   24816890.0244
      3302.868        2573.663
 -23519471.503 9 -18308261.93348  20339970.259    20339971.1474   20339977.4224
       270.161         210.515
  -4174447.637 9  -3243129.76348  21294843.170    21294843.9524   21294849.7574
      -525.398        -409.401
 -16128585.938 9 -12311215.01848  22742545.737    22742547.2444   22742553.3464
      -593.260        -462.281
 97  4 22 18  8  0.0000000  0  7  4 27 15  9  7  2 26                0.000405628
  -3253532.915 9  -2522627.06046  24480997.670    24480999.4784   24481009.2634
      3444.470        2684.003
   4185247.544 9   3279012.30948  21647768.454    21647769.4804   21647775.8994
     -2717.040       -2117.174
  -5112832.068 9  -3976495.82046  23944059.223    23944060.5104   23944067.5194
     -1399.222       -1090.303
  -4531542.904 9  -2972211.69346  24798028.376    24798028.9244   24798036.4544
      3301.911        2572.918
 -23527355.181 9 -18314405.05148  20338470.106    20338470.9154   20338477.2004
       255.391         199.006
  -4158597.958 9  -3230779.36548  21297859.343    21297860.0524   21297865.8494
      -531.441        -414.110
 -16110517.499 9 -12297135.72848  22745984.000    22745985.5314   22745991.6434
      -611.317        -476.351
 97  4 22 18  8 30.0000000  0  7  4 27 15  9  7  2 26                0.000406297
  -3356886.004 9  -2603161.70546  24461330.076    24461331.8374   24461341.5074
      3445.685        2684.949
   4266944.154 9   3342671.97348  21663314.896    21663315.8514   21663322.3044
     -2729.612       -2126.970
  -5070582.829 9  -3943574.35446  23952099.302    23952100.2864   23952107.3074
     -1417.445       -1104.503
  -4630587.848 8  -3049389.59646  24779181.388    24779181.5474   24779188.8294
      3301.089        2572.277
 -23534808.863 9 -18320213.10848  20337051.653    20337052.4964   20337058.7654
       241.487         188.172
  -4142559.979 9  -3218282.24248  21300911.277    21300911.9924   21300917.7474
      -537.844        -419.099
 -16091912.127 9 -12282638.05248  22749524.616    22749526.0414   22749532.1784
      -628.994        -490.125
 97  4 22 18  9  0.0000000  0  7  4 27 15  9  7  2 26                0.000406989
  -3460283.193 9  -2683730.71946  24441653.842    24441655.7694   24441665.4714
      3448.068        2686.806
   4349025.708 9   3406631.59348  21678934.459    21678935.4664   21678941.9274
     -2742.073       -2136.680
  -5027793.418 9  -3910231.95446  23960241.972    23960242.8954   23960249.8404
     -1434.637       -1117.899
  -4729619.809 9  -3126557.24946  24760336.337    24760336.2014   24760343.7094
      3301.520        2572.613
 -23541853.340 9 -18325702.30848  20335711.200    20335711.9794   20335718.2394
       228.599         178.129
  -4126334.302 9  -3205638.85748  21303998.878    21303999.6374   21304005.3984
      -543.079        -423.178
 -16072788.171 9 -12267736.29248  22753163.845    22753165.2534   22753171.3844
      -645.116        -502.688
 97  4 22 18  9 30.0000000  0  7  4 27 15  9  7  2 26                0.000407708
  -3563736.245 9  -2764343.27546  24421967.036    24421969.0874   24421978.6944
      3449.322        2687.783
   4431503.718 9   3470900.14148  21694629.577    21694630.5484   21694637.0194
     -2755.944       -2147.489
  -4984469.325 9  -3876472.94746  23968486.393    23968487.1574   23968494.1694
     -1453.071       -1132.263
  -4828637.010 8  -3203713.54346  24741494.163    24741493.9454   24741501.1164
      3300.107        2571.512
 -23548486.472 9 -18330870.97748  20334448.952    20334449.7474   20334455.9794
       213.954         166.717
  -4109942.579 9  -3192866.09048  21307118.099    21307118.8684   21307124.6554
      -549.172        -427.926
 -16053175.068 9 -12252453.36748  22756896.176    22756897.4944   22756903.6414
      -661.720        -515.626
 97  4 22 18 10  0.0000000  0  7  4 27 15  9  7  2 26                0.000408390
  -3667222.095 9  -2844981.38546  24402274.823    24402276.2614   24402285.7604
      3450.016        2688.324
   4514397.798 9   3535492.90448  21710403.904    21710404.7904   21710411.2704
     -2770.169       -2158.573
  -4940595.363 9  -3842285.44246  23976835.081    23976836.2654   23976843.0904
     -1471.668       -1146.754
  -4927610.008 9  -3280835.26346  24722661.168    24722660.0354   24722667.4654
      3298.132        2569.973
 -23554674.886 9 -18335693.11148  20333271.434    20333272.1624   20333278.3624
       198.873         154.966
  -4093372.354 9  -3179954.22948  21310271.304    21310272.0744   21310277.8614
      -555.194        -432.619
 -16033075.229 9 -12236791.17148  22760720.978    22760722.3864   22760728.5454
      -677.822        -528.173
